     2              OBSERVATION DATA    GPS                 RINEX VERSION / TYPE
teqc 2002Apr3 20070406 16:16:51UTC                          PGM / RUN BY / DATE
                                                            COMMENT
L2: 1 -> 1; 150 -> 5; 250 -> 9                              COMMENT
L2: 1 -> 1; 150 -> 5; 250 -> 9                              COMMENT
L2: 1 -> 1; 150 -> 5; 250 -> 9                              COMMENT
L2: 1 -> 1; 150 -> 5; 250 -> 9                              COMMENT
L2: 1 -> 1; 150 -> 5; 250 -> 9                              COMMENT
Original Marker Name: MH34                                  COMMENT
Campaign Name: Painted Canyon Array                         COMMENT
4-Character Station Name: MH34                              COMMENT
6-Character Antenna Code: DMRCHT                            COMMENT
Vertical Measurement Point: BCR                             COMMENT
Vertical Offset to Rinex Ref. Point: 0.0348                 COMMENT
Radial Measurement Point: ECF                               COMMENT
Radial Offset to Rinex Ref. Point: 0.1897                   COMMENT
Antenna Height from Field Measurement: 1.1250 m             COMMENT
Additional Antenna Identification Info.:                    COMMENT
Turborogue and Ashtech Choke Ring                           COMMENT
Original XYZ: 0.0000 0.0000 0.0000                          COMMENT
New XYZ position is based on association with SCEC monument COMMENT
E1D0K9Y5+0341. Position of that monument is believed to be  COMMENT
valid to within 1 m horizontally; vertical accuracy         COMMENT
should be no worse than 3-times this value.                 COMMENT
                                                            COMMENT
Revised Rinex header created by UCSD GPS archive for        COMMENT
GSAC on 09-Jun-2007 (2007:160) 17:15:02 GMT                 COMMENT
For assistance contact dagnew@ucsd.edu                      COMMENT
or anderson@python.ucsd.edu                                 COMMENT
                                                            COMMENT
MH34                                                        MARKER NAME
-Unknown- SCRIPPS INSTITUTION OF OCEANOGRAPHY               OBSERVER / AGENCY
319 ASHTECH Z-XII3 CC00                                     REC # / TYPE / VERS
409 DORNE-MARGOL. TYPE T                                    ANT # / TYPE
 -2332763.0000 -4778513.0000  3510307.0000                  APPROX POSITION XYZ
        1.0741        0.0000        0.0000                  ANTENNA: DELTA H/E/N
     1     1     0                                          WAVELENGTH FACT L1/2
     7    C1    L1    L2    P1    P2    S1    S2            # / TYPES OF OBSERV
    30                                                      INTERVAL
  2007     2    18     2    16    5.000000                  TIME OF FIRST OBS
  2007     2    18    16    23   10.000000                  TIME OF LAST OBS
                                                            END OF HEADER
 07  2 18  2 16  5.0000000  0  1G 1
                     -2887.78259      -577.81243
       243.0004         74.0004
 07  2 18  2 16 10.0000000  0  5G 1G22G14G31G25
                     -5572.73449     -2670.13745                  17826323.0954
       242.0004        158.0004
                     10643.97619    585681.342 1
       232.000
                     11647.25119   1110472.312 1
       236.000
                    -15405.67219   1301992.840 1
       240.000
                    -26767.52419    529220.475 1
       221.000
 07  2 18  2 16 15.0000000  0  5G 1G22G14G31G25
                     -8250.38249     -4756.62046                  17825813.8464
       243.0004        182.0004
                     19034.72349      6976.99644                  19119238.8964
       233.0004        120.0004
                     20864.78349      7664.70545                  18216179.5324
       236.0004        138.0004
                    -25744.88949     -8599.16245                  18230061.5784
       239.0004        140.0004
                    -43533.257 9    529220.475 1
       223.000
 07  2 18  2 16 20.0000000  0  6G 1G22G14G31G25G11
                    -10920.75549     -6837.43647                  17825305.5444
       244.0004        192.0004
                     27428.79749     13517.88445                  19120838.2444
       234.0004        155.0004
                     30085.76149     14849.89146                  18217934.4004
       237.0004        170.0004
                    -36073.55049    -16647.42546                  18228097.1804
       240.0004        175.0004
                    -60295.28049    -11287.39943
       223.0004         74.0004
                    -10948.43819   1138578.548 1
       228.000
 07  2 18  2 16 25.0000000  0  6G 1G22G14G31G25G11
                    -13583.34849     -8912.18347                  17824799.0354
       243.0004        197.0004
                     35826.70349     20061.70446                  19122435.6954
       234.0004        167.0004
                     39310.69049     22038.14846                  18219689.7064
       237.0004        182.0004
                    -46391.07149    -24687.05346                  18226133.8114
       240.0004        187.0004
                    -77053.27049    -24345.56743
       223.0004         74.0004
                    -20556.05649     -4964.50443
       226.0004         74.0004
 07  2 18  2 16 30.0000000  0  6G 1G22G14G31G25G11
                    -16233.36449    -10977.13247                  17824294.5864
       244.0004        201.0004
                     44233.29649     26612.29446                  19124036.5814
       233.0004        173.0004
                     48544.37149     29233.22547                  18221446.8214
       237.0004        188.0004
                    -56692.64549    -32714.25247                  18224173.3084
       240.0004        193.0004
                    -93802.12849    -37396.62343
       224.0004         74.0004
                    -30148.56349    -12439.17645                  19602877.5884
       227.0004        136.0004
 07  2 18  2 16 35.0000000  0  6G 1G22G14G31G25G11
  17823787.6494     -18875.41449    -13035.87447  17823787.2594   17823791.8814
       243.0004        203.0004
                     52643.94249     33166.03346                  19125636.5704
       234.0004        177.0004
                     57782.17649     36431.50947                  18223204.5884
       237.0004        192.0004
                    -66982.88649    -40732.62047                  18222215.1804
       239.0004        197.0004
                   -110546.66049    -50444.30843
       223.0004         74.0004
                    -39730.57849    -19905.68545                  19601054.4404
       228.0004        151.0004
 07  2 18  2 16 40.0000000  0  6G 1G22G14G31G25G11
  17823287.5004     -21504.11949    -15084.21147  17823286.8754   17823291.7514
       243.0004        205.0004
  19127237.2414      61063.98249     39727.10546  19127236.7504   19127238.8454
       233.0004        180.0004
  18224961.3754      67029.52049     43637.23547  18224960.8624   18224964.1724
       236.0004        194.0004
  18220256.8264     -77256.42749    -48737.97247  18220256.8794   18220260.1614
       239.0004        200.0004
                   -127281.48649    -63484.39543
       222.0004         74.0004
                    -49296.70149    -27359.80845                  19599232.9534
       227.0004        158.0004
 07  2 18  2 16 45.0000000  0  6G 1G22G14G31G25G11
  17822789.7294     -24120.25349    -17122.75847  17822789.0704   17822793.7484
       245.0004        207.0004
  19128841.2814      69492.64649     46294.89146  19128840.9694   19128842.4584
       235.0004        182.0004
  18226722.8984      76285.59649     50849.75947  18226722.1134   18226725.9454
       239.0004        196.0004
  18218304.6594     -87514.04949    -56730.92247  18218304.8404   18218308.0494
       241.0004        202.0004
                   -144007.24649    -76517.45344                  19865265.4424
       224.0004        125.0004
                    -58847.69049    -34802.15046                  19597415.8804
       228.0004        163.0004
 07  2 18  2 16 50.0000000  0  7G 1G22G19G14G31G25G11
  17822293.7824     -26725.88249    -19153.11647  17822293.3034   17822297.9364
       243.0004        208.0004
  19130445.6134      77927.93749     52867.84046  19130446.0584   19130447.8754
       232.0004        183.0004
                     10920.76919     50849.759 1
       212.000
  18228485.6784      85548.28749     58067.44247  18228484.6534   18228488.2374
       237.0004        197.0004
  18216355.3694     -97757.75849    -64713.02747  18216355.5594   18216359.0284
       239.0004        203.0004
                   -160726.11649    -89545.14145                  19862083.6134
       222.0004        144.0004
                    -68385.61849    -42234.29146                  19595601.1364
       226.0004        166.0004
 07  2 18  2 16 55.0000000  0  7G 1G22G19G14G31G25G11
  17821800.8854     -29317.19149    -21172.31047  17821799.9354   17821804.9514
       244.0004        208.0004
  19132053.8024      86373.63549     59448.91046  19132052.7654   19132055.0764
       233.0004        184.0004
                     22913.63849      6159.79243
       212.0004         74.0004
  18230249.7334      94821.44849     65293.28547  18230249.6214   18230252.8604
       238.0004        199.0004
  18214409.5704    -107983.71949    -72681.30047  18214409.5174   18214413.0174
       239.0004        205.0004
                   -177434.13249   -102564.36445                  19858903.9724
       223.0004        152.0004
  19593786.9334     -77906.62349    -49653.25546  19593786.0944   19593789.7304
       227.0004        168.0004
 07  2 18  2 17  0.0000000  0  7G 1G22G19G14G31G25G11
  17821308.4584     -31904.36549    -23188.29147  17821307.8854   17821312.4084
       244.0004        209.0004
  19133660.2644      94819.56149     66030.14746  19133660.5224   19133662.5724
       233.0004        185.0004
                     34905.58049     15504.14043
       213.0004         74.0004
  18232014.7844     104094.92849     72519.36747  18232014.4094   18232017.6714
       238.0004        199.0004
  18212464.7944    -118202.12949    -80643.69747  18212465.3634   18212468.7334
       240.0004        205.0004
                   -194141.54649   -115583.13345                  19855724.7484
       223.0004        157.0004
  19591977.1684     -87420.88649    -57066.97046  19591976.7574   19591980.5284
       228.0004        170.0004
 07  2 18  2 17  5.0000000  0  7G 1G22G19G14G31G25G11
  20818742.6554     -34480.00349    -25195.27847  20818742.4254   20818747.0684
       243.0004        210.0004
  22133189.7704     103251.10149     72600.17746  22133189.5024   22133191.2434
       231.0004        186.0004
                     46874.81549     24830.81943
       211.0004         74.0004
  21231700.9134     113352.36949     79732.96147  21231700.6004   21231704.1104
       236.0004        200.0004
  21208450.5904    -128390.32649    -88582.54547  21208451.1554   21208454.3984
       239.0004        206.0004
                   -210812.64449   -128573.58245                  22850476.6504
       222.0004        161.0004
  22588095.7284     -96907.17649    -64458.88246  22588095.9874   22588098.9684
       226.0004        171.0004
 07  2 18  2 17 10.0000000  0  7G 1G22G19G14G31G25G11
  20818252.8974     -37054.13049    -27201.08747  20818252.2944   20818257.2654
       244.0004        210.0004
  22134798.1664     111702.30649     79185.53646  22134797.6484   22134799.5514
       233.0004        186.0004
                     58869.63449     34177.43343
       212.0004         74.0004
  21233466.6754     122631.17549     86963.20447  21233466.1674   21233469.5414
       238.0004        200.0004
  21206510.0984    -138588.79449    -96529.40147  21206510.5384   21206513.7194
       240.0004        206.0004
  22847294.5564    -227513.94749   -141587.58146  22847294.1474   22847298.5864
       224.0004        163.0004
  22586288.2364    -106403.19649    -71858.37046  22586287.7884   22586291.2694
       228.0004        172.0004
 07  2 18  2 17 15.0000000  0  7G 1G22G19G14G31G25G11
  20817764.6524     -39619.17449    -29199.81847  20817764.0824   20817768.8554
       244.0004        210.0004
  22136405.7264     120158.71649     85774.94246  22136406.4254   22136408.9584
       232.0004        187.0004
                     70868.44149     43527.15443
       213.0004         74.0004
  21235233.6874     131915.22149     94197.53347  21235232.7544   21235235.8864
       238.0004        201.0004
  21204571.5684    -148774.72949   -104466.48147  21204571.8104   21204575.2264
       240.0004        207.0004
  22844117.2064    -244209.66949   -154597.22246  22844117.3974   22844121.8544
       223.0004        165.0004
  22584482.7734    -115887.50949    -79248.74246  22584482.8284   22584486.7564
       226.0004        173.0004
 07  2 18  2 17 20.0000000  0  7G 1G22G19G14G31G25G11
  20817277.9554     -42176.03549    -31192.17547  20817277.6994   20817282.4674
       243.0004        210.0004
  22138017.1354     128619.43049     92367.70846  22138016.7904   22138018.9734
       233.0004        187.0004
                     82870.35749     52879.67543
       211.0004         74.0004
  21237000.8954     141203.67049    101435.28447  21237000.5104   21237003.8334
       237.0004        201.0004
  21202635.6764    -158948.96949   -112394.45947  21202636.0214   21202639.2894
       240.0004        207.0004
  22840941.3544    -260900.70849   -167603.21246  22840941.0064   22840945.5094
       221.0004        166.0004
  22582681.2054    -125360.97749    -86630.66046  22582680.0864   22582683.5894
       227.0004        173.0004
 07  2 18  2 17 25.0000000  0  7G 1G22G19G14G31G25G11
  20816794.2644     -44719.89249    -33174.39647  20816793.8344   20816798.3704
       245.0004        210.0004
  22139628.6644     137089.28549     98967.60646  22139628.3544   22139630.7034
       233.0004        187.0004
                     94880.13149     62238.00143
       214.0004         74.0004
  21238770.2614     150501.20449    108680.11947  21238769.6164   21238773.0024
       238.0004        201.0004
  21200703.2204    -169106.71049   -120309.56947  21200702.9894   21200706.2394
       241.0004        207.0004
  22837767.4244    -277582.12449   -180601.71246  22837766.8034   22837771.0434
       223.0004        167.0004
  22580881.8144    -134818.78749    -94000.37946  22580881.5714   22580884.2114
       229.0004        173.0004
 07  2 18  2 17 30.0000000  0  7G 1G22G19G14G31G25G11
  20816311.6394     -47254.50749    -35149.42147  20816311.4974   20816316.0164
       244.0004        211.0004
  22141240.9134     145564.48349    105571.64546  22141241.3884   22141243.1534
       232.0004        187.0004
                    106894.07249     71599.52643
       214.0004         74.0004
  21240540.4864     159804.10349    115929.12847  21240540.0104   21240543.3584
       237.0004        201.0004
  21198772.0114    -179251.70949   -128214.76747  21198772.6254   21198775.6554
       240.0004        208.0004
  22834593.5514    -294257.74749   -193595.70046  22834593.6204   22834597.4114
       221.0004        167.0004
  22579084.3324    -144264.67149   -101360.81546  22579083.8364   22579087.2804
       228.0004        173.0004
 07  2 18  2 17 35.0000000  0  7G 1G22G19G14G31G25G11
  20815831.1974     -49782.41849    -37119.21747  20815830.5404   20815834.9134
       243.0004        211.0004
  22142855.7004     154042.52849    112177.91647  22142854.3914   22142857.1914
       232.0004        188.0004
                    118909.56049     80962.22143
       215.0004         74.0004
  21242310.8084     169109.81049    123180.33547  21242310.4054   21242314.4254
       237.0004        201.0004
  21196844.0914    -189386.47949   -136111.98447  21196843.8804   21196847.1594
       239.0004        208.0004
  22831420.6024    -310930.14749   -206587.15746  22831420.2274   22831424.4754
       221.0004        168.0004
  22577288.1424    -153701.19849   -108713.94946  22577287.0294   22577291.9374
       226.0004        174.0004
 07  2 18  2 17 40.0000000  0  7G 1G22G19G14G31G25G11
  20815352.0594     -52300.35449    -39081.24047  20815351.4124   20815356.0534
       244.0004        211.0004
  22144469.1854     162526.71049    118788.97047  22144468.9534   22144471.4874
       232.0004        188.0004
                    130929.89249     90328.67443
       213.0004         74.0004
  21244083.7034     178421.59249    130436.27247  21244082.8974   21244085.9504
       238.0004        201.0004
  21194917.6074    -199507.72349   -143998.65747  21194917.7444   21194921.2174
       239.0004        208.0004
  22828249.4254    -327595.95549   -219573.50846  22828249.5024   22828253.8504
       222.0004        168.0004
  22575493.8254    -163125.06049   -116057.21246  22575494.2414   22575497.5304
       226.0004        174.0004
 07  2 18  2 17 45.0000000  0  7G 1G22G19G14G31G25G11
  20814875.2124     -54806.54149    -41034.11047  20814874.4124   20814878.9914
       244.0004        211.0004
  22146085.0574     171018.82449    125406.20047  22146084.9844   22146087.2654
       233.0004        188.0004
                    142956.82449     99700.27744                  23929545.1084
       213.0004        114.0004
  21245857.2424     187741.24849    137698.34347  21245856.5304   21245859.7204
       238.0004        201.0004
  21192994.7424    -209613.65949   -151873.40847  21192994.9354   21192997.9594
       240.0004        208.0004
  22825079.7374    -344253.31849   -232553.27146  22825080.5764   22825084.2124
       222.0004        168.0004
  22573704.1144    -172534.45849   -123389.19846  22573703.4904   22573706.3854
       227.0004        174.0004
 07  2 18  2 17 50.0000000  0  7G 1G22G19G14G31G25G11
  20814399.9394     -57304.05449    -42980.22447  20814399.0314   20814403.6444
       244.0004        211.0004
  22147701.9544     179515.76449    132027.19347  22147702.4254   22147704.1504
       232.0004        188.0004
                    154987.27749    109074.63945                  23931833.0454
       214.0004        132.0004
  21247631.6864     197065.69149    144964.14147  21247630.5814   21247634.3684
       238.0004        201.0004
  21191074.0284    -219707.36149   -159738.62447  21191074.0154   21191077.0994
       240.0004        208.0004
  22821910.9804    -360905.23149   -245528.77546  22821909.7914   22821914.8434
       222.0004        168.0004
  22571915.7204    -181932.45649   -130712.32946  22571915.6484   22571918.6094
       227.0004        174.0004
 07  2 18  2 17 55.0000000  0  7G 1G22G19G14G31G25G11
  20813926.4394     -59792.17349    -44919.01447  20813925.5694   20813930.1864
       243.0004        211.0004
  22149319.9134     188018.24849    138652.50247  22149320.0154   22149322.1384
       232.0004        188.0004
                    167021.94249    118452.28845                  23934123.2394
       210.0004        140.0004
  21249407.1374     206395.61849    152234.21647  21249406.0424   21249409.5794
       238.0004        202.0004
  21189155.7374    -229788.05949   -167593.71147  21189155.9134   21189159.0254
       240.0004        208.0004
  22818743.2784    -377551.22049   -258499.66346  22818743.5634   22818747.8074
       222.0004        169.0004
  22570129.8084    -191318.34549   -138026.01046  22570129.8744   22570133.5664
       227.0004        174.0004
 07  2 18  2 18  0.0000000  0  7G 1G22G19G14G31G25G11
  20813454.4884     -62272.01549    -46851.35347  20813453.6664   20813458.3144
       243.0004        211.0004
  22150938.6944     196525.19949    145281.29947  22150938.7444   22150940.9314
       232.0004        188.0004
                    179059.71049    127832.36545                  23936413.9494
       210.0004        144.0004
  21251183.3184     215729.91649    159507.69947  21251182.3134   21251185.8454
       236.0004        202.0004
  21187239.7264    -239856.86449   -175439.52347  21187239.8194   21187243.0874
       239.0004        208.0004
  22815576.5914    -394192.23049   -271466.68146  22815576.3754   22815580.7554
       221.0004        169.0004
  22568345.7704    -200693.20749   -145331.08846  22568345.4804   22568349.3764
       226.0004        174.0004
 07  2 18  2 18  5.0000000  0  7G 1G22G19G14G31G25G11
  20795555.9064    -156329.54249   -120142.92947  20795555.0674   20795559.7244
       243.0004        211.0004
  22135130.1814     113450.77149     80547.98147  22135130.2984   22135132.0604
       232.0004        188.0004
                     99514.78849     65849.30545                  23921277.1924
       211.0004        147.0004
  21235532.1324     133482.77549     95419.02547  21235530.8984   21235534.6654
       236.0004        202.0004
  21167897.7024    -341499.83049   -254641.82847  21167897.7494   21167900.9234
       240.0004        208.0004
  22794982.6244    -502414.38049   -355795.61646  22794982.3124   22794987.4344
       220.0004        169.0004
  22549135.5764    -301643.08749   -223993.31946  22549135.1994   22549139.7424
       225.0004        174.0004
 07  2 18  2 18 10.0000000  0  7G 1G22G19G14G31G25G11
  20795043.6484    -159021.21249   -122240.33147  20795042.8714   20795047.5564
       243.0004        211.0004
  22136707.2714     121738.23449     87005.74447  22136707.0874   22136709.3224
       233.0004        188.0004
  23923523.5554     111330.35649     75056.24245  23923521.1614   23923525.6414
       212.0004        149.0004
  21237266.4854     142597.46949    102521.38547  21237265.7074   21237269.0054
       237.0004        202.0004
  21165942.7314    -351773.18649   -262647.03647  21165942.7434   21165945.7524
       239.0004        208.0004
  22791774.3874    -519273.85249   -368932.84946  22791773.9334   22791777.9314
       221.0004        169.0004
  22547312.2574    -311224.24849   -231459.15446  22547311.9214   22547317.0744
       227.0004        174.0004
 07  2 18  2 18 15.0000000  0  7G 1G22G19G14G31G25G11
  20794533.2014    -161703.41949   -124330.35447  20794532.5354   20794537.1404
       244.0004        211.0004
  22138285.4334     130031.37349     93467.93047  22138285.2844   22138287.3844
       233.0004        188.0004
  23925771.5614     123150.18449     84266.50245  23925771.0134   23925774.2644
       212.0004        151.0004
  21239001.9314     151717.69949    109628.06547  21239000.8764   21239004.7194
       237.0004        202.0004
  21163990.2284    -362033.43749   -270642.02947  21163990.2244   21163993.5734
       240.0004        208.0004
  22788567.2994    -536127.09649   -382065.24246  22788566.9934   22788571.2984
       222.0004        169.0004
  22545491.3374    -320793.12049   -238915.41446  22545491.5514   22545494.5674
       228.0004        175.0004
 07  2 18  2 18 20.0000000  0  7G 1G22G19G14G31G25G11
  20794024.5684    -164376.12049   -126412.98147  20794024.0274   20794028.7534
       244.0004        211.0004
  22139864.6914     138330.18849     99934.53347  22139864.6214   22139866.7574
       233.0004        188.0004
  23928022.7144     134974.31549     93480.10645  23928021.2264   23928024.5004
       212.0004        152.0004
  21240738.4584     160843.53149    116739.09747  21240737.8734   21240741.3284
       238.0004        202.0004
  21162040.2514    -372280.52349   -278626.76947  21162040.4644   21162043.6534
       240.0004        209.0004
  22785361.4644    -552974.09549   -395192.78346  22785361.6424   22785365.1484
       222.0004        169.0004
  22543672.8154    -330349.72549   -246362.12646  22543673.4304   22543676.0994
       228.0004        175.0004
 07  2 18  2 18 25.0000000  0  7G 1G22G19G14G31G25G11
  20793517.6074    -167039.96149   -128488.69647  20793517.1384   20793521.8274
       243.0004        211.0004
  22141444.8814     146634.07449    106405.10047  22141444.9174   22141447.0264
       233.0004        188.0004
  23930272.8044     146802.09149    102696.55845  23930272.4274   23930275.0644
       212.0004        153.0004
  21242475.9264     169974.26449    123853.96047  21242475.2304   21242478.6744
       237.0004        202.0004
  21160092.6284    -382515.08449   -286601.74347  21160092.8034   21160095.9314
       240.0004        209.0004
  22782156.6484    -569815.53049   -408315.96046  22782156.3814   22782160.6014
       222.0004        169.0004
  22541856.5364    -339894.66149   -253799.73646  22541856.1484   22541859.1834
       226.0004        175.0004
 07  2 18  2 18 30.0000000  0  7G 1G22G19G14G31G25G11
  20793012.5194    -169694.16349   -130556.90447  20793011.8674   20793016.6634
       244.0004        211.0004
  22143026.1684     154943.82149    112880.22747  22143026.1424   22143028.5934
       233.0004        188.0004
  23932524.0384     158634.25949    111916.43545  23932524.0484   23932526.5504
       213.0004        154.0004
  21244214.5264     179110.70849    130973.26747  21244213.9074   21244217.5684
       238.0004        202.0004
  21158147.5974    -392736.33349   -294566.35247  21158147.7494   21158150.8484
       240.0004        209.0004
  22778953.0744    -586650.60049   -421434.18046  22778952.8894   22778956.9874
       223.0004        169.0004
  22540042.5794    -349427.13249   -261227.63146  22540041.5044   22540045.4594
       226.0004        174.0004
 07  2 18  2 18 35.0000000  0  7G 1G22G19G14G31G25G11
  20792509.0674    -172339.57749   -132618.26147  20792508.5764   20792513.3834
       244.0004        211.0004
  22144608.3854     163258.57849    119359.26147  22144608.3874   22144610.7644
       233.0004        188.0004
  23934776.1564     170469.97349    121139.06845  23934775.9094   23934779.7444
       213.0004        155.0004
  21245954.0344     188252.01249    138096.36547  21245953.3034   21245957.2154
       238.0004        202.0004
  21156204.8934    -402945.09949   -302521.22347  21156204.9144   21156208.2604
       241.0004        209.0004
  22775750.5654    -603480.00749   -434547.99946  22775749.9964   22775754.9324
       222.0004        169.0004
  22538230.8264    -358947.96649   -268646.45046  22538229.9784   22538234.8254
       227.0004        174.0004
 07  2 18  2 18 40.0000000  0  7G 1G22G19G14G31G25G11
  20792007.6204    -174974.73649   -134671.63047  20792007.1134   20792011.6824
       245.0004        211.0004
  22146191.8764     171579.79749    125843.32647  22146191.6514   22146193.8014
       234.0004        189.0004
  23937029.3614     182310.71849    130365.62545  23937029.0904   23937033.3644
       211.0004        155.0004
  21247694.7324     197399.55949    145224.32347  21247693.9584   21247697.6844
       238.0004        202.0004
  21154264.8894    -413139.87949   -310465.20847  21154265.1374   21154268.1024
       241.0004        209.0004
  22772549.3744    -620302.33949   -447656.29846  22772548.9624   22772553.5014
       222.0004        169.0004
  22536421.5504    -368455.68549   -276055.07046  22536421.5704   22536424.8134
       229.0004        174.0004
 07  2 18  2 18 45.0000000  0  7G 1G22G19G14G31G25G11
  20791507.7074    -177601.67949   -136718.59347  20791507.0294   20791511.8254
       244.0004        211.0004
  22147776.2054     179905.45749    132330.85647  22147776.2044   22147778.5594
       233.0004        189.0004
  23939283.1254     194154.40249    139594.46645  23939282.6004   23939287.2884
       210.0004        155.0004
  21249436.2604     206551.40149    152355.63147  21249435.5424   21249439.5114
       238.0004        202.0004
  21152327.1264    -423322.74649   -318399.89847  21152327.1894   21152330.4304
       241.0004        209.0004
  22769349.1934    -637119.57449   -460760.62746  22769349.0084   22769353.4264
       223.0004        169.0004
  22534614.4074    -377952.32649   -283455.04546  22534614.7514   22534618.2784
       227.0004        174.0004
 07  2 18  2 18 50.0000000  0  7G 1G22G19G14G31G25G11
  20791009.7644    -180218.30549   -138757.51947  20791009.4944   20791014.0674
       243.0004        211.0004
  22149361.7854     188237.66949    138823.48647  22149361.7464   22149363.8354
       233.0004        189.0004
  23941537.7834     206003.13149    148827.23745  23941536.9494   23941541.3614
       209.0004        155.0004
  21251179.0094     215709.66349    159491.94147  21251178.5654   21251182.0654
       237.0004        202.0004
  21150392.0644    -433491.56849   -326323.65547  21150392.5084   21150395.4444
       240.0004        209.0004
  22766150.3644    -653929.62049   -473859.36746  22766150.6724   22766153.2434
       222.0004        169.0004
  22532809.7784    -387435.81549   -290844.77346  22532809.5514   22532813.6044
       227.0004        174.0004
 07  2 18  2 18 55.0000000  0  7G 1G22G19G14G31G25G11
  20790513.4144    -182826.60249   -140789.95847  20790513.1874   20790517.7284
       245.0004        211.0004
  22150948.2234     196574.45949    145319.68547  22150948.0084   22150950.8744
       234.0004        189.0004
  23943793.0894     217854.91749    158062.39845  23943792.0484   23943796.3144
       211.0004        155.0004
  21252922.6144     224872.36349    166631.70447  21252922.3684   21252925.8174
       239.0004        202.0004
  21148459.2634    -443648.31149   -334237.99347  21148459.6564   21148462.8644
       241.0004        209.0004
  22762952.4844    -670734.59749   -486954.15246  22762952.3364   22762956.3424
       222.0004        169.0004
  22531007.2544    -396908.07749   -298225.74646  22531007.0784   22531010.1884
       228.0004        174.0004
 07  2 18  2 19  0.0000000  0  7G 1G22G19G14G31G25G11
  20790018.9774    -185424.82649   -142814.54347  20790018.5004   20790023.3244
       244.0004        211.0004
  22152535.8874     204917.53849    151820.78447  22152535.9784   22152537.9414
       234.0004        189.0004
  23946049.3084     229711.47949    167301.27645  23946049.0354   23946052.7174
       211.0004        155.0004
  21254667.3894     234041.19849    173776.25547  21254666.8304   21254670.4494
       238.0004        202.0004
  21146529.1244    -453791.22849   -342141.55747  21146529.3524   21146532.4554
       241.0004        209.0004
  22759755.9194    -687532.59649   -500043.47846  22759754.8104   22759760.2004
       222.0004        169.0004
  22529207.2224    -406367.36649   -305596.62446  22529207.1844   22529210.2694
       228.0004        174.0004
 07  2 18  2 19  5.0000000  0  7G 1G22G19G14G31G25G11
  20789526.3374    -188013.72749   -144831.86647  20789525.7914   20789530.4494
       245.0004        211.0004
  22154124.5864     213266.19749    158326.23647  22154124.3694   22154126.8844
       234.0004        189.0004
  23948306.3684     241572.07049    176543.29345  23948305.9334   23948309.8744
       211.0004        155.0004
  21256413.1684     243215.42849    180925.00747  21256412.4324   21256416.3084
       238.0004        202.0004
  21144601.4934    -463921.03049   -350034.90447  21144601.6874   21144604.8614
       241.0004        209.0004
  22756560.5514    -704324.31549   -513127.92546  22756560.9114   22756565.2924
       224.0004        169.0004
  22527409.5514    -415814.41449   -312957.96146  22527409.8994   22527413.5784
       228.0004        174.0004
 07  2 18  2 19 10.0000000  0  7G 1G22G19G14G31G25G11
  20789035.3084    -190593.97349   -146842.44047  20789034.8214   20789039.5364
       245.0004        211.0004
  22155714.2244     221619.78549    164835.52547  22155714.1084   22155715.9884
       234.0004        189.0004
  23950564.0464     253435.99549    185787.91345  23950563.5204   23950567.3194
       211.0004        155.0004
  21258159.8594     252394.35449    188077.42647  21258159.4424   21258163.0774
       239.0004        202.0004
  21142676.2264    -474038.38249   -357918.54547  21142676.6604   21142679.6214
       241.0004        209.0004
  22753366.2154    -721110.52649   -526208.08746  22753366.6524   22753370.4244
       224.0004        169.0004
  22525614.0504    -425249.87449   -320310.26146  22525613.4224   22525618.0954
       228.0004        175.0004
 07  2 18  2 19 15.0000000  0  7G 1G22G19G14G31G25G11
  20788546.2414    -193164.03549   -148845.08047  20788545.6794   20788550.4134
       244.0004        211.0004
  22157305.1024     229979.81949    171349.83647  22157304.8674   22157307.2304
       234.0004        189.0004
  23952822.6804     265304.76349    195036.30145  23952822.5164   23952825.9744
       212.0004        155.0004
  21259907.7564     261579.49549    195234.68347  21259906.9934   21259910.7124
       238.0004        202.0004
  21140753.5964    -484141.76749   -365791.30347  21140753.8514   21140756.6564
       241.0004        209.0004
  22750173.2674    -737889.55749   -539282.63646  22750172.8734   22750177.2104
       224.0004        170.0004
  22523821.0234    -434672.24249   -327652.35146  22523820.3344   22523824.6424
       226.0004        174.0004
 07  2 18  2 19 20.0000000  0  7G 1G22G19G14G31G25G11
  20788058.8054    -195725.44749   -150840.98247  20788058.2174   20788063.0054
       244.0004        211.0004
  22158896.8744     238344.76649    177867.98547  22158896.2554   22158898.9534
       234.0004        189.0004
  23955081.9504     277176.85049    204287.28045  23955081.6324   23955085.4784
       211.0004        155.0004
  21261656.5314     270769.33349    202395.59847  21261656.0124   21261659.8724
       237.0004        202.0004
  21138833.3594    -494232.66849   -373654.33847  21138833.5904   21138836.6644
       241.0004        209.0004
  22746981.3454    -754663.06049   -552352.89346  22746981.7324   22746984.8904
       224.0004        170.0004
  22522030.1864    -444083.01249   -334985.41146  22522029.2244   22522034.0604
       227.0004        174.0004
 07  2 18  2 19 25.0000000  0  7G 1G22G19G14G31G25G11
  20787573.1744    -198277.40849   -152829.52347  20787572.6434   20787577.4894
       243.0004        211.0004
  22160489.7564     246715.42549    184390.57047  22160489.3824   22160491.5844
       232.0004        189.0004
  23957341.9924     289053.07349    213541.47845  23957342.2174   23957345.7664
       211.0004        156.0004
  21263406.3294     279964.64649    209560.77147  21263405.8704   21263409.2854
       237.0004        202.0004
  21136915.6714    -504310.28049   -381507.02147  21136915.9384   21136919.0824
       240.0004        209.0004
  22743790.6874    -771430.13449   -565418.14246  22743790.3224   22743795.3844
       223.0004        170.0004
  22520241.7244    -453481.38149   -342308.82846  22520241.7114   22520244.6044
       227.0004        174.0004
 07  2 18  2 19 30.0000000  0  7G 1G22G19G14G31G25G11
  20787089.3654    -200819.92749   -154810.70147  20787088.7184   20787093.4534
       243.0004        211.0004
  22162083.7494     255091.81349    190917.63047  22162083.3794   22162085.3794
       232.0004        189.0004
  23959602.7884     300933.38449    222798.86145  23959602.5624   23959606.1014
       209.0004        156.0004
  21265157.1674     289165.44449    216730.23147  21265156.6584   21265160.3454
       237.0004        202.0004
  21135000.4964    -514374.59249   -389349.33347  21135000.5344   21135003.8044
       240.0004        209.0004
  22740601.2264    -788190.83949   -578478.42746  22740601.6094   22740604.9194
       224.0004        170.0004
  22518455.6324    -462867.32349   -349622.55646  22518455.3984   22518458.4694
       227.0004        174.0004
 07  2 18  2 19 35.0000000  0  7G 1G22G19G14G31G25G11
  20786607.3564    -203352.86549   -156784.42147  20786606.8324   20786611.7214
       244.0004        211.0004
  22163678.8284     263474.08749    197449.26947  22163678.7844   22163680.5264
       233.0004        189.0004
  23961864.3334     312817.93549    232059.55145  23961862.9074   23961868.3534
       210.0004        156.0004
  21266909.1044     298371.86749    223904.06347  21266908.6754   21266912.0464
       238.0004        202.0004
  21133087.8654    -524425.46749   -397181.18747  21133088.2474   21133091.1214
       241.0004        209.0004
  22737413.0384    -804944.93049   -591533.55046  22737413.3164   22737417.0724
       225.0004        170.0004
  22516671.9474    -472240.72149   -356926.49546  22516671.4534   22516675.0484
       227.0004        174.0004
 07  2 18  2 19 40.0000000  0  7G 1G22G19G14G31G25G11
  20786127.0684    -205876.70449   -158751.04247  20786126.8344   20786131.4604
       244.0004        211.0004
  22165274.9394     271861.74249    203985.10847  22165274.5804   22165277.2574
       234.0004        188.0004
  23964126.5934     324706.22649    241323.14845  23964125.5014   23964130.1944
       210.0004        156.0004
  21268662.0054     307583.40749    231081.89847  21268661.5024   21268665.3484
       238.0004        202.0004
  21131177.7244    -534463.37049   -405002.91847  21131177.9404   21131180.9094
       241.0004        209.0004
  22734226.0534    -821692.85249   -604583.87446  22734226.1334   22734230.2694
       225.0004        170.0004
  22514890.5564    -481602.01749   -364221.00246  22514890.0264   22514893.8814
       227.0004        174.0004
 07  2 18  2 19 45.0000000  0  7G 1G22G19G14G31G25G11
  20785648.4794    -208391.65949   -160710.74547  20785647.9454   20785652.5284
       243.0004        211.0004
  22166872.0594     280254.63349    210525.02247  22166872.0244   22166873.9894
       233.0004        188.0004
  23966389.5094     336598.04749    250589.49845  23966388.4254   23966392.5904
       210.0004        156.0004
  21270415.8314     316799.86849    238263.55347  21270415.1984   21270419.2084
       237.0004        202.0004
  21129270.0094    -544488.49649   -412814.70047  21129270.3314   21129273.3224
       241.0004        210.0004
  22731040.1614    -838434.90049   -617629.62046  22731040.1184   22731044.0244
       225.0004        171.0004
  22513111.4414    -490951.37949   -371506.21746  22513110.8184   22513115.4234
       228.0004        174.0004
 07  2 18  2 19 50.0000000  0  7G 1G22G19G14G31G25G11
  20785171.8284    -210896.56749   -162662.61347  20785171.2154   20785176.0824
       243.0004        211.0004
  22168470.3474     288653.83649    217069.86147  22168470.2474   22168471.7514
       232.0004        189.0004
  23968653.3344     348494.48249    259859.44845  23968652.6674   23968656.6264
       211.0004        156.0004
  21272170.8244     326022.38749    245449.93447  21272170.1234   21272173.8394
       236.0004        202.0004
  21127364.9434    -554499.66349   -420615.60247  21127365.1494   21127368.1404
       240.0004        210.0004
  22727855.5904    -855169.89049   -630669.86646  22727855.3334   22727859.9494
       224.0004        171.0004
  22511334.8224    -500287.67949   -378781.25246  22511334.2484   22511337.4274
       227.0004        174.0004
 07  2 18  2 19 55.0000000  0  7G 1G22G19G14G31G25G11
  20784696.7434    -213393.12349   -164607.98347  20784696.2844   20784701.0304
       244.0004        211.0004
  22170069.5784     297057.71049    223618.32947  22170069.5204   22170071.3734
       233.0004        189.0004
  23970917.7704     360393.90249    269131.71645  23970917.5694   23970921.3384
       214.0004        156.0004
  21273926.6314     335249.26349    252639.70747  21273926.1574   21273930.0064
       238.0004        202.0004
  21125462.2074    -564498.53249   -428406.92647  21125462.4574   21125465.5394
       242.0004        210.0004
  22724672.0614    -871899.50949   -643705.92146  22724671.8974   22724676.1294
       226.0004        171.0004
  22509560.3594    -509612.59449   -386047.41646  22509560.0164   22509563.7254
       227.0004        174.0004
 07  2 18  2 20  0.0000000  0  7G 1G22G19G14G31G25G11
  20784223.4824    -215880.07849   -166545.87247  20784222.9724   20784227.7924
       245.0004        211.0004
  22171669.9144     305467.50849    230171.41547  22171670.0224   22171672.4484
       233.0004        189.0004
  23973182.9984     372297.53949    278407.27445  23973183.0114   23973186.1344
       214.0004        156.0004
  21275683.4814     344481.74049    259833.83947  21275682.9414   21275686.9514
       238.0004        202.0004
  21123562.0724    -574483.89249   -436187.72647  21123562.2824   21123565.4164
       243.0004        210.0004
  22721489.8334    -888622.38049   -656736.73646  22721489.6904   22721493.9604
       226.0004        171.0004
  22507788.2914    -518924.83749   -393303.70146  22507787.6734   22507791.6564
       228.0004        174.0004
 07  2 18  2 20  5.0000000  0  7G 1G22G19G14G31G25G11
  20783752.0344    -218357.57649   -168476.37847  20783751.4284   20783756.3174
       244.0004        211.0004
  22173271.3544     313883.09049    236729.01347  22173271.7234   22173273.2274
       233.0004        189.0004
  23975449.0134     384205.22749    287685.99045  23975449.2024   23975452.2214
       214.0004        156.0004
  21277441.3954     353719.66349    267032.22847  21277440.8944   21277444.6494
       238.0004        202.0004
  21121664.4654    -584455.83949   -443958.06247  21121664.7464   21121668.0404
       241.0004        210.0004
  22718308.8114    -905338.80349   -669762.50446  22718309.0124   22718313.2524
       226.0004        171.0004
  22506018.5954    -528224.58349   -400550.25846  22506018.5084   22506021.4074
       229.0004        174.0004
 07  2 18  2 20 10.0000000  0  7G 1G22G19G14G31G25G11
  20783282.3764    -220825.59549   -170399.51047  20783281.6834   20783286.7024
       244.0004        211.0004
  22174873.9014     322304.49549    243291.15047  22174874.2644   22174876.2704
       233.0004        189.0004
  23977715.8244     396116.96449    296967.86445  23977715.7534   23977718.8074
       211.0004        156.0004
  21279200.3474     362963.08749    274234.89647  21279200.1064   21279203.7004
       238.0004        202.0004
  21119769.4194    -594414.33649   -451717.92847  21119769.8484   21119772.7294
       242.0004        210.0004
  22715129.0814    -922048.49449   -682783.04546  22715129.1134   22715133.8424
       226.0004        172.0004
  22504251.2904    -537511.78649   -407787.03146  22504250.4524   22504254.6184
       227.0004        174.0004
 07  2 18  2 20 15.0000000  0  7G 1G22G19G14G31G25G11
  20782814.4474    -223284.53749   -172315.56647  20782813.8874   20782818.7654
       245.0004        211.0004
  22176477.4834     330731.31849    249857.50247  22176477.7644   22176479.5194
       234.0004        189.0004
  23979983.2984     408032.37749    306252.59745  23979982.9634   23979986.1804
       212.0004        156.0004
  21280960.2834     372211.58849    281441.52347  21280959.6784   21280963.4054
       238.0004        202.0004
  21117876.8794    -604359.80149   -459467.63847  21117877.1984   21117880.1064
       242.0004        210.0004
  22711950.5104    -938752.04849   -695798.79246  22711950.4144   22711955.0804
       226.0004        172.0004
  22502486.2824    -546786.82849   -415014.34646  22502486.1734   22502488.4544
       228.0004        174.0004
 07  2 18  2 20 20.0000000  0  7G 1G22G19G14G31G25G11
  20782348.3604    -225733.90549   -174224.16647  20782348.0404   20782352.8354
       242.0004        211.0004
  22178082.1704     339164.03549    256428.44347  22178082.6734   22178084.4814
       232.0004        189.0004
  23982251.5144     419951.91049    315540.54145  23982251.4634   23982254.8504
       210.0004        156.0004
  21282721.2804     381465.66749    288652.49147  21282721.0194   21282724.7104
       236.0004        202.0004
  21115986.8884    -614291.68749   -467206.76747  21115987.3664   21115990.3274
       241.0004        210.0004
  22708773.2254    -955448.91649   -708809.32846  22708773.0644   22708777.0394
       224.0004        172.0004
  22500723.7144    -556049.23249   -422231.79746  22500724.1134   22500727.2904
       227.0004        174.0004
 07  2 18  2 20 25.0000000  0  7G 1G22G19G14G31G25G11
  20781883.8274    -228174.99349   -176126.30347  20781883.2724   20781888.0804
       244.0004        211.0004
  22179687.7644     347601.36949    263002.99847  22179687.6424   22179689.8884
       233.0004        189.0004
  23984520.2894     431874.29749    324830.70945  23984519.4234   23984524.0254
       212.0004        156.0004
  21284483.1124     390724.04249    295866.81647  21284482.5094   21284486.3214
       238.0004        202.0004
  21114099.2494    -624211.30949   -474936.33247  21114099.3634   21114102.4604
       242.0004        210.0004
  22705596.9214    -972140.40049   -721815.66646  22705596.8524   22705601.2844
       226.0004        172.0004
  22498963.2804    -565300.24349   -429440.37746  22498962.9524   22498967.0134
       227.0004        174.0004
 07  2 18  2 20 30.0000000  0  7G 1G22G19G14G31G25G11
  20781421.2924    -230605.61849   -178020.29447  20781420.7224   20781425.6454
       244.0004        211.0004
  22181294.6424     356045.51649    269582.85647  22181294.5594   22181296.5444
       234.0004        189.0004
  23986790.0154     443801.73449    334124.80945  23986789.4514   23986793.1634
       212.0004        156.0004
  21286246.1614     399988.87149    303086.16647  21286245.3794   21286249.2424
       238.0004        202.0004
  21112214.3714    -634116.48649   -482654.64347  21112214.3584   21112217.6974
       241.0004        210.0004
  22702422.0774    -988824.17749   -734816.01246  22702421.8104   22702426.5404
       225.0004        172.0004
  22497205.4694    -574537.64449   -436638.34746  22497204.5794   22497208.7294
       227.0004        174.0004
 07  2 18  2 20 35.0000000  0  7G 1G22G19G14G31G25G11
  20780960.3514    -233027.92549   -179907.80247  20780959.5214   20780964.6004
       244.0004        211.0004
  22182902.4404     364494.35049    276166.35847  22182902.2264   22182904.4704
       235.0004        189.0004
  23989060.2684     455731.99449    343421.11445  23989059.6604   23989063.2614
       213.0004        157.0004
  21288010.0074     409258.00449    310308.86847  21288009.2384   21288013.0974
       238.0004        202.0004
  21110331.8454    -644009.29649   -490363.32547  21110332.0214   21110335.0864
       242.0004        210.0004
  22699248.3164   -1005502.40949   -747812.02946  22699247.9084   22699252.8044
       225.0004        172.0004
  22495449.8084    -583763.59349   -443827.38546  22495449.2954   22495453.8024
       229.0004        174.0004
 07  2 18  2 20 40.0000000  0  7G 1G22G19G14G31G25G11
  20780501.3114    -235440.21049   -181787.50347  20780500.7194   20780505.4464
       243.0004        211.0004
  22184511.4304     372949.60049    282754.86647  22184511.3624   22184513.1014
       232.0004        189.0004
  23991331.4004     467666.79849    352720.96345  23991330.9174   23991334.6674
       212.0004        157.0004
  21289775.0234     418533.16049    317536.26347  21289774.5064   21289777.9044
       236.0004        202.0004
  21108451.9624    -653888.02949   -498061.03247  21108451.9934   21108455.3024
       241.0004        210.0004
  22696075.8654   -1022173.54149   -760802.51246  22696075.6844   22696079.7484
       225.0004        172.0004
  22493696.6854    -592976.34749   -451006.15446  22493697.1574   22493700.1304
       227.0004        175.0004
 07  2 18  2 20 45.0000000  0  7G 1G22G19G14G31G25G11
  20780043.9624    -237843.58649   -183660.25847  20780043.4154   20780048.2974
       242.0004        211.0004
  22186121.4404     381410.12049    289347.48047  22186121.1584   22186123.5754
       233.0004        189.0004
  23993603.1544     479605.00549    362023.46445  23993602.4754   23993606.5374
       212.0004        157.0004
  21291540.9474     427813.22149    324767.48047  21291540.5234   21291544.1844
       236.0004        202.0004
  21106574.5774    -663753.77049   -505748.61947  21106574.7224   21106577.8874
       241.0004        210.0004
  22692904.6374   -1038838.46349   -773788.16946  22692904.8094   22692908.7684
       225.0004        173.0004
  22491945.8554    -602177.02249   -458175.51746  22491946.1904   22491948.3414
       227.0004        175.0004
 07  2 18  2 20 50.0000000  0  7G 1G22G19G14G31G25G11
  20779588.4084    -240237.47049   -185525.61947  20779587.8214   20779592.6034
       243.0004        211.0004
  22187732.5594     389876.50449    295944.66647  22187732.3034   22187734.2534
       232.0004        189.0004
  23995875.7044     491547.19349    371329.06545  23995874.9314   23995879.6494
       211.0004        157.0004
  21293307.9204     437098.75949    332002.96547  21293307.3804   21293311.0624
       236.0004        202.0004
  21104699.7894    -673605.93949   -513425.62747  21104699.9104   21104703.0534
       241.0004        210.0004
  22689734.7114   -1055496.60249   -786768.52846  22689734.5944   22689739.5154
       224.0004        173.0004
  22490197.4764    -611365.06149   -465335.02146  22490196.9314   22490200.3194
       226.0004        175.0004
 07  2 18  2 20 55.0000000  0  7G 1G22G19G14G31G25G11
  20779134.6984    -242621.78649   -187383.52547  20779134.2054   20779138.7994
       243.0004        211.0004
  22189344.8044     398348.84649    302546.49147  22189344.4664   22189346.2244
       233.0004        189.0004
  23998149.0174     503493.44149    380637.83145  23998148.2884   23998153.1394
       211.0004        157.0004
  21295075.9464     446389.87849    339242.79947  21295075.6164   21295079.3514
       236.0004        202.0004
  21102827.5744    -683444.43449   -521091.98247  21102827.7064   21102830.7694
       241.0004        211.0004
  22686566.0484   -1072147.98949   -799743.63046  22686566.1174   22686571.1524
       226.0004        173.0004
  22488451.4934    -620540.36149   -472484.59946  22488450.6404   22488454.6904
       226.0004        175.0004
 07  2 18  2 21  0.0000000  0  7G 1G22G19G14G31G25G11
  20778682.6214    -244997.47949   -189234.71347  20778682.2084   20778686.4894
       243.0004        211.0004
  22190957.9904     406826.18449    309152.21147  22190957.8304   22190959.8314
       233.0004        189.0004
  24000422.9164     515442.80049    389949.02345  24000422.3634   24000426.3794
       212.0004        157.0004
  21296844.8524     455685.58049    346486.20347  21296844.2724   21296848.0114
       237.0004        202.0004
  21100957.8004    -693270.21349   -528748.43047  21100958.0514   21100961.0434
       242.0004        211.0004
  22683398.5214   -1088793.48849   -812714.14146  22683398.6604   22683402.7704
       225.0004        173.0004
  22486707.7514    -629703.82649   -479624.96146  22486707.6464   22486711.5934
       228.0004        175.0004
 07  2 18  2 21  5.0000000  0  7G 1G22G19G14G31G25G11
  20778232.3554    -247363.63549   -191078.47247  20778231.9194   20778236.5624
       244.0004        211.0004
  22192572.3254     415309.46349    315762.54847  22192572.6624   22192574.2824
       233.0004        189.0004
  24002697.5944     527396.17449    399263.33945  24002697.1294   24002700.7624
       213.0004        157.0004
  21298614.8214     464986.79049    353733.89947  21298614.2764   21298618.0854
       237.0004        201.0004
  21099090.6064    -703082.35649   -536394.25747  21099090.9134   21099093.9434
       242.0004        211.0004
  22680232.3204   -1105432.14949   -825679.33246  22680232.6124   22680236.3764
       225.0004        173.0004
  22484966.4294    -638854.55349   -486755.40146  22484967.0214   22484970.4144
       229.0004        175.0004
 07  2 18  2 21 10.0000000  0  7G 1G22G19G14G31G25G11
  20777783.7614    -249720.94249   -192915.32747  20777783.1604   20777787.9304
       243.0004        211.0004
  22194187.6324     423797.96749    322376.97647  22194187.9734   22194189.4684
       233.0004        189.0004
  24004972.9044     539352.88849    408580.25345  24004972.1044   24004976.0514
       212.0004        157.0004
  21300385.6884     474292.81449    360985.35347  21300385.0904   21300388.5794
       237.0004        201.0004
  21097225.8914    -712881.54049   -544029.97147  21097226.0844   21097229.1464
       242.0004        211.0004
  22677067.2554   -1122064.66949   -838639.72146  22677066.8634   22677071.5314
       225.0004        173.0004
  22483227.4204    -647993.21449   -493876.42846  22483228.4054   22483231.1904
       228.0004        175.0004
 07  2 18  2 21 15.0000000  0  7G 1G22G19G14G31G25G11
  20777337.0264    -252068.57949   -194744.65347  20777336.5294   20777341.3154
       243.0004        211.0004
  22195804.1214     432292.55249    328996.12447  22195804.1554   22195806.0554
       233.0004        189.0004
  24007249.0114     551313.71749    417900.37445  24007248.6984   24007252.4884
       213.0004        157.0004
  21302157.6404     483604.47049    368241.18347  21302157.4634   21302160.7614
       237.0004        201.0004
  21095363.8014    -722666.92849   -551654.94847  21095364.1034   21095367.2164
       241.0004        211.0004
  22673903.5394   -1138690.08749   -851594.59646  22673903.3034   22673907.3984
       224.0004        173.0004
  22481490.8524    -657118.98149   -500987.42846  22481490.9284   22481493.6304
       227.0004        175.0004
 07  2 18  2 21 20.0000000  0  7G 1G22G19G14G31G25G11
  20776892.0614    -254406.82849   -196566.65847  20776891.3074   20776896.2174
       244.0004        211.0004
  22197421.7224     440792.94749    335619.81747  22197421.7754   22197423.6964
       234.0004        189.0004
  24009525.8414     563278.41949    427223.51645  24009525.5314   24009528.7444
       211.0004        156.0004
  21303930.6054     492921.44549    375501.17547  21303930.2564   21303933.5784
       238.0004        201.0004
  21093504.2704    -732438.75749   -559269.34947  21093504.5514   21093507.6364
       243.0004        211.0004
  22670741.0994   -1155308.81349   -864544.23346  22670740.2834   22670745.1024
       224.0004        173.0004
  22479756.7044    -666232.15649   -508088.58146  22479756.0894   22479759.7704
       228.0004        175.0004
 07  2 18  2 21 25.0000000  0  7G 1G22G19G14G31G25G11
  20776448.7914    -256736.24049   -198381.78547  20776448.3944   20776453.0084
       242.0004        211.0004
  22199040.2974     449298.61949    342247.60547  22199040.5944   22199042.1504
       232.0004        189.0004
  24011803.3254     575246.38049    436549.19345  24011802.7854   24011806.0384
       210.0004        156.0004
  21305704.4954     502243.21649    382764.88847  21305704.0384   21305707.6664
       237.0004        201.0004
  21091647.2244    -742197.57149   -566873.62147  21091647.6064   21091650.5364
       241.0004        211.0004
  22667579.8284   -1171921.30649   -877489.02246  22667578.8824   22667584.2104
       223.0004        173.0004
  22478024.8424    -675333.20349   -515180.31746  22478025.2374   22478028.2074
       227.0004        175.0004
 07  2 18  2 21 30.0000000  0  7G 1G22G19G14G31G25G11
  20776007.1244    -259057.15149   -200190.27847  20776006.6804   20776011.2084
       244.0004        211.0004
  22200659.8204     457809.22349    348879.25547  22200659.4434   22200661.7704
       234.0004        189.0004
  24014081.3204     587217.29449    445877.17945  24014080.2184   24014083.8624
       212.0004        156.0004
  21307479.2154     511569.43149    390032.07747  21307478.6004   21307482.1134
       239.0004        201.0004
  21089792.5974    -751943.72049   -574468.01347  21089792.7604   21089795.8354
       244.0004        211.0004
  22664419.6304   -1188528.05449   -890429.34346  22664420.0294   22664423.7544
       227.0004        173.0004
  22476295.1894    -684422.44049   -522262.83246  22476295.4044   22476298.5354
       228.0004        175.0004
 07  2 18  2 21 35.0000000  0  7G 1G22G19G14G31G25G11
  20775567.4744    -261367.49049   -201990.54147  20775566.9144   20775571.6494
       243.0004        211.0004
  22202280.6604     466326.82949    355516.34747  22202281.0214   22202282.2214
       234.0004        189.0004
  24016360.2274     599193.20049    455209.05445  24016359.1214   24016363.2494
       211.0004        155.0004
  21309255.1744     520902.17849    397304.33947  21309254.7804   21309258.2364
       238.0004        201.0004
  21087940.7834    -761675.11549   -582050.91747  21087941.0624   21087944.1014
       242.0004        211.0004
  22661260.9594   -1205126.86649   -903363.48346  22661261.2054   22661265.0244
       225.0004        173.0004
  22474568.2084    -693497.83849   -529334.57146  22474568.1504   22474572.5304
       229.0004        175.0004
 07  2 18  2 21 40.0000000  0  7G 1G22G19G14G31G25G11
  20775129.5324    -263668.89149   -203783.83447  20775128.8884   20775133.7854
       244.0004        211.0004
  22203902.5474     474849.80249    362157.62847  22203902.4784   22203904.7464
       234.0004        189.0004
  24018639.8024     611172.44749    464543.53045  24018638.9524   24018642.5864
       213.0004        155.0004
  21311032.0814     530239.84349    404580.44947  21311031.5604   21311035.2274
       238.0004        201.0004
  21086091.4684    -771393.35049   -589623.56147  21086091.8224   21086094.7504
       243.0004        211.0004
  22658103.5304   -1221719.31749   -916292.65246  22658103.4914   22658107.7574
       227.0004        174.0004
  22472843.5444    -702561.00149   -536396.77346  22472843.5344   22472846.4184
       228.0004        175.0004
 07  2 18  2 21 45.0000000  0  7G 1G22G19G14G31G25G11
  20774693.2254    -265961.53049   -205570.30747  20774692.9594   20774697.6764
       243.0004        211.0004
  22205525.4114     483378.02449    368802.99447  22205525.1354   22205527.2074
       232.0004        189.0004
  24020919.9934     623154.86649    473880.48045  24020919.2644   24020923.4724
       211.0004        155.0004
  21312809.8394     539582.19049    411860.20047  21312809.4794   21312812.9154
       236.0004        201.0004
  21084244.6344    -781098.59049   -597186.08447  21084245.0714   21084247.8864
       242.0004        211.0004
  22654947.2714   -1238305.51649   -929216.95746  22654947.4564   22654951.2724
       224.0004        174.0004
  22471121.1584    -711612.07849   -543449.55346  22471120.8974   22471124.1674
       227.0004        175.0004
 07  2 18  2 21 50.0000000  0  7G 1G22G19G14G31G25G11
  20774258.7914    -268244.57949   -207349.30047  20774258.3504   20774263.0044
       243.0004        211.0004
  22207149.4304     491912.28949    375453.07547  22207149.0214   22207151.5364
       232.0004        189.0004
  24023200.9514     635141.28149    483220.53745  24023199.9654   24023204.3484
       209.0004        155.0004
  21314588.6874     548930.04249    419144.24347  21314587.9684   21314591.6584
       236.0004        201.0004
  21082400.4184    -790790.01149   -604737.83547  21082400.5984   21082403.7474
       242.0004        212.0004
  22651792.3864   -1254884.72749   -942135.82646  22651792.3504   22651796.6384
       224.0004        174.0004
  22469401.2444    -720650.26449   -550492.29646  22469401.3774   22469404.5124
       228.0004        175.0004
 07  2 18  2 21 55.0000000  0  7G 1G22G19G14G31G25G11
  20773825.9384    -270519.16649   -209121.70447  20773825.4804   20773830.3034
       244.0004        211.0004
  22208774.3764     500451.46549    382106.97547  22208774.0764   22208776.6614
       233.0004        189.0004
  24025482.4534     647130.57649    492562.83945  24025481.7754   24025485.8534
       210.0004        155.0004
  21316368.3394     558282.31149    426431.72547  21316368.1054   21316371.3174
       238.0004        201.0004
  21080558.6234    -800468.73149   -612279.69147  21080558.9734   21080561.9904
       243.0004        212.0004
  22648638.6114   -1271457.97649   -955050.03946  22648638.8344   22648642.8354
       226.0004        174.0004
  22467683.5994    -729676.66649   -557525.86746  22467682.9974   22467686.6644
       230.0004        176.0004
 07  2 18  2 22  0.0000000  0  7G 1G22G19G14G31G25G11
  20773394.9384    -272784.20349   -210886.66247  20773394.5884   20773399.2444
       243.0004        211.0004
  22210400.4824     508996.68949    388765.59147  22210400.8094   22210402.6254
       232.0004        189.0004
  24027764.6804     659123.79149    501908.19745  24027763.7654   24027768.2254
       209.0004        155.0004
  21318149.0764     567640.06749    433723.48647  21318148.6934   21318152.2924
       237.0004        201.0004
  21078719.4454    -810133.64649   -619810.78647  21078719.8664   21078722.8314
       242.0004        212.0004
  22645486.1644   -1288024.23049   -967958.79746  22645485.7964   22645490.3184
       225.0004        174.0004
  22465968.4134    -738690.16049   -564549.36046  22465968.3344   22465972.9124
       229.0004        176.0004
 07  2 18  2 22  5.0000000  0  7G 1G22G19G14G31G25G11
  20772965.6254    -275040.16849   -212644.55547  20772965.3154   20772969.9684
       243.0004        211.0004
  22212027.6474     517547.44249    395428.51647  22212027.3334   22212029.8764
       232.0004        188.0004
  24030047.5674     671120.45649    511256.24845  24030046.8654   24030050.5004
       211.0004        155.0004
  21319930.7594     577002.81649    441019.13647  21319930.3594   21319934.0754
       237.0004        201.0004
  21076882.8044    -819785.21349   -627331.48747  21076883.0674   21076886.2284
       242.0004        212.0004
  22642334.9374   -1304583.88449   -980862.42646  22642334.4384   22642339.5804
       223.0004        174.0004
  22464255.5774    -747691.26749   -571563.21046  22464254.6904   22464259.4524
       228.0004        176.0004
 07  2 18  2 22 10.0000000  0  7G 1G22G19G14G31G25G11
  20772538.1454    -277286.58349   -214395.00247  20772537.8414   20772542.4244
       243.0004        211.0004
  22213655.9234     526104.18449    402096.10347  22213656.1664   22213657.9474
       232.0004        188.0004
  24032331.1924     683121.00549    520607.32545  24032330.4144   24032334.3954
       210.0004        155.0004
  21321713.4674     586371.02949    448319.04447  21321712.9554   21321716.5404
       237.0004        201.0004
  21075048.7934    -829423.00049   -634841.44347  21075049.1774   21075052.2324
       242.0004        212.0004
  22639185.0564   -1321136.53149   -993760.57246  22639184.7294   22639189.9224
       224.0004        174.0004
  22462545.2024    -756679.40449   -578566.94646  22462545.1244   22462549.0144
       228.0004        176.0004
 07  2 18  2 22 15.0000000  0  7G 1G22G19G14G31G25G11
  20772112.3294    -279524.29549   -216138.67547  20772111.8964   20772116.7344
       244.0004        211.0004
  22215285.2064     534666.11549    408767.73547  22215284.8184   22215286.9894
       232.0004        188.0004
  24034615.4054     695124.59449    529960.77145  24034614.4434   24034618.6544
       213.0004        155.0004
  21323497.0914     595743.88249    455622.56247  21323496.6304   21323500.1014
       238.0004        201.0004
  21073217.2714    -839047.76349   -642341.25547  21073217.5954   21073220.6094
       243.0004        212.0004
  22636036.3574   -1337682.91349  -1006653.86146  22636035.8284   22636041.1714
       225.0004        174.0004
  22460837.1354    -765655.43949   -585561.26346  22460837.2064   22460840.0424
       229.0004        176.0004
 07  2 18  2 22 20.0000000  0  7G 1G22G19G14G31G25G11
  20771688.4214    -281751.96849   -217874.51847  20771687.9004   20771692.8314
       243.0004        211.0004
  22216915.7364     543234.63049    415444.49847  22216915.3604   22216917.9944
       231.0004        188.0004
  24036900.4594     707132.60049    539317.66745  24036899.6714   24036903.7474
       212.0004        155.0004
  21325281.8144     605122.69949    462930.73347  21325281.4754   21325284.9494
       236.0004        201.0004
  21071388.4734    -848658.14349   -649829.85647  21071388.7714   21071392.0294
       242.0004        212.0004
  22632889.0844   -1354221.73849  -1019541.24746  22632888.6974   22632893.6354
       222.0004        174.0004
  22459131.6084    -774618.07149   -592545.11946  22459130.9674   22459133.8304
       228.0004        177.0004
 07  2 18  2 22 25.0000000  0  7G 1G22G19G14G31G25G11
  20771266.1734    -283970.94349   -219603.58747  20771265.8824   20771270.7344
       243.0004        211.0004
  22218547.2604     551808.36649    422125.33347  22218547.1004   22218549.5334
       231.0004        188.0004
  24039186.1154     719143.65149    548676.92845  24039185.6784   24039189.9124
       212.0004        155.0004
  21327067.4184     614506.15249    470242.51547  21327067.3984   21327070.7624
       237.0004        201.0004
  21069562.1444    -858255.47749   -657308.29347  21069562.4954   21069565.6544
       242.0004        212.0004
  22629743.0094   -1370754.28549  -1032423.74646  22629742.5254   22629747.4084
       224.0004        173.0004
  22457428.3724    -783568.59649   -599519.56546  22457428.5364   22457431.2914
       229.0004        176.0004
 07  2 18  2 22 30.0000000  0  7G 1G22G19G14G31G25G11
  20770845.5384    -286181.46949   -221326.07247  20770845.0034   20770849.8444
       243.0004        211.0004
  22220179.6974     560387.04649    428810.02247  22220179.3804   22220181.5194
       232.0004        188.0004
  24041472.3174     731157.46149    558038.33345  24041471.5364   24041476.2014
       213.0004        156.0004
  21328853.8784     623893.97449    477557.70647  21328853.3524   21328856.7004
       237.0004        201.0004
  21067738.2584    -867840.01249   -664776.75747  21067738.5284   21067741.4654
       242.0004        212.0004
  22626598.1054   -1387280.81049  -1045301.55146  22626597.8824   22626602.9184
       224.0004        173.0004
  22455727.4204    -792507.24449   -606484.73646  22455727.3934   22455731.0214
       227.0004        176.0004
 07  2 18  2 22 35.0000000  0  7G 1G22G19G14G31G25G11
  20770426.7734    -288382.12649   -223040.86847  20770426.3734   20770431.0534
       244.0004        211.0004
  22221813.3834     568972.11449    435499.68047  22221812.8894   22221815.2604
       233.0004        188.0004
  24043759.2924     743175.45049    567402.99745  24043759.0724   24043762.2344
       212.0004        156.0004
  21330641.4174     633287.55949    484877.38047  21330641.1344   21330644.6294
       238.0004        201.0004
  21065917.1034    -877410.30649   -672234.12747  21065917.3194   21065920.4434
       243.0004        212.0004
  22623454.6124   -1403799.90249  -1058173.56346  22623454.7384   22623459.2404
       225.0004        173.0004
  22454028.9744    -801432.56749   -613439.53546  22454028.2004   22454032.8604
       228.0004        176.0004
 07  2 18  2 22 40.0000000  0  7G 1G22G19G14G31G25G11
  20770009.7624    -290573.51449   -224748.44247  20770009.5124   20770014.1224
       244.0004        211.0004
  22223448.1554     577562.93549    442193.82547  22223448.5574   22223450.5744
       233.0004        188.0004
  24046046.9894     755196.99749    576770.42445  24046046.4284   24046050.0464
       212.0004        156.0004
  21332429.9344     642686.29349    492201.07347  21332429.5764   21332433.4144
       238.0004        201.0004
  21064098.5174    -886966.96449   -679680.86747  21064099.2284   21064101.8534
       243.0004        212.0004
  22620312.4544   -1420312.15949  -1071040.25646  22620312.3144   22620317.2704
       224.0004        173.0004
  22452332.9634    -810345.19949   -620384.44546  22452332.8434   22452336.8324
       229.0004        177.0004
 07  2 18  2 22 45.0000000  0  7G 1G22G19G14G31G25G11
  20769594.3964    -292756.29249   -226449.29647  20769593.9694   20769598.6134
       242.0004        211.0004
  22225083.9074     586158.87249    448891.96447  22225083.9254   22225085.7854
       231.0004        188.0004
  24048335.1914     767221.50749    586140.16845  24048335.0444   24048337.8334
       211.0004        156.0004
  21334219.3074     652089.56349    499528.30247  21334218.7684   21334222.1904
       236.0004        201.0004
  21062282.4264    -896510.61049   -687117.46747  21062282.8154   21062285.5824
       242.0004        212.0004
  22617171.4854   -1436818.20549  -1083902.09846  22617170.7884   22617176.3414
       221.0004        173.0004
  22450639.2564    -819245.71449   -627319.89446  22450638.8964   22450642.2484
       228.0004        177.0004
 07  2 18  2 22 50.0000000  0  7G 1G22G19G14G31G25G11
  20769180.8554    -294929.50049   -228142.70747  20769180.5264   20769185.2484
       244.0004        211.0004
  22226720.8214     594760.91249    455594.84847  22226720.6414   22226723.0524
       232.0004        188.0004
  24050624.1184     779249.86449    595512.91745  24050623.8404   24050627.2504
       213.0004        156.0004
  21336009.7654     661498.31649    506859.79147  21336009.6084   21336013.0134
       238.0004        200.0004
  21060469.0004    -906040.27349   -694543.18047  21060469.4604   21060472.3874
       244.0004        212.0004
  22614031.8754   -1453316.98949  -1096758.28946  22614031.7824   22614036.4284
       224.0004        172.0004
  22448948.0104    -828133.19349   -634245.21246  22448948.1874   22448951.3944
       229.0004        177.0004
 07  2 18  2 22 55.0000000  0  7G 1G22G19G14G31G25G11
  20768768.9254    -297094.06549   -229829.37047  20768768.4314   20768773.1734
       244.0004        211.0004
  22228358.7394     603368.13349    462301.77747  22228358.7974   22228361.0974
       233.0004        188.0004
  24052913.6214     791281.15049    604887.94345  24052912.8754   24052916.9564
       212.0004        156.0004
  21337801.0564     670911.60449    514194.83047  21337800.6284   21337803.8564
       238.0004        200.0004
  21058658.0464    -915556.86249   -701958.69047  21058658.2944   21058661.2654
       244.0004        212.0004
  22610893.4624   -1469809.40449  -1109609.51346  22610893.4944   22610897.4674
       224.0004        172.0004
  22447259.1064    -837008.55249   -641161.06846  22447258.9164   22447261.9244
       228.0004        177.0004
 07  2 18  2 23  0.0000000  0  7G 1G22G19G14G31G25G11
  20768358.8894    -299248.79549   -231508.38347  20768358.4654   20768363.3084
       243.0004        211.0004
  22229997.8624     611981.73049    469013.66947  22229997.7034   22229999.6664
       232.0004        188.0004
  24055203.8744     803316.53949    614266.16645  24055203.4094   24055206.4304
       210.0004        156.0004
  21339593.4224     680330.62449    521534.32747  21339592.9974   21339596.4744
       236.0004        200.0004
  21056849.8434    -925059.21249   -709363.11747  21056849.9764   21056853.1074
       242.0004        212.0004
  22607756.4764   -1486294.35749  -1122454.92546  22607755.8364   22607760.7014
       223.0004        172.0004
  22445572.7024    -845870.53049   -648066.49946  22445573.3034   22445575.9844
       227.0004        177.0004
 07  2 18  2 23  5.0000000  0  7G 1G22G19G14G31G25G11
  20767950.4094    -301395.33449   -233181.00647  20767949.9974   20767954.5684
       243.0004        211.0004
  22231637.8954     620600.06549    475729.25047  22231637.8674   22231640.0434
       233.0004        188.0004
  24057494.5874     815354.34849    623646.27545  24057493.4344   24057497.9054
       211.0004        156.0004
  21341386.5874     689753.72349    528877.00047  21341386.1764   21341389.6274
       237.0004        200.0004
  21055043.9884    -934548.93449   -716757.70347  21055044.3564   21055047.2964
       243.0004        212.0004
  22604620.5764   -1502773.51949  -1135295.82446  22604620.4574   22604624.9184
       224.0004        172.0004
  22443888.5604    -854720.80949   -654962.81446  22443887.5104   22443891.8694
       228.0004        177.0004
 07  2 18  2 23 10.0000000  0  7G 1G22G19G14G31G25G11
  20767543.7534    -303532.28849   -234846.16747  20767543.4194   20767548.0384
       243.0004        211.0004
  22233279.1074     629224.55349    482449.62647  22233279.4714   22233280.8394
       232.0004        188.0004
  24059786.0304     827396.02949    633029.40645  24059784.8684   24059789.6924
       211.0004        156.0004
  21343180.7914     699182.32149    536223.95647  21343180.3444   21343183.7554
       237.0004        200.0004
  21053240.8434    -944024.62749   -724141.35947  21053241.2244   21053244.0314
       243.0004        212.0004
  22601486.0664   -1519245.33949  -1148131.01246  22601486.0374   22601490.9914
       223.0004        172.0004
  22442206.9044    -863557.97949   -661848.93246  22442206.7844   22442210.4554
       229.0004        177.0004
 07  2 18  2 23 15.0000000  0  7G 1G22G19G14G31G25G11
  20767138.8524    -305660.03649   -236504.14247  20767138.4594   20767143.0574
       243.0004        211.0004
  22234921.4114     637854.76849    489174.47746  22234921.5244   22234923.0364
       232.0004        187.0004
  24062078.1074     839441.13649    642415.20845  24062077.5304   24062081.4804
       210.0004        155.0004
  21344975.9744     708616.02849    543574.90747  21344975.4414   21344978.9144
       236.0004        200.0004
  21051440.3044    -953486.62849   -731514.33747  21051440.4614   21051443.4644
       242.0004        212.0004
  22598352.9334   -1535710.11249  -1160960.68546  22598352.6664   22598357.7614
       223.0004        172.0004
  22440527.6744    -872382.40549   -668725.09746  22440527.7664   22440530.4664
       227.0004        177.0004
 07  2 18  2 23 20.0000000  0  7G 1G22G19G14G31G25G11
  20766735.6254    -307779.07949   -238155.34747  20766735.1484   20766739.9574
       243.0004        211.0004
  22236564.6774     646490.22549    495903.40246  22236564.8074   22236566.6114
       232.0004        187.0004
  24064370.7814     851489.18049    651803.29445  24064369.9834   24064374.0634
       210.0004        155.0004
  21346771.9984     718054.33249    550929.42547  21346771.9474   21346775.0374
       238.0004        200.0004
  21049642.2664    -962935.43649   -738877.04347  21049642.7264   21049645.4864
       243.0004        212.0004
  22595220.9854   -1552168.49449  -1173785.40346  22595221.4544   22595225.6464
       224.0004        172.0004
  22438850.7754    -881194.59349   -675591.73846  22438850.3974   22438853.3684
       228.0004        177.0004
 07  2 18  2 23 25.0000000  0  7G 1G22G19G14G31G25G11
  20766334.1434    -309888.76349   -239799.24847  20766333.6964   20766338.4894
       243.0004        211.0004
  22238209.0874     655131.64349    502636.98346  22238208.9284   22238210.6154
       232.0004        187.0004
  24066664.1314     863540.81549    661194.17845  24066663.7854   24066667.1154
       209.0004        155.0004
  21348569.0614     727497.85649    558288.02247  21348568.5144   21348571.9684
       237.0004        200.0004
  21047846.8374    -972370.40949   -746228.96247  21047847.0894   21047849.8984
       243.0004        212.0004
  22592090.4014   -1568619.80849  -1186604.60046  22592090.2114   22592095.2804
       224.0004        173.0004
  22437176.3444    -889993.88249   -682448.32846  22437175.1874   22437179.5154
       227.0004        177.0004
 07  2 18  2 23 30.0000000  0  7G 1G22G19G14G31G25G11
  20765934.4394    -311989.14749   -241435.91047  20765934.1934   20765938.7524
       242.0004        211.0004
  22239854.6144     663778.95349    509375.14046  22239854.6094   22239856.5594
       231.0004        187.0004
  24068958.1424     875595.98849    670587.81745  24068956.9284   24068960.9614
       209.0004        154.0004
  21350367.0854     736946.54049    565650.63247  21350366.6094   21350370.1244
       236.0004        200.0004
  21046054.0464    -981791.59149   -753570.14247  21046054.3904   21046057.1904
       242.0004        212.0004
  22588961.1824   -1585064.02549  -1199418.26946  22588960.2884   22588965.2694
       224.0004        173.0004
  22435504.3064    -898780.30449   -689294.87746  22435504.3544   22435506.7134
       227.0004        177.0004
 07  2 18  2 23 35.0000000  0  7G 1G22G19G14G31G25G11
  20765536.4874    -314080.40449   -243065.46247  20765536.1884   20765540.8284
       242.0004        211.0004
  22241501.2264     672431.99249    516117.77046  22241500.9494   22241503.6034
       231.0004        187.0004
  24071252.7874     887654.46949    679984.02645  24071251.3594   24071255.8304
       209.0004        154.0004
  21352166.0744     746400.21749    573017.13447  21352165.6934   21352169.0564
       236.0004        200.0004
  21044263.8654    -991199.11149   -760900.67247  21044264.2694   21044267.0594
       243.0004        212.0004
  22585833.2404   -1601501.38849  -1212226.59446  22585832.4044   22585838.3044
       223.0004        173.0004
  22433834.7274    -907553.99749   -696131.52146  22433834.7494   22433838.3174
       228.0004        177.0004
 07  2 18  2 23 40.0000000  0  7G 1G22G19G14G31G25G11
  20765140.1654    -316163.09349   -244688.32847  20765139.8334   20765144.4454
       242.0004        211.0004
  22243148.8084     681090.19849    522864.42646  22243148.5794   22243150.4604
       231.0004        187.0004
  24073547.9784     899715.69449    689382.38345  24073545.8514   24073550.5974
       208.0004        154.0004
  21353965.8764     755858.33749    580387.10047  21353965.4374   21353969.0384
       237.0004        200.0004
  21042476.1744   -1000593.53949   -768221.00047  21042476.4574   21042479.4644
       242.0004        212.0004
  22582706.5224   -1617932.33449  -1225029.92546  22582705.9884   22582710.2764
       223.0004        173.0004
  22432167.4624    -916315.52149   -702958.67746  22432167.5144   22432171.3534
       228.0004        177.0004
 07  2 18  2 23 45.0000000  0  7G 1G22G19G14G31G25G11
  20764745.7764    -318235.64649   -246303.30847  20764745.6064   20764750.3304
       243.0004        211.0004
  22244797.7184     689755.19649    529616.36346  22244797.4074   22244799.8774
       231.0004        187.0004
  24075843.9394     911781.26149    698784.11945  24075842.1714   24075847.3474
       207.0004        154.0004
  21355766.8614     765322.47049    587761.74847  21355766.8904   21355769.6284
       237.0004        200.0004
  21040691.2814   -1009973.27849   -775529.88747  21040691.7324   21040694.5064
       242.0004        212.0004
  22579581.3174   -1634355.40649  -1237827.11646  22579581.4014   22579585.8694
       223.0004        173.0004
  22430502.7894    -925063.29549   -709775.12646  22430501.8374   22430506.0604
       227.0004        178.0004
 07  2 18  2 23 50.0000000  0  7G 1G22G19G14G31G25G11
  20764352.8764    -320300.34749   -247912.15647  20764352.4584   20764357.2304
       243.0004        211.0004
  22246447.4544     698424.61849    536371.76546  22246447.0154   22246449.5274
       232.0004        187.0004
  24078140.2994     923848.83649    708187.43145  24078138.6114   24078143.5364
       208.0004        153.0004
  21357568.5144     774790.30149    595139.28447  21357568.0434   21357571.6134
       237.0004        200.0004
  21038908.7354   -1019340.60549   -782829.09347  21038909.0764   21038912.0124
       242.0004        212.0004
  22576457.1804   -1650772.76849  -1250619.86046  22576456.8744   22576461.4754
       224.0004        173.0004
  22428840.3194    -933799.63449   -716582.66146  22428839.9974   22428843.9844
       228.0004        178.0004
 07  2 18  2 23 55.0000000  0  7G 1G22G19G14G31G25G11
  20763961.8514    -322355.25549   -249513.38347  20763961.6484   20763966.3224
       242.0004        211.0004
  22248098.3994     707100.44149    543132.14446  22248098.1224   22248100.5124
       231.0004        187.0004
  24080437.3964     935920.37749    717593.82745  24080436.2514   24080441.6774
       207.0004        154.0004
  21359371.2804     784263.80849    602521.23547  21359370.7854   21359374.3574
       236.0004        200.0004
  21037128.9184   -1028693.56449   -790117.11347  21037129.2094   21037132.0064
       241.0004        212.0004
  22573334.5424   -1667182.41249  -1263406.59446  22573334.2064   22573338.9084
       223.0004        173.0004
  22427180.3844    -942522.52249   -723379.72646  22427180.9164   22427183.7114
       229.0004        178.0004
 07  2 18  2 24  0.0000000  0  7G 1G22G19G14G31G25G11
  20763572.4044    -324401.82149   -251108.10547  20763572.1584   20763576.8224
       244.0004        211.0004
  22249750.2994     715781.24449    549896.40646  22249750.1584   22249752.7834
       232.0004        187.0004
  24082734.9724     947994.41549    727002.16545  24082733.8904   24082738.8124
       208.0004        154.0004
  21361174.8184     793741.53249    609906.48047  21361174.3974   21361178.1464
       237.0004        200.0004
  21035351.5764   -1038033.48849   -797394.96847  21035351.8894   21035354.8864
       243.0004        212.0004
  22570213.0324   -1683585.89349  -1276188.51146  22570212.1674   22570217.5844
       223.0004        173.0004
  22425522.7674    -951233.41349   -730167.42746  22425521.6244   22425526.0594
       228.0004        178.0004
 07  2 18  2 24  5.0000000  0  7G 1G22G19G14G31G25G11
  20763184.7864    -326438.83949   -252695.38447  20763184.4664   20763189.1194
       245.0004        211.0004
  22251403.3754     724468.22149    556665.47946  22251403.4544   22251405.1514
       233.0004        187.0004
  24085033.2654     960072.18549    736413.40745  24085032.0094   24085037.1674
       207.0004        153.0004
  21362979.3954     803224.66449    617295.94147  21362979.0274   21362982.4864
       238.0004        200.0004
  21033576.9544   -1047359.26949   -804661.80347  21033577.3274   21033580.2904
       243.0004        212.0004
  22567092.9694   -1699981.94249  -1288964.64746  22567092.2874   22567097.3354
       224.0004        173.0004
  22423867.6554    -959931.13749   -736944.85346  22423866.4404   22423871.5504
       228.0004        178.0004
 07  2 18  2 24 10.0000000  0  7G 1G22G19G14G31G25G11
  20762798.8464    -328466.96549   -254275.74047  20762798.4244   20762803.1944
       243.0004        211.0004
  22253057.5114     733160.69549    563438.83946  22253057.7394   22253059.4834
       231.0004        187.0004
  24087332.1584     972153.00549    745827.02345  24087330.7884   24087337.0444
       206.0004        153.0004
  21364784.8834     812712.53649    624689.08647  21364784.1384   21364787.9494
       236.0004        200.0004
  21031804.8574   -1056671.58149   -811918.14247  21031805.0144   21031808.1714
       241.0004        212.0004
  22563974.2054   -1716371.13949  -1301735.45046  22563974.1164   22563978.9454
       222.0004        173.0004
  22422214.9014    -968616.30149   -743712.52146  22422214.8544   22422218.5914
       229.0004        178.0004
 07  2 18  2 24 15.0000000  0  7G 1G22G19G14G31G25G11
  20762414.7884    -330485.19149   -255848.38747  20762414.4504   20762419.2864
       243.0004        211.0004
  22254712.8984     741859.69549    570217.27446  22254712.8934   22254715.1874
       232.0004        187.0004
  24089631.7854     984237.88949    755243.80645  24089630.1664   24089635.9324
       206.0004        153.0004
  21366591.4594     822206.15949    632086.71047  21366591.1674   21366594.7124
       237.0004        200.0004
  21030035.5614   -1065969.36049   -819163.17047  21030035.7594   21030038.6884
       242.0004        212.0004
  22560856.9184   -1732752.52949  -1314500.16146  22560856.1544   22560861.6084
       224.0004        172.0004
  22420564.7574    -977287.87849   -750469.60046  22420565.3064   22420568.0344
       229.0004        178.0004
 07  2 18  2 24 20.0000000  0  7G 1G22G19G14G31G25G11
  20762032.2634    -332495.36949   -257414.74947  20762031.7644   20762036.5864
       243.0004        211.0004
  22256369.1354     750563.39849    576999.38346  22256369.3364   22256371.0074
       231.0004        187.0004
  24091931.8504     996324.89149    764662.24245  24091930.1444   24091935.4384
       207.0004        153.0004
  21368398.7784     831703.70649    639487.40447  21368398.2864   21368401.8214
       236.0004        200.0004
  21028268.6584   -1075254.46149   -826398.30147  21028268.7824   21028271.8524
       241.0004        212.0004
  22557740.7474   -1749127.93649  -1327260.20946  22557740.7414   22557744.9814
       223.0004        172.0004
  22418916.8724    -985947.72549   -757217.53446  22418916.8674   22418920.4624
       228.0004        178.0004
 07  2 18  2 24 25.0000000  0  7G 1G22G19G14G31G25G11
  20761651.5614    -334496.01749   -258973.69947  20761651.3884   20761656.1074
       244.0004        211.0004
  22258026.6134     759273.28849    583786.30246  22258026.7694   22258029.0044
       232.0004        187.0004
  24094232.6254    1008415.58349    774083.53945  24094231.3214   24094235.4644
       208.0004        152.0004
  21370207.1224     841206.60449    646892.25547  21370207.0244   21370210.4844
       237.0004        200.0004
  21026504.4474   -1084525.40149   -833622.41347  21026504.7444   21026507.5114
       242.0004        212.0004
  22554626.0284   -1765495.82849  -1340014.41346  22554625.6584   22554629.9514
       224.0004        172.0004
  22417271.4814    -994594.37949   -763955.18346  22417271.8464   22417274.7464
       229.0004        178.0004
 07  2 18  2 24 30.0000000  0  7G 1G22G19G14G31G25G11
  20761272.5474    -336487.82749   -260525.75447  20761272.3304   20761277.0384
       244.0004        211.0004
  22259685.0904     767988.68049    590577.51746  22259685.1014   22259687.0604
       231.0004        187.0004
  24096533.9894    1020509.23549    783507.15545  24096532.4084   24096536.7904
       209.0004        152.0004
  21372016.3604     850714.19049    654300.76747  21372016.1214   21372019.4654
       236.0004        200.0004
  21024742.8124   -1093782.81649   -840835.97747  21024743.2234   21024746.0724
       242.0004        212.0004
  22551512.6074   -1781856.95549  -1352763.33946  22551511.8034   22551516.1174
       223.0004        172.0004
  22415628.4914   -1003228.45449   -770683.03346  22415628.1444   22415631.6674
       229.0004        178.0004
 07  2 18  2 24 35.0000000  0  7G 1G22G19G14G31G25G11
  20760895.2404    -338470.64049   -262070.80347  20760894.9814   20760899.4554
       245.0004        211.0004
  22261344.6664     776709.73549    597373.14046  22261344.6024   22261346.2714
       233.0004        187.0004
  24098835.9444    1032605.99849    792933.20745  24098835.3834   24098838.5194
       211.0004        153.0004
  21373826.5034     860226.62649    661713.04947  21373826.2684   21373829.4764
       238.0004        199.0004
  21022983.7954   -1103026.54449   -848038.88147  21022984.3414   21022986.9174
       243.0004        212.0004
  22548400.4814   -1798211.10849  -1365506.82846  22548399.9584   22548405.4324
       225.0004        172.0004
  22413987.9174   -1011849.79749   -777400.95646  22413987.5894   22413991.3194
       229.0004        179.0004
 07  2 18  2 24 40.0000000  0  7G 1G22G19G14G31G25G11
  20760519.5824    -340444.77249   -263609.07747  20760519.1624   20760523.9604
       243.0004        211.0004
  22263005.2674     785436.11049    604172.92546  22263004.7924   22263007.2954
       232.0004        187.0004
  24101138.4284    1044705.52049    802361.41445  24101137.5804   24101141.6264
       211.0004        153.0004
  21375637.5144     869743.57649    669128.86147  21375637.0144   21375640.6564
       236.0004        199.0004
  21021227.2964   -1112256.91049   -855231.36247  21021227.4374   21021230.3734
       242.0004        212.0004
  22545289.6634   -1814558.54249  -1378245.08946  22545289.7314   22545292.5424
       223.0004        172.0004
  22412349.7154   -1020458.72149   -784109.19646  22412348.9844   22412352.9454
       230.0004        179.0004
 07  2 18  2 24 45.0000000  0  7G 1G22G19G14G31G25G11
  20760145.7534    -342409.21149   -265139.80747  20760145.2314   20760150.0944
       242.0004        211.0004
  22264667.0474     794168.84649    610977.64746  22264666.8124   22264668.8324
       232.0004        187.0004
  24103441.6174    1056808.82349    811792.56145  24103440.9154   24103445.2744
       212.0004        154.0004
  21377449.5904     879266.05549    676548.97947  21377448.6304   21377452.6534
       236.0004        199.0004
  21019473.5664   -1121472.85249   -862412.61347  21019473.8614   21019476.6914
       241.0004        212.0004
  22542180.2734   -1830898.28449  -1390977.34446  22542179.9544   22542184.6294
       222.0004        172.0004
  22410714.0594   -1029054.16249   -790806.94946  22410714.0364   22410717.3444
       229.0004        179.0004
 07  2 18  2 24 50.0000000  0  7G 1G22G19G14G31G25G11
  20759773.6074    -344364.87649   -266663.70247  20759773.1884   20759777.7554
       243.0004        211.0004
  22266329.8914     802907.03849    617786.62746  22266329.6414   22266331.2914
       231.0004        187.0004
  24105745.3854    1068914.97549    821225.93145  24105745.1504   24105748.7474
       212.0004        154.0004
  21379262.5514     888793.15949    683972.69547  21379262.1354   21379265.2654
       237.0004        199.0004
  21017722.3954   -1130675.30549   -869583.35347  21017722.6834   21017725.5774
       242.0004        211.0004
  22539072.2194   -1847231.23449  -1403704.31446  22539071.5254   22539077.4814
       223.0004        172.0004
  22409080.8184   -1037637.06749   -797494.92246  22409080.7664   22409084.4234
       228.0004        179.0004
 07  2 18  2 24 55.0000000  0  7G 1G22G19G14G31G25G11
  20759403.0534    -346312.18649   -268181.07947  20759402.5854   20759407.3804
       243.0004        211.0004
  22267993.6604     811650.24349    624599.52146  22267993.4294   22267995.1784
       233.0004        187.0004
  24108049.6194    1081023.52149    830661.16245  24108049.7744   24108053.6334
       211.0004        155.0004
  21381076.2694     898324.41549    691399.65447  21381075.8794   21381079.0704
       237.0004        199.0004
  21015973.6974   -1139864.67949   -876743.89947  21015973.9944   21015976.6804
       242.0004        211.0004
  22535965.3694   -1863557.76949  -1416426.27646  22535964.9264   22535970.2674
       223.0004        172.0004
  22407449.8674   -1046207.84949   -804173.44946  22407449.1164   22407453.0034
       229.0004        179.0004
 07  2 18  2 25  0.0000000  0  7G 1G22G19G14G31G25G11
  20759034.3824    -348249.58949   -269690.74547  20759033.8704   20759038.5904
       243.0004        211.0004
  22269658.7074     820400.05049    631417.54646  22269658.8664   22269660.4874
       231.0004        187.0004
  24110354.5514    1093136.00949    840099.46345  24110354.5794   24110358.3064
       210.0004        155.0004
  21382891.1144     907861.39249    698831.06447  21382890.8834   21382894.0924
       236.0004        199.0004
  21014227.8284   -1149039.40349   -883893.03647  21014228.0934   21014230.8874
       242.0004        211.0004
  22532860.0224   -1879876.30149  -1429142.00646  22532859.8864   22532864.2804
       224.0004        172.0004
  22405821.5274   -1054764.94249   -810841.31246  22405821.3634   22405824.5524
       230.0004        179.0004
 07  2 18  2 25  5.0000000  0  7G 1G22G19G14G31G25G11
  20758667.3074    -350178.58049   -271193.85147  20758667.0144   20758671.6244
       243.0004        211.0004
  22271324.7074     829154.99349    638239.57446  22271324.6034   22271326.6614
       232.0004        187.0004
  24112659.9564    1105250.97949    849539.70645  24112659.2034   24112663.6004
       211.0004        156.0004
  21384706.7534     917402.63449    706265.80047  21384706.2764   21384709.7274
       236.0004        199.0004
  21012484.4204   -1158200.95649   -891031.90147  21012484.4704   21012487.5824
       241.0004        211.0004
  22529755.9404   -1896188.36749  -1441852.71346  22529756.5244   22529760.7464
       224.0004        172.0004
  22404195.4924   -1063309.81349   -817499.65946  22404196.4284   22404198.9864
       231.0004        179.0004
 07  2 18  2 25 10.0000000  0  7G 1G22G19G14G31G25G11
  20758301.9294    -352098.61749   -272689.98447  20758301.5974   20758306.4954
       243.0004        211.0004
  22272991.8014     837915.58849    645066.01746  22272991.7494   22272993.8074
       232.0004        187.0004
  24114965.9194    1117368.88849    858982.23945  24114964.4284   24114969.6554
       211.0004        156.0004
  21386523.2824     926948.58149    713704.19947  21386523.0784   21386526.3564
       236.0004        199.0004
  21010743.6494   -1167348.77449   -898160.07247  21010743.7254   21010746.7304
       242.0004        211.0004
  22526653.1884   -1912493.36949  -1454557.89346  22526652.2034   22526657.7034
       222.0004        172.0004
  22402571.9304   -1071841.92749   -824148.06946  22402572.4524   22402575.3764
       230.0004        180.0004
 07  2 18  2 25 15.0000000  0  7G 1G22G19G14G31G25G11
  20757938.3194    -354009.36249   -274178.87547  20757938.1284   20757942.7854
       243.0004        211.0004
  22274660.0584     846682.17149    651897.11646  22274660.3644   22274662.2324
       231.0004        187.0004
  24117272.5314    1129490.11649    868427.35145  24117270.9414   24117275.7974
       211.0004        156.0004
  21388340.7814     936499.64449    721146.57847  21388340.6304   21388343.9044
       236.0004        199.0004
  21009005.5594   -1176482.49949   -905277.25847  21009006.0384   21009008.7224
       241.0004        211.0004
  22523551.8324   -1928790.99149  -1467257.33646  22523551.5104   22523556.7054
       224.0004        172.0004
  22400950.8604   -1080360.92849   -830786.24846  22400950.9644   22400954.1444
       229.0004        180.0004
 07  2 18  2 25 20.0000000  0  7G 1G22G19G14G31G25G11
  20757576.3974    -355911.34849   -275660.93347  20757575.9494   20757580.6274
       243.0004        212.0004
  22276329.3324     855454.23849    658732.49746  22276329.0684   22276331.1074
       231.0004        187.0004
  24119579.6484    1141614.14149    877874.64245  24119578.5934   24119583.1884
       210.0004        156.0004
  21390159.1614     946055.30149    728592.55547  21390158.8714   21390162.1354
       236.0004        199.0004
  21007270.0514   -1185602.66049   -912383.86747  21007270.1494   21007273.2464
       242.0004        211.0004
  22520451.8004   -1945081.63849  -1479951.33646  22520451.8064   22520455.9064
       223.0004        172.0004
  22399332.1484   -1088867.33949   -837414.60246  22399331.4564   22399336.0144
       229.0004        180.0004
 07  2 18  2 25 25.0000000  0  7G 1G22G19G14G31G25G11
  20757216.1384    -357804.57149   -277136.17147  20757215.7194   20757220.4934
       244.0004        212.0004
  22277999.6704     864231.80149    665572.15446  22277999.4824   22278001.8094
       232.0004        187.0004
  24121887.3094    1153740.94849    887324.09845  24121885.8864   24121890.4004
       210.0004        156.0004
  21391978.4334     955615.54249    736042.09247  21391978.1924   21391981.5494
       236.0004        199.0004
  21005537.1454   -1194709.25349   -919479.91147  21005537.3194   21005540.1944
       242.0004        211.0004
  22517353.0744   -1961365.46649  -1492640.03146  22517352.6714   22517357.9414
       225.0004        172.0004
  22397715.8364   -1097361.12349   -844033.13846  22397716.0844   22397719.0094
       232.0004        180.0004
 07  2 18  2 25 30.0000000  0  7G 1G22G19G14G31G25G11
  20756857.6624    -359688.42149   -278604.10047  20756857.2574   20756862.0704
       243.0004        212.0004
  22279671.1454     873015.43549    672416.54946  22279670.9154   22279672.8084
       231.0004        187.0004
  24124195.5934    1165871.14749    896776.19545  24124194.7084   24124198.7894
       209.0004        156.0004
  21393798.6744     965180.95349    743495.66547  21393798.1424   21393801.5774
       236.0004        199.0004
  21003806.9024   -1203801.64649   -926564.88447  21003806.7074   21003809.8714
       241.0004        211.0004
  22514255.8114   -1977641.69449  -1505322.80346  22514255.6354   22514260.7744
       223.0004        172.0004
  22396102.0354   -1105841.65549   -850641.34046  22396101.7914   22396105.3634
       229.0004        180.0004
 07  2 18  2 25 35.0000000  0  7G 1G22G19G14G31G25G11
  20756501.0004    -361562.68649   -280064.57447  20756500.8634   20756505.5064
       243.0004        212.0004
  22281343.8174     881805.38749    679265.84446  22281344.0864   22281345.5644
       231.0004        187.0004
  24126504.5534    1178004.88449    906231.04345  24126503.5894   24126508.2994
       209.0004        155.0004
  21395619.9554     974751.76249    750953.42747  21395619.5614   21395623.1284
       236.0004        199.0004
  21002079.4014   -1212879.63249   -933638.64647  21002079.8734   21002082.4444
       241.0004        211.0004
  22511160.0054   -1993910.22049  -1517999.56846  22511159.4094   22511164.5874
       223.0004        172.0004
  22394490.8134   -1114308.75649   -857239.09246  22394490.3474   22394494.0704
       229.0004        180.0004
 07  2 18  2 25 40.0000000  0  7G 1G22G19G14G31G25G11
  20756145.8654    -363428.82049   -281518.69247  20756145.3704   20756150.1524
       244.0004        212.0004
  22283017.4214     890600.20349    686118.95846  22283017.0184   22283019.7164
       232.0004        187.0004
  24128813.9204    1190140.74349    915687.55145  24128812.6514   24128817.3394
       211.0004        155.0004
  21397441.9624     984326.50949    758414.28347  21397441.5794   21397444.9594
       237.0004        199.0004
  21000354.4024   -1221944.61949   -940702.26147  21000354.5074   21000357.3114
       243.0004        211.0004
  22508065.3964   -2010172.37549  -1530671.36646  22508064.8914   22508069.8824
       224.0004        172.0004
  22392881.8434   -1122763.83749   -863827.44846  22392880.8514   22392884.9564
       230.0004        180.0004
 07  2 18  2 25 45.0000000  0  7G 1G22G19G14G31G25G11
  20755792.5264    -365285.60949   -282965.54747  20755792.5744   20755797.0724
       245.0004        212.0004
  22284692.1694     899401.11849    692976.80446  22284692.5584   22284694.0864
       232.0004        187.0004
  24131123.9424    1202279.93749    925146.66445  24131123.2114   24131127.1244
       212.0004        155.0004
  21399264.9444     993906.40349    765879.12847  21399264.7074   21399268.0044
       238.0004        199.0004
  20998632.0724   -1230995.38349   -947754.80747  20998632.4994   20998635.2334
       242.0004        211.0004
  22504972.2514   -2026427.01349  -1543337.31746  22504972.0224   22504977.5814
       224.0004        172.0004
  22391275.3954   -1131205.68649   -870405.51546  22391274.8934   22391278.9614
       231.0004        180.0004
 07  2 18  2 25 50.0000000  0  7G 1G22G19G14G31G25G11
  20755440.8504    -367133.80549   -284405.69447  20755440.5574   20755445.0324
       243.0004        212.0004
  22286367.9384     908207.38049    699838.82946  22286367.7694   22286370.3584
       231.0004        187.0004
  24133434.4294    1214421.65249    934607.74945  24133433.9214   24133437.3644
       212.0004        155.0004
  21401088.8004    1003490.67549    773347.39747  21401088.1954   21401091.7534
       236.0004        199.0004
  20996912.3214   -1240032.69249   -954796.85947  20996912.6504   20996915.5844
       241.0004        211.0004
  22501880.3544   -2042674.85349  -1555997.96746  22501880.6824   22501885.0474
       223.0004        172.0004
  22389671.3334   -1139635.05449   -876973.86146  22389671.4234   22389674.2184
       229.0004        180.0004
 07  2 18  2 25 55.0000000  0  7G 1G22G19G14G31G25G11
  20755090.8894    -368972.84349   -285838.70647  20755090.7604   20755095.1394
       245.0004        212.0004
  22288044.8364     917019.56449    706705.46746  22288044.3584   22288046.5524
       233.0004        187.0004
  24135745.5364    1226566.48249    944071.25545  24135745.2314   24135748.7184
       211.0004        155.0004
  21402913.5494    1013079.89949    780819.51847  21402912.9124   21402916.7094
       238.0004        199.0004
  20995195.2614   -1249055.93449   -961827.95147  20995195.4994   20995198.3574
       242.0004        211.0004
  22498789.8884   -2058915.24549  -1568652.81246  22498790.3024   22498794.0614
       225.0004        172.0004
  22388069.7384   -1148051.35449   -883532.00246  22388069.0324   22388072.2374
       231.0004        180.0004
 07  2 18  2 26  0.0000000  0  7G 1G22G19G14G31G25G11
  20754742.6394    -370802.96049   -287264.77147  20754742.2814   20754746.8854
       244.0004        212.0004
  22289722.8324     925837.45649    713576.54946  22289722.8664   22289724.5614
       232.0004        187.0004
  24138057.2174    1238714.21649    953537.02345  24138056.9314   24138060.6804
       210.0004        155.0004
  21404739.2084    1022673.83049    788295.31047  21404738.9484   21404742.2204
       237.0004        199.0004
  20993480.8284   -1258065.32249   -968848.25247  20993481.1054   20993483.9984
       242.0004        211.0004
  22495700.8014   -2075148.52149  -1581302.10546  22495700.0114   22495705.0174
       224.0004        172.0004
  22386470.6064   -1156454.75849   -890080.11346  22386470.4794   22386473.9184
       230.0004        180.0004
 07  2 18  2 26  5.0000000  0  7G 1G22G19G14G31G25G11
  20754396.1204    -372623.95749   -288683.72547  20754395.6914   20754400.3904
       245.0004        212.0004
  22291401.9604     934661.23649    720452.22446  22291401.6444   22291403.2844
       233.0004        186.0004
  24140369.4504    1250864.98349    963005.15345  24140369.1704   24140372.9804
       212.0004        155.0004
  21406565.8354    1032272.66149    795774.92447  21406565.2834   21406568.5514
       237.0004        199.0004
  20991769.0824   -1267060.67949   -975857.61747  20991769.3504   20991771.9374
       242.0004        211.0004
  22492613.1604   -2091374.29049  -1593945.55846  22492612.4184   22492617.3144
       226.0004        172.0004
  22384873.9804   -1164845.10449   -896618.04746  22384873.9944   22384877.5084
       231.0004        180.0004
 07  2 18  2 26 10.0000000  0  7G 1G22G19G14G31G25G11
  20754051.2514    -374436.33749   -290095.96847  20754050.7504   20754055.6464
       245.0004        212.0004
  22293082.0934     943490.39049    727332.08846  22293081.8014   22293084.4354
       233.0004        187.0004
  24142682.1574    1263018.29249    972475.27045  24142680.5404   24142685.1354
       211.0004        155.0004
  21408393.2494    1041875.89749    803257.96047  21408392.6384   21408396.1804
       237.0004        199.0004
  20990059.8984   -1276042.50149   -982856.43747  20990060.0844   20990063.0644
       243.0004        211.0004
  22489526.8194   -2107593.13149  -1606583.59746  22489526.8654   22489531.5964
       224.0004        172.0004
  22383279.7714   -1173222.88949   -903146.17946  22383279.4584   22383283.4704
       232.0004        180.0004
 07  2 18  2 26 15.0000000  0  7G 1G22G19G14G31G25G11
  20753708.1594    -376239.32349   -291500.89047  20753707.7574   20753712.4814
       244.0004        212.0004
  22294763.4084     952325.77749    734216.80046  22294763.1574   22294765.2294
       233.0004        186.0004
  24144995.4744    1275174.94449    981947.97845  24144993.4694   24144998.7874
       207.0004        155.0004
  21410221.6514    1051484.21249    810744.95947  21410221.1024   21410224.4194
       237.0004        199.0004
  20988353.4524   -1285009.97249   -989844.07147  20988353.8154   20988356.4854
       241.0004        211.0004
  22486441.9554   -2123804.27449  -1619215.65946  22486441.5804   22486446.1864
       225.0004        172.0004
  22381688.0864   -1181587.28949   -909663.89946  22381688.0404   22381691.1734
       230.0004        180.0004
 07  2 18  2 26 20.0000000  0  7G 1G22G19G14G31G25G11
  20753366.6624    -378033.85749   -292899.22947  20753366.1444   20753370.9434
       244.0004        212.0004
  22296445.7664     961166.56649    741105.72746  22296445.2924   22296447.1304
       232.0004        186.0004
  24147309.2164    1287333.97349    991422.54345  24147307.6574   24147312.0774
       208.0004        154.0004
  21412050.8544    1061096.79949    818235.29047  21412050.3764   21412053.7934
       236.0004        199.0004
  20986649.5354   -1293964.01549   -996821.25047  20986649.8554   20986652.5394
       242.0004        211.0004
  22483358.3744   -2140008.64349  -1631842.44546  22483358.7254   22483362.4194
       226.0004        172.0004
  22380098.7904   -1189939.25149   -916171.92446  22380098.8404   22380101.4054
       231.0004        180.0004
 07  2 18  2 26 25.0000000  0  7G 1G22G19G14G31G25G11
  20753026.8534    -379819.55649   -294290.67447  20753026.2694   20753031.0054
       243.0004        212.0004
  22298129.1694     970013.01249    747999.06646  22298128.6874   22298130.6954
       231.0004        186.0004
  24149623.4714    1299495.74749   1000899.24045  24149622.2044   24149627.0344
       207.0004        154.0004
  21413880.9524    1070714.03349    825729.23847  21413880.2194   21413883.6074
       236.0004        199.0004
  20984948.2874   -1302904.25949  -1003787.66347  20984948.4724   20984951.4494
       241.0004        211.0004
  22480276.1764   -2156205.80649  -1644463.60146  22480276.2294   22480281.7254
       224.0004        172.0004
  22378511.9334   -1198278.37449   -922669.93946  22378511.6194   22378514.2244
       229.0004        180.0004
 07  2 18  2 26 30.0000000  0  7G 1G22G19G14G31G25G11
  20752688.7964    -381596.10849   -295675.00047  20752688.1934   20752693.0274
       245.0004        212.0004
  22299813.7254     978865.36549    754896.99746  22299813.1014   22299815.2894
       232.0004        186.0004
  24151938.3024    1311660.53349   1010378.28645  24151936.6324   24151941.8594
       210.0004        154.0004
  21415711.9884    1080336.18749    833227.02347  21415711.5314   21415714.9304
       238.0004        199.0004
  20983249.7134   -1311830.34849  -1010743.05747  20983249.8484   20983252.7804
       242.0004        211.0004
  22477195.4134   -2172395.47549  -1657078.91246  22477194.5124   22477199.9274
       225.0004        172.0004
  22376927.5474   -1206604.32149   -929157.68546  22376927.4254   22376930.3534
       231.0004        180.0004
 07  2 18  2 26 35.0000000  0  7G 1G22G19G14G31G25G11
  20752352.4774    -383363.46949   -297052.16347  20752352.0364   20752356.8784
       245.0004        212.0004
  22301499.3984     987723.67649    761799.57846  22301498.9244   22301501.3864
       232.0004        186.0004
  24154253.7274    1323828.37849   1019859.71445  24154252.2594   24154256.0334
       210.0004        154.0004
  21417544.0014    1089963.33649    840728.69947  21417543.8634   21417546.6904
       238.0004        199.0004
  20981553.8304   -1320742.26749  -1017687.40447  20981553.9524   20981556.9524
       242.0004        211.0004
  22474116.0754   -2188577.56149  -1669688.31646  22474116.0934   22474120.3164
       225.0004        172.0004
  22375345.6804   -1214917.05049   -935635.13946  22375345.1514   22375349.0404
       231.0004        180.0004
 07  2 18  2 26 40.0000000  0  7G 1G22G19G14G31G25G11
  20752017.7964    -385122.25949   -298422.64547  20752017.1374   20752021.9294
       244.0004        212.0004
  22303186.0704     996587.34349    768706.33346  22303185.7664   22303187.8504
       232.0004        186.0004
  24156569.6284    1335998.68549   1029343.06045  24156568.7854   24156572.4784
       210.0004        154.0004
  21419376.7984    1099594.84649    848233.77447  21419376.1944   21419379.8964
       237.0004        198.0004
  20979860.5234   -1329640.58849  -1024621.15647  20979860.7254   20979863.5914
       241.0004        211.0004
  22471038.0504   -2204752.73449  -1682292.34646  22471037.8544   22471042.2494
       225.0004        172.0004
  22373766.1984   -1223217.18249   -942102.76446  22373765.2754   22373769.8354
       229.0004        180.0004
 07  2 18  2 26 45.0000000  0  7G 1G22G19G14G31G25G11
  20751684.7414    -386872.46749   -299786.43947  20751684.1584   20751689.0624
       244.0004        212.0004
  22304873.7764    1005456.40449    775617.28746  22304873.1484   22304875.3654
       231.0004        186.0004
  24158886.0434    1348171.44649   1038828.32145  24158885.1024   24158889.1194
       211.0004        155.0004
  21421210.4584    1109230.68949    855742.22747  21421209.8454   21421213.2044
       236.0004        198.0004
  20978169.8014   -1338525.31849  -1031544.31547  20978169.8354   20978172.7434
       241.0004        211.0004
  22467961.3774   -2220920.86649  -1694890.88046  22467961.2044   22467965.2654
       224.0004        173.0004
  22372189.1324   -1231504.67849   -948560.55246  22372188.2164   22372192.4134
       230.0004        180.0004
 07  2 18  2 26 50.0000000  0  7G 1G22G19G14G31G25G11
  20751353.5534    -388612.83249   -301142.56647  20751353.2474   20751357.8834
       245.0004        212.0004
  22306562.7834    1014332.11549    782533.42546  22306563.1084   22306564.5224
       233.0004        186.0004
  24161203.1474    1360347.89449   1048316.46745  24161203.0074   24161206.1814
       213.0004        155.0004
  21423045.1564    1118872.14449    863255.05047  21423045.0254   21423048.1744
       238.0004        198.0004
  20976481.9254   -1347395.16849  -1038455.88547  20976482.2444   20976485.0644
       242.0004        211.0004
  22464886.2834   -2237080.69349  -1707482.95146  22464885.8434   22464891.1234
       226.0004        173.0004
  22370614.7214   -1239778.28449   -955007.51546  22370614.8164   22370617.8074
       230.0004        180.0004
 07  2 18  2 26 55.0000000  0  7G 1G22G19G14G31G25G11
  20751023.8914    -390345.17649   -302492.44147  20751023.3554   20751028.1854
       244.0004        212.0004
  22308252.7194    1023212.69349    789453.35046  22308252.4684   22308254.5524
       232.0004        186.0004
  24163520.6314    1372526.20449   1057806.06745  24163520.7034   24163523.1854
       211.0004        155.0004
  21424880.5694    1128517.38849    870770.82747  21424879.6944   21424883.5154
       236.0004        198.0004
  20974796.5384   -1356251.94549  -1045357.26447  20974796.5114   20974799.7604
       241.0004        211.0004
  22461812.3784   -2253234.09549  -1720070.00646  22461811.4714   22461816.3454
       223.0004        173.0004
  22369042.5744   -1248039.85649   -961445.10046  22369041.2954   22369045.2594
       229.0004        180.0004
 07  2 18  2 27  0.0000000  0  7G 1G22G19G14G31G25G11
  20750695.8804    -392068.80649   -303835.52847  20750695.2934   20750700.1864
       244.0004        212.0004
  22309943.6864    1032098.82449    796377.61146  22309943.8074   22309945.5024
       232.0004        186.0004
  24165838.5934    1384707.06749   1067297.65145  24165838.0084   24165841.4954
       212.0004        155.0004
  21426716.8504    1138167.11249    878290.09447  21426716.2834   21426719.8964
       236.0004        198.0004
  20973113.7664   -1365094.93449  -1052247.90147  20973113.7754   20973116.9884
       240.0004        211.0004
  22458739.8464   -2269380.26449  -1732651.42246  22458739.7384   22458745.2584
       225.0004        173.0004
  22367472.8634   -1256288.61249   -967872.70046  22367472.6014   22367475.5164
       229.0004        180.0004
 07  2 18  2 27  5.0000000  0  7G 1G22G19G14G31G25G11
  20750369.8024    -393782.43049   -305170.82047  20750369.3884   20750373.9074
       244.0004        212.0004
  22311635.9594    1040991.79049    803307.18646  22311636.5254   22311637.9944
       233.0004        186.0004
  24168157.2864    1396891.77049   1076792.22745  24168156.6334   24168159.8644
       212.0004        155.0004
  21428554.2164    1147822.59149    885813.84047  21428553.8314   21428556.9154
       237.0004        198.0004
  20971433.8544   -1373922.87449  -1059126.81447  20971434.0084   20971436.9284
       242.0004        211.0004
  22455668.9434   -2285517.94249  -1745226.24146  22455668.5144   22455673.5794
       225.0004        173.0004
  22365905.8574   -1264523.28349   -974289.33146  22365905.2864   22365908.9044
       232.0004        181.0004
 07  2 18  2 27 10.0000000  0  7G 1G22G19G14G31G25G11
  20750045.2924    -395487.70449   -306499.60647  20750044.8634   20750049.5344
       245.0004        212.0004
  22313329.2554    1049889.94949    810240.81946  22313329.1844   22313331.0254
       233.0004        186.0004
  24170476.3904    1409078.65249   1086288.50245  24170475.4084   24170479.1844
       212.0004        155.0004
  21430392.4054    1157482.18749    893340.79847  21430392.1584   21430395.4274
       237.0004        198.0004
  20969756.5034   -1382737.39649  -1065995.27047  20969756.6104   20969759.5144
       241.0004        211.0004
  22452599.3084   -2301648.83149  -1757795.75046  22452599.0894   22452603.2624
       225.0004        173.0004
  22364341.1994   -1272745.53749   -980696.28646  22364341.3594   22364345.3234
       232.0004        181.0004
 07  2 18  2 27 15.0000000  0  7G 1G22G19G14G31G25G11
  20749722.4274    -397184.35549   -307821.66247  20749721.8074   20749726.5774
       244.0004        212.0004
  22315023.5584    1058793.61149    817178.74746  22315023.3714   22315025.0414
       232.0004        186.0004
  24172795.9424    1421267.97549   1095786.67945  24172794.4834   24172798.9084
       210.0004        155.0004
  21432231.3774    1167146.13649    900871.15247  21432230.9654   21432234.3034
       237.0004        198.0004
  20968081.7694   -1391538.14549  -1072852.98447  20968081.9394   20968084.6324
       241.0004        211.0004
  22449531.0704   -2317772.52349  -1770359.66046  22449531.0134   22449534.7484
       224.0004        173.0004
  22362779.0104   -1280955.05349   -987093.29746  22362778.0614   22362782.3174
       229.0004        181.0004
 07  2 18  2 27 20.0000000  0  7G 1G22G19G14G31G25G11
  20749401.1824    -398872.47249   -309137.07847  20749400.8494   20749405.5984
       243.0004        212.0004
  22316718.9024    1067702.66249    824120.86146  22316718.7874   22316720.5724
       231.0004        187.0004
  24175115.9284    1433459.67749   1105286.70545  24175114.4574   24175119.1464
       210.0004        155.0004
  21434071.2084    1176814.34349    908404.82047  21434071.0314   21434074.0034
       236.0004        198.0004
  20966409.6364   -1400325.22649  -1079700.06247  20966409.8464   20966412.8104
       240.0004        211.0004
  22446464.1484   -2333889.23249  -1782918.12546  22446463.4174   22446468.6264
       223.0004        173.0004
  22361219.2084   -1289151.86149   -993480.42046  22361219.1404   22361222.7694
       229.0004        181.0004
 07  2 18  2 27 25.0000000  0  7G 1G22G19G14G31G25G11
  20749081.8174    -400550.80749   -310444.86947  20749081.6004   20749086.0814
       245.0004        212.0004
  22318415.5114    1076618.37849    831068.16746  22318415.0434   22318417.2664
       233.0004        187.0004
  24177436.6104    1445654.94249   1114789.50645  24177435.6004   24177440.2084
       211.0004        155.0004
  21435912.0714    1186488.07749    915942.79747  21435911.6074   21435914.8554
       237.0004        198.0004
  20964740.3444   -1409097.38049  -1086535.50247  20964740.5424   20964743.4864
       241.0004        211.0004
  22443398.7924   -2349997.61849  -1795470.11146  22443399.2084   22443403.0544
       225.0004        173.0004
  22359662.0774   -1297334.72849   -999856.67246  22359661.6584   22359665.2714
       231.0004        181.0004
 07  2 18  2 27 30.0000000  0  7G 1G22G19G14G31G25G11
  20748764.0254    -402220.84849   -311746.19747  20748763.5204   20748768.1514
       245.0004        212.0004
  22320113.0764    1085539.24949    838019.49946  22320112.7674   22320115.0624
       233.0004        187.0004
  24179757.6774    1457852.29449   1124293.93545  24179756.6534   24179761.2424
       212.0004        154.0004
  21437753.7104    1196165.85249    923483.92647  21437753.0224   21437756.2674
       238.0004        198.0004
  20963073.5914   -1417856.10249  -1093360.47647  20963073.6664   20963076.6794
       242.0004        211.0004
  22440334.8184   -2366099.05549  -1808016.67146  22440335.6894   22440339.6934
       225.0004        173.0004
  22358107.2754   -1305505.12949  -1006223.21646  22358106.9354   22358110.8814
       232.0004        181.0004
 07  2 18  2 27 35.0000000  0  7G 1G22G19G14G31G25G11
  20748447.8894    -403882.19749   -313040.74847  20748447.2094   20748452.1694
       245.0004        212.0004
  22321811.7224    1094465.70549    844975.18046  22321811.0024   22321813.6294
       233.0004        186.0004
  24182079.2284    1470052.14949   1133800.31345  24182077.4364   24182082.4554
       211.0004        154.0004
  21439596.1964    1205848.05949    931028.50447  21439595.3374   21439598.9484
       238.0004        198.0004
  20961409.4944   -1426600.99149  -1100174.66447  20961409.3084   20961412.5314
       242.0004        211.0004
  22437272.2154   -2382193.23149  -1820557.57746  22437272.1704   22437277.3524
       226.0004        173.0004
  22356554.9494   -1313662.70149  -1012579.76846  22356555.2694   22356558.1574
       232.0004        181.0004
 07  2 18  2 27 40.0000000  0  7G 1G22G19G14G31G25G11
  20748133.5034    -405534.26349   -314328.07947  20748133.0264   20748137.6874
       245.0004        212.0004
  22323511.5354    1103398.31949    851935.65246  22323511.7844   22323512.6434
       234.0004        186.0004
  24184401.3394    1482255.02949   1143309.04845  24184399.9284   24184404.4124
       210.0004        154.0004
  21441439.6224    1215535.28849    938576.98947  21441439.2114   21441442.6144
       237.0004        198.0004
  20959748.1434   -1435331.38249  -1106977.57147  20959748.3084   20959751.1854
       241.0004        211.0004
  22434211.1054   -2398279.45649  -1833092.29446  22434210.8394   22434215.7704
       225.0004        174.0004
  22355005.2044   -1321806.83349  -1018925.85146  22355005.1924   22355007.9184
       232.0004        181.0004
 07  2 18  2 27 45.0000000  0  7G 1G22G19G14G31G25G11
  20747820.7274    -407177.86649   -315608.80147  20747820.2834   20747824.9934
       244.0004        212.0004
  22325212.3734    1112336.29949    858900.31946  22325211.7874   22325214.0754
       231.0004        187.0004
  24186723.8764    1494460.12349   1152819.50645  24186722.7804   24186727.9434
       208.0004        154.0004
  21443283.8494    1225226.70249    946128.74247  21443283.4444   21443286.6424
       236.0004        198.0004
  20958089.3984   -1444048.12949  -1113769.83347  20958089.5574   20958092.6784
       240.0004        211.0004
  22431151.3484   -2414358.67749  -1845621.54546  22431151.3974   22431155.5104
       224.0004        174.0004
  22353457.8464   -1329938.29149  -1025262.05146  22353457.9334   22353460.5004
       230.0004        181.0004
 07  2 18  2 27 50.0000000  0  7G 1G22G19G14G31G25G11
  20747509.6114    -408812.74449   -316882.73047  20747508.8584   20747513.8024
       245.0004        212.0004
  22326914.3024    1121279.93549    865869.37946  22326914.0694   22326915.9344
       233.0004        186.0004
  24189046.8614    1506667.72249   1162331.91845  24189045.6924   24189050.8084
       210.0004        154.0004
  21445128.9054    1234922.57749    953683.97147  21445128.4564   21445131.8054
       238.0004        198.0004
  20956433.3084   -1452750.97149  -1120551.26347  20956433.2634   20956436.4704
       242.0004        211.0004
  22428093.0034   -2430430.48149  -1858145.02046  22428092.7944   22428097.7984
       226.0004        174.0004
  22351912.9664   -1338056.83149  -1031588.17446  22351912.5034   22351915.9604
       232.0004        181.0004
 07  2 18  2 27 55.0000000  0  7G 1G22G19G14G31G25G11
  20747200.2324    -410438.49749   -318149.54747  20747199.6534   20747204.4334
       243.0004        212.0004
  22328617.3604    1130229.60149    872843.14246  22328617.6404   22328619.3794
       232.0004        186.0004
  24191370.3984    1518878.17949   1171846.56045  24191369.1144   24191374.3804
       208.0004        154.0004
  21446974.8874    1244623.31749    961242.99147  21446974.1594   21446978.0464
       236.0004        198.0004
  20954779.9264   -1461439.45549  -1127321.51047  20954780.1484   20954783.1784
       240.0004        211.0004
  22425036.1254   -2446494.50449  -1870662.42846  22425035.3614   22425041.5494
       225.0004        174.0004
  22350370.6214   -1346162.01349  -1037903.90746  22350370.2214   22350374.2544
       230.0004        182.0004
 07  2 18  2 28  0.0000000  0  7G 1G22G19G14G31G25G11
  20746892.6744    -412054.80249   -319409.00947  20746892.0954   20746896.7264
       244.0004        212.0004
  22330321.6624    1139185.64749    879821.88046  22330321.2704   22330323.0564
       233.0004        187.0004
  24193694.5164    1531091.80349   1181363.66545  24193693.6444   24193699.1834
       211.0004        154.0004
  21448821.8414    1254329.23749    968806.04147  21448821.3004   21448825.0594
       237.0004        198.0004
  20953129.3514   -1470113.25949  -1134080.31947  20953129.6704   20953132.5684
       241.0004        211.0004
  22421980.7664   -2462550.57449  -1883173.65446  22421981.0764   22421985.3214
       226.0004        175.0004
  22348830.8574   -1354253.51749  -1044208.97646  22348831.1764   22348834.1634
       232.0004        182.0004
 07  2 18  2 28  5.0000000  0  7G 1G22G19G14G31G25G11
  20746586.5734    -413663.25649   -320662.34447  20746586.1274   20746590.8294
       244.0004        212.0004
  22332026.8394    1148146.48349    886804.34846  22332026.9094   22332028.8464
       232.0004        187.0004
  24196019.0274    1543307.03549   1190882.02245  24196018.8054   24196022.3284
       211.0004        154.0004
  21450669.4914    1264038.71749    976371.87647  21450668.9814   21450672.8644
       237.0004        198.0004
  20951481.2754   -1478774.01449  -1140828.95047  20951481.3514   20951484.6084
       241.0004        211.0004
  22418926.6984   -2478600.05449  -1895679.72646  22418926.8804   22418931.7554
       225.0004        175.0004
  22347293.3854   -1362332.97149  -1050504.64846  22347293.5414   22347297.3624
       231.0004        182.0004
 07  2 18  2 28 10.0000000  0  7G 1G22G19G14G31G25G11
  20746282.2924    -415262.19949   -321908.27147  20746281.9584   20746286.6084
       244.0004        212.0004
  22333733.2524    1157113.74549    893791.82746  22333733.2384   22333734.7344
       233.0004        187.0004
  24198344.1284    1555525.48349   1200402.88345  24198343.3654   24198347.5964
       210.0004        154.0004
  21452518.1244    1273753.41249    983941.76747  21452517.4714   21452521.1224
       236.0004        198.0004
  20949836.0144   -1487420.02049  -1147566.09147  20949836.1204   20949839.4374
       241.0004        211.0004
  22415874.1754   -2494641.24149  -1908179.33946  22415874.0334   22415879.0494
       225.0004        175.0004
  22345758.5614   -1370398.69749  -1056789.61646  22345758.6634   22345761.9884
       230.0004        182.0004
 07  2 18  2 28 15.0000000  0  7G 1G22G19G14G31G25G11
  20745979.5664    -416853.10649   -323147.93947  20745979.2274   20745983.7504
       244.0004        212.0004
  22335440.6114    1166085.96549    900783.17246  22335440.2264   22335442.6754
       232.0004        187.0004
  24200669.5754    1567745.66849   1209925.10645  24200668.7964   24200672.6254
       209.0004        154.0004
  21454367.4654    1283471.87449    991514.59847  21454366.6514   21454370.4994
       235.0004        198.0004
  20948193.2584   -1496052.70449  -1154292.85747  20948193.4074   20948196.4354
       240.0004        211.0004
  22412822.8974   -2510675.76049  -1920673.76846  22412822.8064   22412827.6254
       226.0004        175.0004
  22344226.0294   -1378452.12149  -1063065.02346  22344225.9144   22344229.8964
       231.0004        182.0004
 07  2 18  2 28 20.0000000  0  7G 1G22G19G14G31G25G11
  20745678.6294    -418434.60149   -324380.27047  20745678.2664   20745682.8184
       243.0004        212.0004
  22337149.1864    1175064.54949    907779.46346  22337149.2534   22337150.9074
       231.0004        187.0004
  24202995.6114    1579968.94749   1219449.73845  24202994.4064   24202998.7154
       209.0004        154.0004
  21456217.7924    1293195.43649    999091.39747  21456217.5104   21456220.9884
       236.0004        198.0004
  20946553.3094   -1504670.71649  -1161008.18947  20946553.5134   20946556.7874
       240.0004        211.0004
  22409773.1954   -2526702.14149  -1933161.85046  22409773.2574   22409777.3534
       224.0004        176.0004
  22342696.1184   -1386491.88649  -1069329.77846  22342696.6734   22342698.9364
       231.0004        182.0004
 07  2 18  2 28 25.0000000  0  7G 1G22G19G14G31G25G11
  20745379.3134    -420007.38249   -325605.81347  20745378.8034   20745383.4944
       244.0004        212.0004
  22338858.8174    1184048.82749    914780.20546  22338858.6704   22338860.1524
       232.0004        187.0004
  24205322.0824    1592194.62649   1228976.23645  24205321.4254   24205325.6354
       207.0004        154.0004
  21458068.9724    1302923.41549   1006671.64247  21458068.6084   21458072.2304
       236.0004        198.0004
  20944915.9894   -1513274.71149  -1167712.59847  20944916.0764   20944919.4514
       241.0004        211.0004
  22406724.8794   -2542721.09949  -1945644.13846  22406724.3684   22406730.1844
       224.0004        176.0004
  22341168.6764   -1394518.64749  -1075584.39346  22341168.9914   22341171.6164
       232.0004        182.0004
 07  2 18  2 28 30.0000000  0  7G 1G22G19G14G31G25G11
  20745081.6814    -421571.45649   -326824.56747  20745081.3194   20745085.8304
       244.0004        212.0004
  22340569.5434    1193038.77649    921785.34846  22340569.6154   22340571.3854
       231.0004        187.0004
  24207649.0394    1604422.71849   1238504.62045  24207648.1744   24207652.3634
       208.0004        153.0004
  21459920.9884    1312655.84449   1014255.35347  21459920.6964   21459923.7944
       237.0004        198.0004
  20943281.3534   -1521864.70549  -1174406.09447  20943281.7584   20943284.7594
       241.0004        211.0004
  22403678.0074   -2558732.50349  -1958120.54946  22403677.9964   22403682.8654
       225.0004        176.0004
  22339643.7164   -1402532.38349  -1081828.86246  22339643.7664   22339647.3344
       233.0004        182.0004
 07  2 18  2 28 35.0000000  0  7G 1G22G19G14G31G25G11
  20744785.7084    -423126.85249   -328036.56347  20744785.3344   20744790.1014
       244.0004        212.0004
  22342281.3504    1202034.37649    928794.90946  22342281.6104   22342283.0694
       230.0004        187.0004
  24209976.4154    1616653.13549   1248034.80945  24209975.3734   24209979.1694
       206.0004        153.0004
  21461773.8304    1322392.65049   1021842.47547  21461773.4734   21461777.1864
       236.0004        198.0004
  20941649.4104   -1530440.72549  -1181088.70647  20941649.8084   20941652.9534
       240.0004        211.0004
  22400632.5364   -2574736.51049  -1970591.19046  22400632.3454   22400637.4094
       224.0004        176.0004
  22338121.2424   -1410533.13249  -1088063.21046  22338121.7204   22338124.6184
       232.0004        182.0004
 07  2 18  2 28 40.0000000  0  7G 1G22G19G14G31G25G11
  20744491.3724    -424673.59049   -329241.80547  20744490.6684   20744495.5614
       244.0004        212.0004
  22343994.2124    1211035.62349    935808.87046  22343994.3254   22343996.1194
       232.0004        187.0004
  24212304.1894    1628885.89649   1257566.82345  24212302.5724   24212307.3674
       206.0004        152.0004
  21463627.5344    1332133.82949   1029433.01147  21463626.9104   21463630.7614
       236.0004        198.0004
  20940020.0884   -1539002.78049  -1187760.42747  20940020.1964   20940023.2294
       241.0004        211.0004
  22397588.4494   -2590733.14449  -1983056.09246  22397588.2524   22397593.4954
       227.0004        177.0004
  22336601.2624   -1418520.90249  -1094287.43446  22336600.7234   22336604.2844
       231.0004        182.0004
 07  2 18  2 28 45.0000000  0  7G 1G22G19G14G31G25G11
  20744198.8004    -426211.13849   -330439.89547  20744198.2804   20744203.1284
       243.0004        212.0004
  22345708.2724    1220043.01049    942827.60546  22345707.7884   22345709.9494
       231.0004        187.0004
  24214632.5324    1641121.49849   1267101.05345  24214630.8504   24214635.9804
       206.0004        152.0004
  21465482.1564    1341879.93049   1037027.37447  21465481.6664   21465485.1384
       235.0004        198.0004
  20938393.5374   -1547550.28549  -1194420.82147  20938393.8224   20938397.0884
       240.0004        211.0004
  22394545.9614   -2606721.66949  -1995514.67146  22394545.6894   22394550.5554
       227.0004        177.0004
  22335083.8354   -1426495.15949  -1100501.14346  22335083.4434   22335086.7174
       230.0004        182.0004
 07  2 18  2 28 50.0000000  0  7G 1G22G19G14G31G25G11
  20743907.8044    -427740.34149   -331631.47947  20743907.1224   20743912.0724
       244.0004        212.0004
  22347423.3374    1229055.75249    949850.52846  22347422.9614   22347425.2264
       231.0004        187.0004
  24216961.2524    1653359.05949   1276636.81045  24216960.0274   24216965.4904
       207.0004        152.0004
  21467337.5404    1351630.05449   1044624.87147  21467336.8424   21467340.6684
       236.0004        198.0004
  20936769.5804   -1556084.10549  -1201070.54347  20936769.6964   20936772.9414
       241.0004        211.0004
  22391504.7894   -2622703.03849  -2007967.68346  22391505.1344   22391509.4804
       225.0004        177.0004
  22333568.8174   -1434456.71249  -1106704.94946  22333568.4424   22333571.2944
       231.0004        182.0004
 07  2 18  2 28 55.0000000  0  7G 1G22G19G14G31G25G11
  20743618.4874    -429260.63349   -332816.12747  20743618.1824   20743622.7844
       244.0004        212.0004
  22349139.5324    1238074.38849    956878.02246  22349139.5134   22349141.6864
       230.0004        187.0004
  24219290.4504    1665599.20649   1286174.59145  24219288.9654   24219294.1284
       206.0004        152.0004
  21469193.8174    1361384.80749   1052225.97647  21469193.3374   21469196.9554
       236.0004        197.0004
  20935148.3754   -1564603.62549  -1207709.13647  20935148.8084   20935151.7204
       240.0004        211.0004
  22388465.1394   -2638676.60949  -2020414.61746  22388465.4184   22388469.5514
       225.0004        177.0004
  22332056.3024   -1442405.01449  -1112898.43046  22332056.3194   22332058.7944
       231.0004        182.0004
 07  2 18  2 29  0.0000000  0  7G 1G22G19G14G31G25G11
  20743330.8874    -430771.97549   -333993.78847  20743330.3814   20743335.3614
       243.0004        212.0004
  22350856.8384    1247098.97149    963910.16446  22350857.2044   22350858.7384
       231.0004        187.0004
  24221620.1454    1677841.92549   1295714.36645  24221619.2824   24221624.4164
       208.0004        152.0004
  21471050.9964    1371144.21249   1059830.70847  21471050.3114   21471053.9014
       236.0004        197.0004
  20933529.8854   -1573108.81149  -1214336.54347  20933530.2594   20933533.4134
       241.0004        211.0004
  22385426.9564   -2654642.37849  -2032855.46246  22385427.1414   22385431.8264
       226.0004        177.0004
  22330546.2904   -1450339.98249  -1119081.51946  22330546.0554   22330549.4264
       230.0004        182.0004
 07  2 18  2 29  5.0000000  0  7G 1G22G19G14G31G25G11
  20743045.0084    -432274.15849   -335164.32247  20743044.6494   20743049.4444
       243.0004        212.0004
  22352575.3274    1256129.68449    970947.08846  22352575.5544   22352577.3454
       232.0004        187.0004
  24223950.3514    1690087.43649   1305256.31845  24223949.4194   24223954.6484
       208.0004        152.0004
  21472909.0684    1380908.45149   1067439.20547  21472908.9344   21472912.1884
       236.0004        197.0004
  20931914.1944   -1581599.44549  -1220952.62747  20931914.8274   20931917.6434
       240.0004        211.0004
  22382390.3194   -2670600.10149  -2045290.04846  22382390.6934   22382394.6704
       227.0004        177.0004
  22329038.8964   -1458261.41249  -1125254.06646  22329038.4884   22329042.0624
       232.0004        182.0004
 07  2 18  2 29 10.0000000  0  7G 1G22G19G14G31G25G11
  20742760.6484    -433768.58649   -336328.80247  20742760.0564   20742764.8014
       245.0004        212.0004
  22354294.7234    1265165.16049    977987.72546  22354294.8044   22354296.8604
       232.0004        187.0004
  24226280.8504    1702334.31449   1314799.34345  24226279.7364   24226284.4414
       209.0004        152.0004
  21474767.7914    1390676.15849   1075050.41647  21474767.4984   21474770.6764
       236.0004        197.0004
  20930300.9674   -1590076.92749  -1227558.44147  20930301.3444   20930304.2854
       242.0004        211.0004
  22379354.9364   -2686551.18149  -2057719.45246  22379354.9354   22379359.0604
       227.0004        177.0004
  22327533.7864   -1466170.69549  -1131417.13646  22327533.7404   22327536.9094
       233.0004        182.0004
 07  2 18  2 29 15.0000000  0  7G 1G22G19G14G31G25G11
  20742478.1524    -435253.04049   -337485.52247  20742477.5024   20742482.3374
       244.0004        212.0004
  22356015.4644    1274207.65849    985033.82346  22356015.1934   22356017.2994
       232.0004        187.0004
  24228612.0244    1714584.78649   1324345.16045  24228611.0424   24228615.6804
       208.0004        152.0004
  21476627.5974    1400449.53349   1082666.03047  21476627.1104   21476630.6494
       236.0004        197.0004
  20928690.7084   -1598539.00949  -1234152.27247  20928690.9194   20928694.1564
       241.0004        211.0004
  22376321.2404   -2702493.38249  -2070141.93246  22376321.2154   22376324.7624
       227.0004        177.0004
  22326031.4444   -1474065.60149  -1137569.01346  22326031.3604   22326034.5064
       233.0004        182.0004
 07  2 18  2 29 20.0000000  0  7G 1G22G19G14G31G25G11
  20742197.0194    -436730.40349   -338636.71047  20742196.4164   20742201.4474
       243.0004        212.0004
  22357736.9894    1283254.27949    992083.13746  22357736.9614   22357739.2394
       231.0004        187.0004
  24230943.3584    1726835.94149   1333891.51045  24230943.1874   24230947.2494
       206.0004        152.0004
  21478487.9574    1410225.70949   1090283.83247  21478487.7424   21478491.2904
       236.0004        197.0004
  20927082.8044   -1606988.59249  -1240736.35747  20927083.0124   20927086.1384
       241.0004        212.0004
  22373288.6884   -2718429.59649  -2082559.75046  22373288.3654   22373293.0924
       226.0004        177.0004
  22324531.2824   -1481949.00349  -1143711.91946  22324531.9784   22324534.6554
       232.0004        182.0004
 07  2 18  2 29 25.0000000  0  7G 1G22G19G14G31G25G11
  20741917.8034    -438197.60649   -339779.97947  20741917.1604   20741922.2254
       244.0004        212.0004
  22359459.8944    1292308.09249    999138.05646  22359459.8984   22359461.8544
       231.0004        187.0004
  24233275.3994    1739090.85849   1343440.79645  24233274.6134   24233279.3574
       207.0004        152.0004
  21480349.3974    1420007.68949   1097906.15947  21480348.8844   21480352.6134
       236.0004        197.0004
  20925477.8644   -1615422.55949  -1247308.27547  20925478.1934   20925481.2694
       241.0004        212.0004
  22370257.8994   -2734356.66149  -2094970.44446  22370257.8834   22370261.8734
       226.0004        177.0004
  22323033.9424   -1489817.82749  -1149843.46946  22323033.9454   22323036.2204
       231.0004        182.0004
 07  2 18  2 29 30.0000000  0  7G 1G22G19G14G31G25G11
  20741640.2054    -439656.28149   -340916.61247  20741639.9114   20741644.5244
       245.0004        212.0004
  22361183.8394    1301367.48649   1006197.32246  22361183.9444   22361185.8834
       231.0004        186.0004
  24235607.8144    1751347.79249   1352991.65145  24235607.5984   24235611.8184
       207.0004        152.0004
  21482211.6354    1429793.89249   1105531.76747  21482211.0754   21482214.8604
       236.0004        197.0004
  20923875.6034   -1623842.56149  -1253869.31747  20923876.0724   20923879.2594
       242.0004        212.0004
  22367228.5114   -2750276.24749  -2107375.31046  22367228.0304   22367233.2394
       227.0004        177.0004
  22321539.0334   -1497673.66149  -1155964.90846  22321539.3004   22321541.5894
       231.0004        182.0004
 07  2 18  2 29 35.0000000  0  7G 1G22G19G14G31G25G11
  20741364.1304    -441107.02449   -342047.05647  20741363.6234   20741368.3504
       244.0004        212.0004
  22362908.7354    1310431.84449   1013260.45646  22362908.2014   22362910.3304
       232.0004        186.0004
  24237940.4954    1763606.26249   1362543.69745  24237939.7434   24237943.6624
       207.0004        151.0004
  21484074.5444    1439583.70749   1113160.20147  21484073.7454   21484077.4994
       236.0004        197.0004
  20922275.8944   -1632249.17549  -1260419.91847  20922276.0804   20922279.0354
       241.0004        212.0004
  22364200.4334   -2766188.93449  -2119774.79546  22364200.3664   22364204.8394
       228.0004        177.0004
  22320046.4934   -1505517.15049  -1162076.70246  22320045.8544   22320049.3714
       232.0004        182.0004
 07  2 18  2 29 40.0000000  0  7G 1G22G19G14G31G25G11
  20741089.9264    -442548.07149   -343169.95147  20741089.7024   20741094.3344
       244.0004        212.0004
  22364634.8964    1319502.92249   1020328.82546  22364635.0654   22364637.1654
       231.0004        186.0004
  24240273.8344    1775868.01249   1372098.29945  24240272.0694   24240277.3104
       206.0004        151.0004
  21485938.5254    1449378.88849   1120792.80747  21485938.3044   21485942.1114
       236.0004        197.0004
  20920679.0514   -1640640.62549  -1266958.71147  20920679.4454   20920682.4904
       241.0004        212.0004
  22361174.0054   -2782092.90249  -2132167.49246  22361174.4414   22361178.1964
       227.0004        177.0004
  22318556.6234   -1513346.48349  -1168177.48446  22318556.1854   22318559.7594
       231.0004        182.0004
 07  2 18  2 29 45.0000000  0  7G 1G22G19G14G31G25G11
  20740817.2864    -443980.74549   -344286.31247  20740816.8914   20740821.6164
       245.0004        212.0004
  22366362.1034    1328579.41149   1027401.41946  22366361.8704   22366364.2354
       233.0004        186.0004
  24242607.5054    1788131.71249   1381654.43145  24242606.6134   24242611.2514
       208.0004        151.0004
  21487803.2364    1459178.10949   1128428.56947  21487802.8644   21487806.0424
       236.0004        197.0004
  20919084.8434   -1649018.21549  -1273486.69347  20919084.9994   20919088.2554
       242.0004        212.0004
  22358148.9734   -2797989.52649  -2144554.45446  22358148.8164   22358152.2464
       228.0004        177.0004
  22317069.1774   -1521162.94349  -1174268.23046  22317068.7654   22317071.6994
       232.0004        182.0004
 07  2 18  2 29 50.0000000  0  7G 1G22G19G14G31G25G11
  20740546.2804    -445405.01249   -345396.13347  20740545.9994   20740550.6204
       244.0004        212.0004
  22368090.3364    1337661.37749   1034478.27046  22368090.0834   22368092.3264
       230.0004        186.0004
  24244941.5944    1800397.35149   1391212.06545  24244940.7674   24244945.0724
       207.0004        151.0004
  21489668.7524    1468981.41849   1136067.50947  21489668.0824   21489671.8204
       236.0004        197.0004
  20917493.2904   -1657381.90049  -1280003.85047  20917493.5514   20917496.7734
       241.0004        212.0004
  22355125.3644   -2813878.71749  -2156935.64446  22355125.2294   22355128.6794
       229.0004        177.0004
  22315584.1894   -1528966.50749  -1180348.91846  22315583.8634   22315586.5784
       231.0004        182.0004
 07  2 18  2 29 55.0000000  0  7G 1G22G19G14G31G25G11
  20740276.9224    -446820.52849   -346499.13247  20740276.6054   20740281.3704
       244.0004        212.0004
  22369819.6814    1346749.15649   1041559.65846  22369819.2564   22369821.0404
       231.0004        186.0004
  24247276.0934    1812665.30749   1400771.50745  24247275.1914   24247279.5514
       207.0004        151.0004
  21491535.0864    1478789.11249   1143709.86547  21491534.7104   21491538.2354
       236.0004        197.0004
  20915904.4444   -1665731.29749  -1286509.87047  20915904.7104   20915907.6454
       241.0004        212.0004
  22352103.2474   -2829760.07149  -2169310.72346  22352103.6514   22352107.9944
       227.0004        177.0004
  22314101.7314   -1536756.84349  -1186419.31046  22314101.9294   22314104.2744
       232.0004        182.0004
 07  2 18  2 30  0.0000000  0  7G 1G22G19G14G31G25G11
  20740009.3914    -448226.44249   -347594.64547  20740008.9814   20740013.5634
       245.0004        212.0004
  22371550.3094    1355843.61149   1048646.24546  22371550.2884   22371552.3514
       232.0004        186.0004
  24249611.2204    1824936.38149   1410333.38345  24249610.0044   24249614.9104
       209.0004        151.0004
  21493402.4524    1488602.07349   1151356.33347  21493401.9674   21493405.2304
       237.0004        197.0004
  20914318.4864   -1674065.55449  -1293004.09247  20914318.6884   20914321.8324
       242.0004        212.0004
  22349082.7794   -2845632.77949  -2181679.04846  22349081.7434   22349086.9574
       228.0004        178.0004
  22312621.9714   -1544533.05549  -1192478.70146  22312621.9134   22312624.7244
       233.0004        182.0004
 07  2 18  2 30  5.0000000  0  7G 1G22G19G14G31G25G11
  20739743.3534    -449624.49749   -348684.03747  20739742.8854   20739747.6104
       244.0004        212.0004
  22373281.8474    1364942.99949   1055736.67346  22373281.5894   22373283.6454
       231.0004        186.0004
  24251946.6114    1837208.85349   1419896.34845  24251946.1674   24251949.7184
       210.0004        151.0004
  21495270.4694    1498418.58049   1159005.55747  21495270.0644   21495273.2764
       235.0004        197.0004
  20912735.0724   -1682386.41449  -1299487.87847  20912735.2754   20912738.5084
       241.0004        212.0004
  22346063.6184   -2861498.54449  -2194041.98246  22346063.4324   22346068.0304
       228.0004        178.0004
  22311144.5984   -1552296.88449  -1198528.43546  22311144.6864   22311148.1454
       231.0004        182.0004
 07  2 18  2 30 10.0000000  0  7G 1G22G19G14G31G25G11
  20739478.9274    -451014.09849   -349766.84447  20739478.5884   20739483.3524
       244.0004        212.0004
  22375014.4474    1374047.92549   1062831.42146  22375014.5104   22375016.5164
       230.0004        186.0004
  24254282.3434    1849483.27349   1429460.82945  24254282.0904   24254284.8114
       212.0004        151.0004
  21497139.2564    1508239.19149   1166657.98547  21497139.1504   21497142.3634
       234.0004        197.0004
  20911154.3254   -1690693.25249  -1305960.73647  20911154.4994   20911157.5224
       241.0004        212.0004
  22343045.9014   -2877356.78549  -2206399.05046  22343046.1114   22343049.6074
       226.0004        178.0004
  22309669.6524   -1560047.73349  -1204568.04846  22309669.7674   22309673.0684
       230.0004        182.0004
 07  2 18  2 30 15.0000000  0  7G 1G22G19G14G31G25G11
  20739216.2344    -452394.61049   -350842.56247  20739215.9404   20739220.5324
       245.0004        212.0004
  22376748.2254    1383159.03849   1069930.99246  22376748.3004   22376750.1844
       231.0004        186.0004
  24256618.5884    1861760.27049   1439027.31745  24256618.1634   24256621.4854
       212.0004        151.0004
  21499008.9554    1518064.53449   1174314.09247  21499008.3564   21499012.0274
       236.0004        196.0004
  20909576.3574   -1698985.43449  -1312422.17647  20909576.8714   20909579.7714
       242.0004        212.0004
  22340029.7404   -2893206.80149  -2218749.70046  22340029.6594   22340033.3714
       228.0004        178.0004
  22308197.3294   -1567784.93249  -1210597.03846  22308197.3364   22308201.0324
       232.0004        182.0004
 07  2 18  2 30 20.0000000  0  7G 1G22G19G14G31G25G11
  20738955.1064    -453766.72149   -351911.73447  20738954.5214   20738959.2404
       245.0004        212.0004
  22378483.0584    1392275.65349   1077034.84946  22378482.4494   22378484.9254
       231.0004        186.0004
  24258955.2284    1874039.14849   1448595.28345  24258954.6254   24258957.8854
       210.0004        151.0004
  21500879.4234    1527893.93949   1181973.37647  21500878.9414   21500882.5524
       236.0004        196.0004
  20908001.0594   -1707263.68549  -1318872.74747  20908001.2224   20908004.4264
       243.0004        212.0004
  22337015.0264   -2909049.34349  -2231094.52646  22337014.7964   22337019.0124
       228.0004        178.0004
  22306727.4594   -1575509.19349  -1216615.92946  22306726.6154   22306730.5754
       232.0004        182.0004
 07  2 18  2 30 25.0000000  0  7G 1G22G19G14G31G25G11
  20738695.7014    -455130.00949   -352974.03247  20738694.9904   20738699.8964
       244.0004        212.0004
  22380219.0064    1401398.18749   1084143.31346  22380219.1474   22380221.0974
       232.0004        186.0004
  24261292.2494    1886320.28049   1458165.00645  24261291.9274   24261295.2434
       208.0004        151.0004
  21502750.7354    1537727.83649   1189636.15547  21502750.1264   21502753.9974
       235.0004        196.0004
  20906428.5254   -1715527.53049  -1325312.10447  20906428.6614   20906431.8274
       241.0004        212.0004
  22334001.8124   -2924883.89349  -2243433.12546  22334001.2534   22334006.0154
       227.0004        178.0004
  22305260.1034   -1583220.09449  -1222624.42446  22305259.4304   22305263.7864
       231.0004        182.0004
 07  2 18  2 30 30.0000000  0  7G 1G22G19G14G31G25G11
  20738438.0624    -456483.75849   -354028.91247  20738437.7984   20738442.4574
       243.0004        212.0004
  22381956.2244    1410527.38449   1091256.96446  22381956.3244   22381958.0204
       230.0004        186.0004
  24263629.8574    1898604.45249   1467737.09545  24263629.6194   24263633.0194
       210.0004        152.0004
  21504623.0714    1547566.92949   1197302.97247  21504622.9294   21504626.5724
       235.0004        196.0004
  20904858.8384   -1723776.22649  -1331739.66647  20904859.2774   20904862.3194
       241.0004        212.0004
  22330990.2524   -2940709.75249  -2255764.96546  22330990.1674   22330994.9644
       227.0004        178.0004
  22303795.4334   -1590916.89249  -1228621.94046  22303795.6044   22303798.9824
       231.0004        182.0004
 07  2 18  2 30 35.0000000  0  7G 1G22G19G14G31G25G11
  20738181.8924    -457829.93949   -355077.87147  20738181.1764   20738186.2354
       244.0004        212.0004
  22383694.3614    1419661.26349   1098374.27746  22383693.9514   22383696.2184
       230.0004        186.0004
  24265967.6834    1910889.67149   1477309.99345  24265967.4904   24265971.2394
       212.0004        152.0004
  21506496.0044    1557409.22949   1204972.30747  21506495.4334   21506499.1834
       235.0004        196.0004
  20903291.6904   -1732011.74649  -1338156.94047  20903291.6924   20903294.9414
       241.0004        212.0004
  22327979.9384   -2956528.87349  -2268091.53246  22327978.8724   22327984.5764
       228.0004        178.0004
  22302333.1184   -1598601.52749  -1234609.94946  22302332.5864   22302335.8694
       232.0004        182.0004
 07  2 18  2 30 40.0000000  0  7G 1G22G19G14G31G25G11
  20737927.4504    -459166.92149   -356119.67947  20737926.9224   20737931.6984
       244.0004        212.0004
  22385433.6694    1428801.47249   1105496.51246  22385433.7374   22385435.8424
       230.0004        185.0004
  24268306.0144    1923177.58249   1486884.99145  24268305.2124   24268309.4774
       210.0004        152.0004
  21508369.8384    1567256.35449   1212645.38547  21508369.2564   21508372.8654
       235.0004        196.0004
  20901727.3514   -1740232.43749  -1344562.67947  20901727.7054   20901730.6094
       241.0004        212.0004
  22324971.2444   -2972339.57549  -2280411.55746  22324971.1144   22324976.0724
       227.0004        178.0004
  22300873.4134   -1606272.36549  -1240587.23446  22300873.8264   22300876.8194
       232.0004        183.0004
 07  2 18  2 30 45.0000000  0  7G 1G22G19G14G31G25G11
  20737674.7074    -460495.07249   -357154.60047  20737674.3174   20737679.1324
       243.0004        212.0004
  22387174.1234    1437947.65249   1112623.40346  22387174.5724   22387175.8694
       231.0004        185.0004
  24270644.7834    1935467.77849   1496461.76945  24270643.8634   24270648.1184
       209.0004        153.0004
  21510244.5404    1577107.97149   1220321.97347  21510243.9784   21510247.5774
       235.0004        196.0004
  20900165.7564   -1748438.66049  -1350957.13347  20900165.9964   20900169.0874
       240.0004        212.0004
  22321964.0674   -2988142.27149  -2292725.34046  22321964.4064   22321968.4434
       227.0004        179.0004
  22299416.2674   -1613929.76249  -1246554.03546  22299416.8654   22299419.1954
       232.0004        183.0004
 07  2 18  2 30 50.0000000  0  7G 1G22G19G14G31G25G11
  20737423.5484    -461814.97349   -358183.09247  20737423.1514   20737427.8594
       243.0004        212.0004
  22388915.6334    1447099.19449   1119754.47946  22388915.7364   22388917.6114
       230.0004        185.0004
  24272983.8714    1947759.64849   1506039.85445  24272982.9044   24272987.0104
       209.0004        153.0004
  21512119.9774    1586963.52449   1228001.62247  21512119.3604   21512123.1664
       234.0004        196.0004
  20898606.7834   -1756630.96849  -1357340.74747  20898606.9854   20898610.0904
       240.0004        212.0004
  22318958.3434   -3003937.46649  -2305033.28446  22318958.2974   22318962.0784
       226.0004        179.0004
  22297961.5754   -1621574.27049  -1252510.80046  22297961.9124   22297964.6604
       231.0004        183.0004
 07  2 18  2 30 55.0000000  0  7G 1G22G19G14G31G25G11
  20737173.9974    -463126.30849   -359204.90747  20737173.6634   20737178.2954
       243.0004        212.0004
  22390658.2164    1456256.46949   1126890.01246  22390658.3104   22390660.0264
       230.0004        185.0004
  24275323.3244    1960053.54749   1515619.50745  24275322.3944   24275327.0504
       208.0004        152.0004
  21513996.2144    1596823.25649   1235684.52847  21513995.7014   21513999.4254
       234.0004        196.0004
  20897050.5704   -1764809.02149  -1363713.24947  20897050.7934   20897053.9074
       241.0004        212.0004
  22315954.1004   -3019724.86849  -2317335.13646  22315954.3764   22315959.0984
       227.0004        179.0004
  22296509.4244   -1629205.57849  -1258457.27046  22296508.6984   22296512.4104
       230.0004        183.0004
 07  2 18  2 31  0.0000000  0  7G 1G22G19G14G31G25G11
  20736926.1024    -464429.00649   -360219.99147  20736925.4354   20736930.4644
       245.0004        212.0004
  22392401.8894    1465419.53049   1134030.06746  22392401.7834   22392404.0774
       231.0004        185.0004
  24277663.1924    1972349.50549   1525200.76845  24277662.1844   24277666.9774
       209.0004        152.0004
  21515873.2674    1606687.28049   1243370.79047  21515872.4914   21515876.3154
       236.0004        195.0004
  20895497.0414   -1772972.73449  -1370074.58247  20895497.1784   20895500.2764
       242.0004        212.0004
  22312951.3944   -3035504.34649  -2329630.82646  22312951.0554   22312955.7624
       229.0004        179.0004
  22295059.7544   -1636823.60249  -1264393.37746  22295059.4424   22295063.0504
       232.0004        183.0004
 07  2 18  2 31  5.0000000  0  7G 1G22G19G14G31G25G11
  20736679.9214    -465722.74949   -361228.10347  20736679.5454   20736684.3724
       243.0004        212.0004
  22394146.7214    1474588.69149   1141174.86146  22394146.4254   22394148.8924
       230.0004        185.0004
  24280003.4904    1984647.81749   1534783.86145  24280002.2444   24280007.0994
       206.0004        152.0004
  21517751.2124    1616555.91649   1251060.63047  21517751.2314   21517754.4584
       234.0004        195.0004
  20893946.3234   -1781121.86549  -1376424.55147  20893946.6524   20893949.7164
       241.0004        212.0004
  22309950.2174   -3051275.58349  -2341920.09646  22309950.3134   22309953.9774
       227.0004        179.0004
  22293612.6494   -1644428.04449  -1270318.92146  22293612.7934   22293616.6734
       232.0004        183.0004
 07  2 18  2 31 10.0000000  0  7G 1G22G19G14G31G25G11
  20736435.3704    -467007.88649   -362229.50947  20736435.0954   20736439.6354
       244.0004        212.0004
  22395892.6754    1483763.65849   1148324.18346  22395892.3864   22395894.7104
       230.0004        185.0004
  24282344.1234    1996948.16849   1544368.53745  24282342.9644   24282347.0104
       206.0004        152.0004
  21519629.9494    1626428.79549   1258753.78147  21519629.5804   21519632.9554
       234.0004        195.0004
  20892398.2924   -1789256.66849  -1382763.35547  20892398.6434   20892401.6624
       241.0004        212.0004
  22306950.5744   -3067038.93749  -2354203.22446  22306950.0504   22306954.1914
       226.0004        179.0004
  22292168.0964   -1652019.19649  -1276234.10246  22292167.7034   22292171.8124
       231.0004        183.0004
 07  2 18  2 31 15.0000000  0  7G 1G22G19G14G31G25G11
  20736192.3454    -468284.96549   -363224.63247  20736191.7834   20736196.7294
       244.0004        212.0004
  22397639.6154    1492943.90149   1155477.62346  22397639.3974   22397642.0794
       230.0004        185.0004
  24284685.0474    2009249.94849   1553954.33745  24284683.5634   24284688.3104
       209.0004        152.0004
  21521509.3824    1636305.34049   1266449.79947  21521509.1294   21521512.6694
       235.0004        195.0004
  20890852.9134   -1797377.69849  -1389091.42647  20890853.2434   20890856.2094
       241.0004        212.0004
  22303952.3214   -3082794.92849  -2366480.60646  22303952.4554   22303956.4744
       227.0004        179.0004
  22290725.9964   -1659597.59249  -1282139.34346  22290725.9124   22290729.0034
       230.0004        183.0004
 07  2 18  2 31 20.0000000  0  7G 1G22G19G14G31G25G11
  20735951.0404    -469553.05449   -364212.74947  20735950.6004   20735955.4304
       244.0004        212.0004
  22399387.7334    1502130.28049   1162635.83546  22399387.5174   22399390.0194
       231.0004        185.0004
  24287026.4354    2021554.12149   1563541.99345  24287025.7524   24287029.9454
       211.0004        152.0004
  21523389.7114    1646186.52549   1274149.42147  21523388.9184   21523392.7444
       235.0004        195.0004
  20889310.3364   -1805483.99349  -1395408.01447  20889310.3914   20889313.5424
       242.0004        212.0004
  22300955.6144   -3098542.61449  -2378751.52246  22300954.7404   22300960.0184
       227.0004        179.0004
  22289286.4404   -1667162.34049  -1288033.95346  22289285.7094   22289289.3914
       231.0004        182.0004
 07  2 18  2 31 25.0000000  0  7G 1G22G19G14G31G25G11
  20735711.3694    -470812.43849   -365194.08447  20735710.8564   20735715.5924
       244.0004        212.0004
  22401136.9694    1511322.54049   1169798.63846  22401137.2554   22401139.0064
       231.0004        185.0004
  24289368.2324    2033860.40749   1573131.29545  24289367.4314   24289372.1454
       209.0004        152.0004
  21525270.8704    1656072.06649   1281852.44347  21525270.3254   21525273.7104
       234.0004        195.0004
  20887770.5154   -1813575.80449  -1401713.31847  20887770.8074   20887773.7754
       241.0004        212.0004
  22297960.4464   -3114282.24749  -2391016.15746  22297960.0834   22297964.4924
       228.0004        179.0004
  22287849.4554   -1674713.67849  -1293918.10246  22287848.7134   22287852.0254
       231.0004        182.0004
 07  2 18  2 31 30.0000000  0  7G 1G22G19G14G31G25G11
  20735473.3754    -472063.16449   -366168.67247  20735472.8514   20735477.4544
       245.0004        212.0004
  22402887.3114    1520520.66249   1176966.00346  22402886.9644   22402889.0644
       231.0004        185.0004
  24291710.4764    2046168.73349   1582722.19145  24291709.8894   24291714.5074
       212.0004        153.0004
  21527152.8374    1665961.87949   1289558.79047  21527152.3634   21527155.7894
       234.0004        195.0004
  20886233.4384   -1821653.20149  -1408007.39247  20886233.5614   20886236.6454
       241.0004        212.0004
  22294966.7934   -3130013.81049  -2403274.51646  22294967.1054   22294971.3034
       227.0004        180.0004
  22286415.0334   -1682251.62149  -1299791.82346  22286414.6264   22286417.3524
       232.0004        182.0004
 07  2 18  2 31 35.0000000  0  7G 1G22G19G14G31G25G11
  20735236.9444    -473305.67549   -367136.86247  20735236.5844   20735241.0944
       243.0004        212.0004
  22404638.6964    1529724.18949   1184137.58146  22404638.7414   22404640.4304
       230.0004        185.0004
  24294053.0164    2058478.67049   1592314.34945  24294052.5574   24294056.9344
       209.0004        153.0004
  21529035.5094    1675855.51849   1297268.11847  21529034.7894   21529038.5984
       233.0004        195.0004
  20884699.0134   -1829716.61849  -1414290.57247  20884699.1944   20884702.1704
       241.0004        212.0004
  22291974.6024   -3145737.80749  -2415526.97046  22291973.6184   22291978.6874
       226.0004        180.0004
  22284983.0574   -1689776.60749  -1305655.45046  22284982.7874   22284985.6944
       232.0004        182.0004
 07  2 18  2 31 40.0000000  0  7G 1G22G19G14G31G25G11
  20735002.2044    -474539.23749   -368098.07747  20735001.6974   20735006.3484
       244.0004        212.0004
  22406391.2274    1538933.86349   1191313.94746  22406390.2494   22406393.1794
       231.0004        185.0004
  24296395.9674    2070790.90049   1601908.29945  24296395.5254   24296398.5414
       211.0004        153.0004
  21530919.0704    1685753.74449   1304981.02147  21530918.7754   21530921.9304
       234.0004        195.0004
  20883167.3954   -1837765.31949  -1420562.28147  20883167.5244   20883170.7274
       241.0004        212.0004
  22288983.9744   -3161453.50349  -2427772.96046  22288983.3984   22288987.8444
       227.0004        180.0004
  22283553.7114   -1697287.89749  -1311508.40846  22283553.3174   22283556.1214
       231.0004        182.0004
 07  2 18  2 31 45.0000000  0  7G 1G22G19G14G31G25G11
  20734769.1254    -475764.19449   -369052.58547  20734768.5784   20734773.3264
       244.0004        212.0004
  22408144.8594    1548149.32549   1198494.83346  22408144.4544   22408146.8054
       229.0004        185.0004
  24298739.3194    2083105.08249   1611503.77245  24298738.7334   24298742.2304
       211.0004        153.0004
  21532803.4314    1695656.19549   1312697.21947  21532802.8214   21532806.6524
       234.0004        195.0004
  20881638.5034   -1845799.61849  -1426822.77047  20881638.6724   20881641.5674
       241.0004        212.0004
  22285994.9054   -3177161.19249  -2440012.70246  22285993.9874   22285999.2854
       226.0004        180.0004
  22282126.9084   -1704785.84349  -1317350.95246  22282125.7354   22282129.6354
       230.0004        182.0004
 07  2 18  2 31 50.0000000  0  7G 1G22G19G14G31G25G11
  20734537.6334    -476980.66949   -370000.48947  20734537.4084   20734541.8084
       244.0004        212.0004
  22409899.5974    1557370.50649   1205680.16346  22409899.2304   22409901.8404
       229.0004        184.0004
  24301083.0044    2095421.04949   1621100.63745  24301082.6914   24301086.2054
       209.0004        153.0004
  21534688.6054    1705562.76249   1320416.62147  21534688.2164   21534691.7084
       233.0004        195.0004
  20880112.3434   -1853819.63049  -1433072.13347  20880112.7294   20880115.6954
       240.0004        212.0004
  22283007.3214   -3192860.98249  -2452246.30546  22283007.0654   22283011.4824
       226.0004        180.0004
  22280702.5994   -1712270.53049  -1323183.17546  22280701.6314   22280705.4784
       230.0004        182.0004
 07  2 18  2 31 55.0000000  0  7G 1G22G19G14G31G25G11
  20734307.8304    -478188.34549   -370941.53247  20734307.6184   20734311.9994
       243.0004        212.0004
  22411655.4764    1566597.74349   1212870.21646  22411655.2944   22411657.1484
       230.0004        184.0004
  24303427.1104    2107739.17549   1630699.17945  24303426.0784   24303430.4004
       209.0004        153.0004
  21536574.6054    1715473.76849   1328139.48547  21536574.2404   21536577.7954
       233.0004        194.0004
  20878588.9824   -1861824.98949  -1439310.07247  20878589.1534   20878592.2424
       240.0004        212.0004
  22280021.3054   -3208552.49149  -2464473.44646  22280021.3724   22280025.1064
       226.0004        180.0004
  22279280.9104   -1719741.60849  -1329004.78946  22279280.4954   22279283.7364
       231.0004        182.0004
 07  2 18  2 32  0.0000000  0  7G 1G22G19G14G31G25G11
  20734079.6334    -479387.46449   -371875.90447  20734079.1464   20734083.7914
       244.0004        212.0004
  22413412.4494    1575830.75249   1220064.76446  22413412.3484   22413414.2884
       229.0004        184.0004
  24305771.5614    2120059.17749   1640299.18745  24305770.7254   24305775.1624
       210.0004        153.0004
  21538461.4144    1725388.95349   1335865.59947  21538460.8644   21538464.1424
       234.0004        194.0004
  20877068.3384   -1869815.97549  -1445536.80847  20877068.7564   20877071.5404
       241.0004        212.0004
  22277036.8424   -3224235.95549  -2476694.30946  22277036.0094   22277041.2614
       227.0004        180.0004
  22277861.7224   -1727199.32649  -1334816.00446  22277861.0684   22277865.0644
       231.0004        182.0004
 07  2 18  2 32  5.0000000  0  7G 1G22G19G14G31G25G11
  20733853.0504    -480578.18849   -372803.74247  20733852.5634   20733857.3054
       243.0004        212.0004
  22415170.5014    1585069.35949   1227263.67546  22415170.3014   22415172.5064
       229.0004        184.0004
  24308116.3074    2132380.87149   1649900.50645  24308115.2524   24308119.9084
       208.0004        152.0004
  21540348.9634    1735308.16349   1343594.85747  21540348.7774   21540352.1924
       233.0004        194.0004
  20875550.4204   -1877792.71049  -1451752.44847  20875550.7574   20875553.5234
       240.0004        212.0004
  22274053.8414   -3239911.57149  -2488909.06946  22274053.1044   22274058.6064
       225.0004        179.0004
  22276445.0614   -1734643.85249  -1340616.93446  22276445.1184   22276448.7604
       230.0004        182.0004
 07  2 18  2 32 10.0000000  0  7G 1G22G19G14G31G25G11
  20733628.0684    -481760.46349   -373724.99447  20733627.7184   20733632.4604
       243.0004        212.0004
  22416929.6144    1594313.65149   1234467.01846  22416929.3634   22416931.4194
       229.0004        184.0004
  24310461.3544    2144704.34149   1659503.21445  24310459.7794   24310464.4924
       208.0004        152.0004
  21542237.2914    1745231.42349   1351327.26747  21542237.0204   21542240.5174
       233.0004        194.0004
  20874035.2014   -1885755.08249  -1457956.89147  20874035.5464   20874038.5024
       241.0004        212.0004
  22271072.3664   -3255579.20049  -2501117.60146  22271072.5674   22271076.5114
       225.0004        179.0004
  22275030.9324   -1742075.13049  -1346407.53546  22275031.2074   22275033.8674
       231.0004        182.0004
 07  2 18  2 32 15.0000000  0  7G 1G22G19G14G31G25G11
  20733404.7654    -482933.78949   -374639.27247  20733404.5234   20733409.1384
       243.0004        212.0004
  22418689.9224    1603564.10049   1241675.16346  22418689.8044   22418692.4324
       230.0004        184.0004
  24312806.8444    2157030.04449   1669107.66045  24312805.5654   24312809.5384
       208.0004        152.0004
  21544126.4654    1755159.23649   1359063.22547  21544126.3724   21544129.7564
       233.0004        194.0004
  20872522.8374   -1893702.65949  -1464149.80447  20872523.2434   20872526.1614
       240.0004        212.0004
  22268092.4904   -3271238.45149  -2513319.61246  22268092.4504   22268096.9634
       227.0004        179.0004
  22273619.4404   -1749492.65249  -1352187.42046  22273619.2444   22273622.5554
       231.0004        182.0004
 07  2 18  2 32 20.0000000  0  7G 1G22G19G14G31G25G11
  20733182.9924    -484099.23049   -375547.40047  20733182.4664   20733187.2044
       243.0004        212.0004
  22420451.1904    1612819.70649   1248887.32446  22420450.7554   22420453.2894
       229.0004        184.0004
  24315152.5344    2169356.90549   1678713.00545  24315151.1714   24315156.0394
       210.0004        151.0004
  21546016.3594    1765090.55849   1366801.92447  21546016.0234   21546019.4924
       233.0004        194.0004
  20871013.0684   -1901636.49349  -1470332.00747  20871013.4584   20871016.3464
       241.0004        212.0004
  22265114.0404   -3286890.31349  -2525515.84746  22265113.3834   22265118.2254
       226.0004        179.0004
  22272210.3614   -1756897.47649  -1357957.40446  22272210.2504   22272213.1714
       232.0004        182.0004
 07  2 18  2 32 25.0000000  0  7G 1G22G19G14G31G25G11
  20732962.9534    -485255.54149   -376448.42247  20732962.5694   20732967.3154
       243.0004        212.0004
  22422213.6834    1622081.68749   1256104.45546  22422213.6544   22422215.7404
       229.0004        184.0004
  24317498.7104    2181686.21149   1688320.24345  24317497.5274   24317502.4374
       208.0004        151.0004
  21547907.1334    1775026.61749   1374544.30647  21547906.4554   21547910.2304
       233.0004        194.0004
  20869506.1894   -1909555.29649  -1476502.50047  20869506.3414   20869509.6904
       240.0004        212.0004
  22262137.2054   -3302533.48449  -2537705.33146  22262136.8634   22262141.6684
       225.0004        179.0004
  22270803.9334   -1764288.34149  -1363716.52946  22270804.1934   22270806.6274
       231.0004        182.0004
 07  2 18  2 32 30.0000000  0  7G 1G22G19G14G31G25G11
  20732744.4924    -486403.50549   -377342.93947  20732744.1704   20732748.9434
       243.0004        212.0004
  22423977.2264    1631349.27949   1263325.94946  22423976.7344   22423979.1954
       229.0004        184.0004
  24319845.1934    2194017.13049   1697928.73745  24319844.1524   24319848.8864
       208.0004        152.0004
  21549798.6634    1784966.59249   1382289.74347  21549798.2354   21549802.1384
       234.0004        194.0004
  20868001.9944   -1917459.85349  -1482661.89347  20868002.2534   20868005.3254
       241.0004        212.0004
  22259161.8944   -3318168.72749  -2549888.62246  22259161.3334   22259166.1174
       225.0004        179.0004
  22269400.0584   -1771666.00249  -1369465.35546  22269400.1454   22269402.8884
       231.0004        182.0004
 07  2 18  2 32 35.0000000  0  7G 1G22G19G14G31G25G11
  20732527.6544    -487542.92849   -378230.79547  20732527.1504   20732531.9844
       244.0004        212.0004
  22425741.9054    1640622.68049   1270551.98146  22425741.8224   22425743.7254
       231.0004        184.0004
  24322192.0584    2206349.88949   1707538.66845  24322190.8084   24322195.7284
       210.0004        152.0004
  21551690.9734    1794910.71149   1390038.40947  21551690.1654   21551694.0884
       233.0004        194.0004
  20866500.5624   -1925349.96549  -1488810.02347  20866500.5624   20866503.8154
       241.0004        212.0004
  22256188.1324   -3333795.83649  -2562065.58946  22256187.6624   22256192.3774
       227.0004        179.0004
  22267998.6744   -1779030.26049  -1375203.72846  22267998.1964   22268001.4954
       231.0004        182.0004
 07  2 18  2 32 40.0000000  0  7G 1G22G19G14G31G25G11
  20732312.5014    -488673.53149   -379111.78847  20732312.1394   20732316.8394
       244.0004        212.0004
  22427507.7484    1649902.17049   1277782.74646  22427508.0794   22427509.9484
       230.0004        184.0004
  24324539.2544    2218684.69849   1717150.20445  24324538.3624   24324542.6624
       208.0004        152.0004
  21553584.0994    1804859.27549   1397790.53747  21553583.5054   21553587.1584
       234.0004        194.0004
  20865001.9344   -1933225.31849  -1494946.66647  20865002.4094   20865005.2324
       241.0004        212.0004
  22253215.9714   -3349414.58849  -2574236.03546  22253215.9394   22253220.1904
       226.0004        179.0004
  22266599.9064   -1786380.85049  -1380931.45746  22266599.7244   22266603.6164
       232.0004        182.0004
 07  2 18  2 32 45.0000000  0  7G 1G22G19G14G31G25G11
  20732098.9294    -489795.86549   -379986.33147  20732098.6574   20732103.3114
       243.0004        212.0004
  22429274.6224    1659187.22449   1285017.85146  22429274.6364   22429276.7194
       231.0004        184.0004
  24326886.7874    2231021.01449   1726762.91345  24326886.2774   24326890.5164
       211.0004        153.0004
  21555477.9984    1814811.70149   1405545.66847  21555477.5934   21555481.0334
       233.0004        194.0004
  20863506.0014   -1941086.48649  -1501072.24647  20863506.4154   20863509.0924
       241.0004        212.0004
  22250245.3094   -3365025.45049  -2586400.33546  22250244.8164   22250249.3954
       226.0004        179.0004
  22265203.6424   -1793718.25449  -1386648.91546  22265203.3504   22265206.0254
       231.0004        182.0004
 07  2 18  2 32 50.0000000  0  7G 1G22G19G14G31G25G11
  20731886.9884    -490909.58649   -380854.16547  20731886.7634   20731891.3074
       244.0004        212.0004
  22431042.6544    1668478.15849   1292257.54346  22431042.7224   22431044.5344
       231.0004        184.0004
  24329234.6714    2243359.16349   1736377.05345  24329234.5814   24329237.9414
       212.0004        153.0004
  21557372.6474    1824768.31949   1413304.07547  21557372.3124   21557375.6064
       234.0004        194.0004
  20862012.8654   -1948933.10249  -1507186.48947  20862013.3294   20862016.1814
       242.0004        212.0004
  22247276.1934   -3380628.10249  -2598558.23846  22247276.2414   22247280.9844
       226.0004        179.0004
  22263809.9414   -1801042.15049  -1392355.84946  22263809.8254   22263813.0934
       232.0004        182.0004
 07  2 18  2 32 55.0000000  0  7G 1G22G19G14G31G25G11
  20731676.7414    -492014.44349   -381715.09147  20731676.3994   20731681.2994
       243.0004        212.0004
  22432811.8414    1677775.26249   1299502.03246  22432811.7684   22432814.3644
       229.0004        184.0004
  24331582.9624    2255699.38949   1745992.81645  24331582.7064   24331586.2454
       212.0004        153.0004
  21559268.1484    1834729.39449   1421065.95047  21559267.3604   21559271.4034
       233.0004        194.0004
  20860522.5344   -1956764.88249  -1513289.17647  20860522.9704   20860525.6404
       241.0004        212.0004
  22244308.7294   -3396222.21649  -2610709.49146  22244308.4764   22244314.1904
       226.0004        179.0004
  22262418.8684   -1808352.29249  -1398052.06246  22262418.4284   22262421.5554
       231.0004        182.0004
 07  2 18  2 33  0.0000000  0  7G 1G22G19G14G31G25G11
  20731467.9314    -493111.81549   -382570.17847  20731467.5944   20731472.3184
       245.0004        212.0004
  22434581.9504    1687077.14149   1306750.25446  22434581.9524   22434583.9844
       231.0004        184.0004
  24333931.3954    2268040.33449   1755609.14045  24333931.1604   24333934.1204
       210.0004        153.0004
  21561164.2534    1844693.53849   1428830.22647  21561164.0274   21561167.3984
       235.0004        194.0004
  20859034.7684   -1964583.20749  -1519381.36947  20859035.1004   20859038.0324
       242.0004        212.0004
  22241342.6204   -3411809.18949  -2622855.17146  22241343.1094   22241346.8044
       228.0004        179.0004
  22261030.1844   -1815650.02849  -1403738.60646  22261030.1794   22261033.1374
       232.0004        182.0004
 07  2 18  2 33  5.0000000  0  7G 1G22G19G14G31G25G11
  20731260.9784    -494199.35449   -383417.61347  20731260.7374   20731265.2584
       244.0004        212.0004
  22436353.3964    1696386.17849   1314004.04746  22436352.9464   22436355.2934
       230.0004        184.0004
  24336280.3994    2280384.32849   1765227.83745  24336279.8244   24336283.4174
       210.0004        153.0004
  21563061.4034    1854663.04849   1436598.67047  21563060.8744   21563064.5204
       233.0004        194.0004
  20857549.9914   -1972385.73049  -1525461.25947  20857550.3184   20857553.0184
       241.0004        212.0004
  22238378.3114   -3427386.67549  -2634993.47446  22238378.1914   22238382.8964
       226.0004        179.0004
  22259644.2754   -1822932.98249  -1409413.63646  22259644.1194   22259646.7684
       231.0004        182.0004
 07  2 18  2 33 10.0000000  0  7G 1G22G19G14G31G25G11
  20731055.5504    -495278.92149   -384258.83247  20731055.2294   20731059.8544
       244.0004        212.0004
  22438125.8604    1705700.49349   1321261.95446  22438126.0994   22438128.2484
       231.0004        184.0004
  24338629.6404    2292729.47949   1774847.43545  24338628.8784   24338632.7404
       209.0004        153.0004
  21564959.2134    1864636.12149   1444369.89647  21564958.8604   21564962.4244
       234.0004        194.0004
  20856067.8874   -1980174.25149  -1531530.23347  20856068.1444   20856071.0994
       242.0004        212.0004
  22235415.4754   -3442956.49049  -2647125.78846  22235414.6534   22235420.0334
       226.0004        179.0004
  22258260.8344   -1830203.00749  -1415078.58746  22258260.3674   22258263.6464
       232.0004        182.0004
 07  2 18  2 33 15.0000000  0  7G 1G22G19G14G31G25G11
  20730851.7374    -496349.98349   -385093.42447  20730851.6104   20730856.0384
       243.0004        212.0004
  22439899.4194    1715020.63649   1328524.40846  22439899.4014   22439901.2214
       230.0004        184.0004
  24340979.1934    2305076.36849   1784468.39345  24340978.4714   24340982.6674
       208.0004        153.0004
  21566857.8344    1874613.31349   1452144.33347  21566857.5654   21566860.8104
       233.0004        194.0004
  20854588.5484   -1987948.28349  -1537587.91647  20854588.8494   20854591.7304
       241.0004        212.0004
  22232454.1634   -3458518.10549  -2659251.71146  22232453.8424   22232459.0764
       226.0004        179.0004
  22256879.9564   -1837459.55149  -1420733.03346  22256879.5234   22256883.0574
       230.0004        182.0004
 07  2 18  2 33 20.0000000  0  7G 1G22G19G14G31G25G11
  20730649.4574    -497412.96349   -385921.71447  20730649.1904   20730653.8494
       244.0004        212.0004
  22441674.0284    1724346.21049   1335791.08946  22441674.0824   22441676.1174
       231.0004        184.0004
  24343328.9924    2317424.51949   1794090.32245  24343328.3344   24343332.5754
       206.0004        152.0004
  21568757.1224    1884594.15449   1459921.61947  21568756.5414   21568760.7704
       232.0004        194.0004
  20853111.8734   -1995708.20349  -1543634.59947  20853112.1614   20853115.1194
       241.0004        212.0004
  22229494.3524   -3474071.93649  -2671371.57446  22229494.7414   22229499.3324
       225.0004        179.0004
  22255501.5344   -1844703.07549  -1426377.33246  22255501.0174   22255504.4864
       231.0004        182.0004
 07  2 18  2 33 25.0000000  0  7G 1G22G19G14G31G25G11
  20730448.9224    -498466.77149   -386742.86547  20730448.7194   20730453.2854
       245.0004        212.0004
  22443449.8754    1733678.27749   1343062.82346  22443450.1434   22443452.0234
       232.0004        184.0004
  24345679.2324    2329775.01849   1803714.07745  24345678.1084   24345683.1154
       204.0004        152.0004
  21570657.3354    1894579.77349   1467702.61547  21570657.3154   21570660.3944
       234.0004        194.0004
  20851638.1114   -2003452.91349  -1549669.43847  20851638.4414   20851641.2224
       242.0004        212.0004
  22226536.2364   -3489616.84749  -2683484.48246  22226535.7004   22226541.3294
       226.0004        179.0004
  22254125.8224   -1851932.44549  -1432010.61446  22254125.1204   22254128.0004
       232.0004        182.0004
 07  2 18  2 33 30.0000000  0  7G 1G22G19G14G31G25G11
  20730249.9314    -499512.52949   -387557.73847  20730249.6274   20730254.3024
       243.0004        212.0004
  22445226.7654    1743015.72349   1350338.75646  22445227.1934   22445228.4334
       231.0004        184.0004
  24348029.6644    2342126.76749   1813338.81745  24348028.2114   24348032.9904
       205.0004        151.0004
  21572558.2174    1904569.02549   1475486.45347  21572558.0594   21572561.6134
       233.0004        194.0004
  20850167.0274   -2011183.51049  -1555693.27547  20850167.3004   20850170.2604
       241.0004        212.0004
  22223579.5834   -3505153.94149  -2695591.30446  22223578.5474   22223584.0034
       224.0004        179.0004
  22252752.5884   -1859148.74449  -1437633.70946  22252752.1304   22252755.8734
       231.0004        182.0004
 07  2 18  2 33 35.0000000  0  7G 1G22G19G14G31G25G11
  20730052.5384    -500549.79249   -388365.99348  20730052.1844   20730057.0564
       244.0004        213.0004
  22447004.7434    1752359.05449   1357619.27246  22447004.9024   22447006.9814
       231.0004        184.0004
  24350380.3654    2354480.18049   1822964.85145  24350378.2844   24350383.1094
       206.0004        151.0004
  21574459.8894    1914562.34549   1483273.45447  21574459.4034   21574463.3874
       234.0004        194.0004
  20848698.7194   -2018899.54149  -1561705.76647  20848699.0064   20848701.8044
       242.0004        212.0004
  22220624.5404   -3520682.79249  -2707691.69246  22220624.0924   22220628.5504
       226.0004        179.0004
  22251381.9344   -1866351.54949  -1443246.27946  22251381.5694   22251384.7724
       232.0004        182.0004
 07  2 18  2 33 40.0000000  0  7G 1G22G19G14G31G25G11
  20729856.8264    -501578.24249   -389167.37948  20729856.3894   20729861.1104
       243.0004        213.0004
  22448783.9024    1761708.56249   1364904.60046  22448784.4704   22448785.2234
       230.0004        184.0004
  24352731.4314    2366835.54749   1832592.40045  24352730.5754   24352734.6414
       207.0004        151.0004
  21576362.3834    1924560.06049   1491063.88747  21576362.0654   21576365.3464
       233.0004        194.0004
  20847233.2474   -2026600.66349  -1567706.63547  20847233.4714   20847236.1604
       241.0004        212.0004
  22217671.1034   -3536203.01249  -2719785.36946  22217670.9864   22217675.6194
       226.0004        179.0004
  22250013.9204   -1873540.52449  -1448848.07846  22250013.8564   22250016.9684
       230.0004        182.0004
 07  2 18  2 33 45.0000000  0  7G 1G22G19G14G31G25G11
  20729662.6954    -502598.55649   -389962.42847  20729662.3934   20729667.2024
       244.0004        212.0004
  22450564.0834    1771063.46549   1372194.13846  22450563.9484   22450565.7944
       231.0004        184.0004
  24355082.7674    2379192.20649   1842220.96245  24355082.0884   24355086.1574
       207.0004        151.0004
  21578265.6104    1934561.48349   1498857.20147  21578265.2984   21578268.8274
       234.0004        194.0004
  20845770.4654   -2034287.54949  -1573696.41547  20845770.7834   20845773.6384
       242.0004        212.0004
  22214719.2154   -3551715.29849  -2731872.86846  22214718.9304   22214724.0124
       226.0004        179.0004
  22248648.4184   -1880716.35049  -1454439.62746  22248648.2114   22248651.2894
       231.0004        182.0004
 07  2 18  2 33 50.0000000  0  7G 1G22G19G14G31G25G11
  20729470.1964    -503610.16749   -390750.69347  20729469.7174   20729474.4264
       244.0004        212.0004
  22452345.4364    1780424.46049   1379488.41746  22452344.7154   22452347.1004
       231.0004        184.0004
  24357434.4894    2391550.72449   1851850.96945  24357434.0494   24357437.8434
       207.0004        150.0004
  21580169.6404    1944567.19449   1506653.85847  21580169.4004   21580172.8944
       234.0004        194.0004
  20844310.5234   -2041959.62949  -1579674.65747  20844310.8244   20844313.6014
       241.0004        212.0004
  22211768.9394   -3567219.06949  -2743953.71746  22211769.2124   22211772.8274
       225.0004        179.0004
  22247285.4994   -1887878.43249  -1460020.46946  22247285.3254   22247288.2404
       230.0004        182.0004
 07  2 18  2 33 55.0000000  0  7G 1G22G19G14G31G25G11
  20729279.2934    -504613.39249   -391532.42547  20729279.0494   20729283.6504
       243.0004        212.0004
  22454127.8874    1789791.26049   1386787.22346  22454127.6414   22454129.9954
       231.0004        184.0004
  24359786.5534    2403910.72049   1861482.13145  24359785.8314   24359790.4344
       207.0004        150.0004
  21582074.4324    1954576.86949   1514453.60847  21582074.0414   21582077.7094
       233.0004        194.0004
  20842853.3184   -2049617.22049  -1585641.60947  20842853.8934   20842856.5554
       242.0004        212.0004
  22208820.2204   -3582714.64549  -2756028.18446  22208819.8844   22208824.5954
       226.0004        179.0004
  22245925.1674   -1895027.07749  -1465590.83346  22245924.4774   22245928.0124
       231.0004        182.0004
 07  2 18  2 34  0.0000000  0  7G 1G22G19G14G31G25G11
  20729089.9634    -505608.29049   -392307.67147  20729089.5804   20729094.0274
       245.0004        212.0004
  22455911.4254    1799163.76349   1394090.46246  22455911.8564   22455913.2044
       232.0004        184.0004
  24362138.8974    2416272.17849   1871114.44245  24362138.3034   24362142.4244
       207.0004        151.0004
  21583979.9804    1964590.44949   1522256.39847  21583979.4924   21583983.0504
       234.0004        194.0004
  20841398.8814   -2057260.36849  -1591597.30647  20841399.2104   20841402.0314
       242.0004        212.0004
  22205873.0864   -3598202.00649  -2768096.25546  22205873.4044   22205877.8404
       227.0004        179.0004
  22244567.3734   -1902162.32049  -1471150.77246  22244567.3464   22244570.1964
       231.0004        182.0004
 07  2 18  2 34  5.0000000  0  7G 1G22G19G14G31G25G11
  20728902.2644    -506594.71149   -393076.30747  20728901.7304   20728906.5844
       243.0004        212.0004
  22457696.0854    1808542.15849   1401398.30946  22457696.5504   22457697.6914
       231.0004        184.0004
  24364491.5344    2428635.22749   1880747.98845  24364490.7444   24364494.8564
       204.0004        150.0004
  21585886.2674    1974608.06049   1530062.33047  21585885.7524   21585889.3984
       234.0004        193.0004
  20839947.2564   -2064888.86549  -1597541.58647  20839947.5844   20839950.3544
       241.0004        212.0004
  22202927.5454   -3613681.01649  -2780157.81546  22202927.5534   22202931.9434
       227.0004        179.0004
  22243212.1584   -1909284.02149  -1476700.14046  22243212.0154   22243214.9164
       231.0004        182.0004
 07  2 18  2 34 10.0000000  0  7G 1G22G19G14G31G25G11
  20728716.1584    -507572.59449   -393838.29147  20728715.7094   20728720.3064
       244.0004        212.0004
  22459481.8704    1817926.50149   1408710.77746  22459481.6344   22459483.3194
       232.0004        184.0004
  24366844.4774    2440999.93949   1890382.82345  24366844.1154   24366847.3754
       209.0004        150.0004
  21587793.3564    1984629.80949   1537871.48247  21587792.8224   21587796.2964
       233.0004        193.0004
  20838498.3994   -2072502.68849  -1603474.42947  20838498.7184   20838501.6554
       242.0004        212.0004
  22199983.6004   -3629151.63549  -2792212.83646  22199983.1414   22199987.2144
       226.0004        179.0004
  22241859.5274   -1916392.09249  -1482238.89246  22241859.1714   22241862.3574
       232.0004        182.0004
 07  2 18  2 34 15.0000000  0  7G 1G22G19G14G31G25G11
  20728531.6944    -508541.99349   -394593.66647  20728531.3064   20728536.0714
       245.0004        212.0004
  22461268.7694    1827316.70049   1416027.82046  22461268.4274   22461270.8594
       232.0004        185.0004
  24369197.7044    2453366.21249   1900018.87445  24369196.9764   24369200.3264
       206.0004        150.0004
  21589701.2134    1994655.54549   1545683.74847  21589700.8514   21589704.4174
       234.0004        193.0004
  20837052.2944   -2080101.92049  -1609395.91147  20837052.7594   20837055.4004
       242.0004        212.0004
  22197041.2414   -3644613.82849  -2804261.28846  22197040.4994   22197045.6734
       225.0004        179.0004
  22240509.4934   -1923486.63049  -1487767.10646  22240509.2664   22240512.4804
       232.0004        182.0004
 07  2 18  2 34 20.0000000  0  7G 1G22G19G14G31G25G11
  20728348.8434    -509502.89049   -395342.41547  20728348.5534   20728352.7814
       244.0004        212.0004
  22463056.8204    1836712.83749   1423349.48146  22463056.6294   22463059.3774
       231.0004        185.0004
  24371551.2294    2465734.09949   1909656.18745  24371549.9874   24371554.2964
       205.0004        149.0004
  21591609.8134    2004685.39349   1553499.20847  21591609.3904   21591612.9084
       234.0004        193.0004
  20835609.0314   -2087686.44749  -1615305.92947  20835609.4384   20835612.3214
       241.0004        212.0004
  22194100.4944   -3660067.60149  -2816303.18646  22194100.0144   22194105.1414
       226.0004        179.0004
  22239162.0624   -1930567.52049  -1493284.68246  22239161.8194   22239164.5654
       231.0004        182.0004
 07  2 18  2 34 25.0000000  0  8G 1G22G20G19G14G31G25G11
  20728167.5544    -510455.63449   -396084.80847  20728166.9694   20728171.8124
       244.0004        212.0004
  22464845.9094    1846114.54049   1430675.49046  22464845.2514   22464847.6134
       232.0004        185.0004
                   -409110.95859   -299388.96944                  24628693.8244
       203.0004        106.0004
  24373904.9754    2478103.25649   1919294.49045  24373903.6284   24373907.9684
       205.0004        149.0004
  21593519.1694    2014718.96049   1561317.57747  21593518.8884   21593522.2284
       233.0004        193.0004
  20834168.4674   -2095256.63849  -1621204.77348  20834168.7854   20834171.6314
       241.0004        213.0004
  22191161.2334   -3675513.25449  -2828338.74946  22191161.1794   22191166.1394
       225.0004        179.0004
  22237817.1514   -1937635.16549  -1498791.94246  22237816.6204   22237819.9574
       231.0004        182.0004
 07  2 18  2 34 30.0000000  0  8G 1G22G20G19G14G31G25G11
  20727987.8174    -511400.09849   -396820.75647  20727987.6934   20727992.0434
       244.0004        212.0004
  22466636.0774    1855521.94649   1438005.93046  22466635.9124   22466638.4484
       231.0004        185.0004
                   -423697.01349   -310754.70244                  24625918.4044
       204.0004        116.0004
  24376258.9624    2490473.75249   1928933.83245  24376257.5084   24376262.4784
       204.0004        148.0004
  21595429.2354    2024756.37749   1569138.94047  21595428.8664   21595432.5604
       234.0004        193.0004
  20832730.6614   -2102812.36449  -1627092.35648  20832731.1904   20832733.8384
       241.0004        213.0004
  22188223.5584   -3690950.75649  -2840367.96546  22188223.1834   22188227.6094
       225.0004        179.0004
  22236474.7824   -1944689.39349  -1504288.73946  22236474.5394   22236477.5554
       231.0004        182.0004
 07  2 18  2 34 35.0000000  0  8G 1G22G20G19G14G31G25G11
  20727809.7434    -512335.89849   -397549.94248  20727809.1664   20727813.8684
       244.0004        213.0004
  22468427.4024    1864935.42549   1445341.11246  22468427.5614   22468429.2694
       232.0004        185.0004
                   -438284.00249   -322121.16644                  24623142.7604
       203.0004        122.0004
  24378613.2714    2502845.97049   1938574.51345  24378612.3784   24378617.1814
       206.0004        147.0004
  21597340.1004    2034798.00849   1576963.59247  21597339.4134   21597343.2214
       233.0004        193.0004
  20831295.6774   -2110353.21649  -1632968.33548  20831295.7844   20831298.6984
       242.0004        213.0004
  22185287.5024   -3706379.60949  -2852390.43846  22185287.7654   22185291.9714
       226.0004        179.0004
  22235135.0614   -1951729.81849  -1509774.78146  22235134.4074   22235137.9234
       230.0004        182.0004
 07  2 18  2 34 40.0000000  0  8G 1G22G20G19G14G31G25G11
  20727633.2684    -513263.27249   -398272.57448  20727632.9184   20727637.4754
       244.0004        213.0004
  22470219.8624    1874354.76049   1452680.85346  22470219.5114   22470221.6184
       231.0004        185.0004
                   -452872.14949   -333488.53244                  24620367.2554
       205.0004        126.0004
  24380967.8874    2515219.67549   1948216.35045  24380966.9484   24380971.8104
       205.0004        147.0004
  21599251.7434    2044843.61449   1584791.33747  21599251.4294   21599254.6634
       233.0004        193.0004
  20829863.4634   -2117879.43149  -1638832.91848  20829863.7654   20829866.5824
       241.0004        213.0004
  22182353.0684   -3721800.01349  -2864406.33646  22182352.8874   22182357.2944
       225.0004        179.0004
  22233797.8864   -1958756.68049  -1515250.25646  22233796.9134   22233800.6234
       231.0004        182.0004
 07  2 18  2 34 45.0000000  0  8G 1G22G20G19G14G31G25G11
  20727458.3584    -514182.39749   -398988.76948  20727458.0794   20727462.7424
       245.0004        213.0004
  22472013.3994    1883779.79349   1460025.03546  22472013.5294   22472015.1564
       232.0004        185.0004
                   -467461.59849   -344856.92044                  24617590.2514
       204.0004        129.0004
  24383322.7374    2527594.70049   1957859.22345  24383321.8184   24383326.3164
       207.0004        147.0004
  21601164.0864    2054893.00649   1592622.03847  21601163.7464   21601167.4054
       235.0004        193.0004
  20828434.0234   -2125391.16349  -1644686.20948  20828434.2954   20828437.1604
       243.0004        213.0004
  22179420.1954   -3737212.20149  -2876415.81846  22179420.3774   22179425.1314
       227.0004        179.0004
  22232463.2504   -1965770.11349  -1520715.25546  22232462.9864   22232465.9804
       233.0004        182.0004
 07  2 18  2 34 50.0000000  0  8G 1G22G20G19G14G31G25G11
  20727285.0554    -515093.17149   -399698.45948  20727284.8294   20727289.3744
       245.0004        213.0004
  22473808.0064    1893210.64349   1467373.74846  22473808.0564   22473809.7844
       231.0004        185.0004
  24614807.7824    -482052.27249   -356226.26244  24614808.5434   24614813.6864
       205.0004        131.0004
  24385677.8764    2539971.09649   1967503.16745  24385677.2874   24385681.1994
       205.0004        147.0004
  21603077.1704    2064946.34449   1600455.80847  21603076.5114   21603080.2944
       234.0004        193.0004
  20827007.3764   -2132888.26049  -1650528.09948  20827007.6434   20827010.5714
       242.0004        213.0004
  22176488.9404   -3752615.97249  -2888418.75646  22176489.2464   22176494.1244
       226.0004        179.0004
  22231131.2084   -1972770.03949  -1526169.74146  22231130.6784   22231133.9704
       232.0004        182.0004
 07  2 18  2 34 55.0000000  0  8G 1G22G20G19G14G31G25G11
  20727113.4394    -515995.04449   -400401.22448  20727113.2284   20727117.8224
       244.0004        213.0004
  22475603.8204    1902647.78849   1474727.35946  22475603.5734   22475605.7024
       231.0004        185.0004
  24612031.1584    -496643.65249   -367596.15745  24612031.6554   24612037.0304
       205.0004        133.0004
  24388033.3804    2552349.43649   1977148.62445  24388032.9964   24388036.5154
       207.0004        146.0004
  21604991.1084    2075004.09549   1608293.00647  21604990.4764   21604994.3904
       232.0004        193.0004
  20825583.6194   -2140370.22949  -1656358.21148  20825583.9884   20825586.9704
       241.0004        213.0004
  22173559.3974   -3768010.83949  -2900414.75346  22173559.4644   22173564.5744
       226.0004        180.0004
  22229801.8134   -1979755.97249  -1531613.34146  22229802.1484   22229804.3614
       231.0004        182.0004
 07  2 18  2 35  0.0000000  0  8G 1G22G20G19G14G31G25G11
  20726943.3334    -516888.90349   -401097.73048  20726943.1564   20726947.6784
       245.0004        213.0004
  22477400.7124    1912090.41849   1482085.25346  22477400.7394   22477402.3434
       232.0004        185.0004
  24609254.3924    -511236.53749   -378967.23245  24609254.7374   24609260.0424
       208.0004        134.0004
  24390389.1114    2564728.80849   1986794.89145  24390388.7954   24390392.5414
       209.0004        146.0004
  21606905.7094    2085065.41149   1616133.00047  21606904.9814   21606908.8194
       233.0004        193.0004
  20824162.5514   -2147837.95249  -1662177.20648  20824162.9724   20824165.9694
       242.0004        213.0004
  22170631.3664   -3783397.68549  -2912404.48846  22170631.3014   22170635.9244
       226.0004        180.0004
  22228474.9654   -1986728.65449  -1537046.59546  22228474.5174   22228477.5394
       231.0004        182.0004
 07  2 18  2 35  5.0000000  0  8G 1G22G20G19G14G31G25G11
  20726774.7944    -517774.63449   -401787.90648  20726774.3134   20726779.0814
       244.0004        213.0004
  22479198.6434    1921538.60949   1489447.48446  22479198.6254   22479200.5764
       231.0004        185.0004
  24606477.3834    -525830.87849   -390339.44245  24606477.8504   24606482.8164
       206.0004        135.0004
  24392745.0954    2577109.31549   1996442.03645  24392744.7144   24392748.5074
       207.0004        147.0004
  21608821.0034    2095130.35449   1623975.81447  21608820.2654   21608823.9964
       233.0004        193.0004
  20822744.2224   -2155291.25549  -1667984.97148  20822744.4144   20822747.4124
       242.0004        213.0004
  22167704.8984   -3798776.32249  -2924387.83746  22167705.1474   22167709.4864
       227.0004        180.0004
  22227150.6314   -1993688.00949  -1542469.45346  22227150.3644   22227153.1694
       230.0004        182.0004
 07  2 18  2 35 10.0000000  0  8G 1G22G20G19G14G31G25G11
  20726607.9334    -518651.61349   -402471.26948  20726607.7484   20726612.3024
       244.0004        213.0004
  22480997.7624    1930993.02749   1496814.55246  22480997.5894   22480999.8664
       232.0004        185.0004
  24603700.2394    -540425.99749   -401712.26245  24603700.4234   24603705.4074
       206.0004        136.0004
  24395101.3794    2589491.56749   2006090.54545  24395100.3934   24395104.6644
       206.0004        146.0004
  21610737.1044    2105199.61049   1631821.98647  21610736.2394   21610740.1584
       234.0004        193.0004
  20821328.7734   -2162729.51549  -1673781.01748  20821329.1844   20821332.0404
       242.0004        213.0004
  22164780.1484   -3814146.09749  -2936364.28646  22164780.7624   22164785.4144
       228.0004        180.0004
  22225828.9574   -2000633.35449  -1547881.41846  22225828.3994   22225831.5244
       232.0004        182.0004
 07  2 18  2 35 15.0000000  0  8G 1G22G20G19G14G31G25G11
  20726442.5934    -519520.44149   -403148.27548  20726442.4124   20726446.9664
       244.0004        213.0004
  22482797.9504    1940453.07949   1504186.02346  22482798.5924   22482800.4544
       232.0004        185.0004
  24600922.8254    -555022.42649   -413086.10045  24600923.2054   24600928.0134
       205.0004        137.0004
  24397457.8924    2601874.95449   2015739.93545  24397456.7324   24397460.7914
       208.0004        146.0004
  21612653.9064    2115272.52349   1639671.00947  21612653.3514   21612657.4684
       232.0004        193.0004
  20819916.0594   -2170153.34249  -1679565.81548  20819916.4424   20819919.4474
       242.0004        213.0004
  22161856.9664   -3829507.67249  -2948334.33146  22161856.7964   22161862.5164
       228.0004        180.0004
  22224509.8614   -2007565.30049  -1553282.93646  22224509.5224   22224511.9614
       231.0004        182.0004
 07  2 18  2 35 20.0000000  0  8G 1G22G20G19G14G31G25G11
  20726278.7654    -520381.40149   -403819.14848  20726278.3964   20726282.8934
       244.0004        213.0004
  22484599.1794    1949918.51549   1511561.67946  22484599.8054   22484601.2084
       232.0004        185.0004
  24598145.0344    -569620.52049   -424461.23145  24598144.9094   24598149.5904
       206.0004        137.0004
  24399814.5764    2614259.19349   2025389.98745  24399813.7304   24399817.6274
       207.0004        146.0004
  21614571.3494    2125348.83649   1647522.68547  21614570.7044   21614574.4504
       233.0004        193.0004
  20818506.0464   -2177562.99049  -1685339.56048  20818506.4284   20818509.2834
       243.0004        213.0004
  22158935.3144   -3844861.22349  -2960298.13046  22158935.7384   22158940.2684
       228.0004        181.0004
  22223193.2214   -2014484.14749  -1558674.24146  22223192.7144   22223195.8704
       231.0004        182.0004
 07  2 18  2 35 25.0000000  0  8G 1G22G20G19G14G31G25G11
  20726116.6194    -521233.55549   -404483.16248  20726116.2684   20726120.8604
       243.0004        213.0004
  22486401.6044    1959390.23149   1518942.24646  22486401.7684   22486403.2514
       232.0004        185.0004
  24595367.0524    -584219.30449   -435836.89745  24595367.0924   24595371.2944
       205.0004        137.0004
  24402171.5854    2626645.25149   2035041.46145  24402170.9094   24402174.5154
       208.0004        146.0004
  21616489.6344    2135429.46749   1655377.72647  21616489.2264   21616492.8854
       231.0004        193.0004
  20817098.9404   -2184957.48449  -1691101.50348  20817099.3524   20817102.1374
       242.0004        213.0004
  22156015.3594   -3860205.84249  -2972254.96246  22156015.6104   22156019.6834
       227.0004        181.0004
  22221879.2674   -2021388.94749  -1564054.60146  22221878.4244   22221882.1584
       231.0004        182.0004
 07  2 18  2 35 30.0000000  0  8G 1G22G20G19G14G31G25G11
  20725956.1114    -522077.05649   -405140.43948  20725955.8194   20725960.6024
       244.0004        213.0004
  22488205.2164    1968868.07649   1526327.57146  22488205.8894   22488207.0144
       231.0004        185.0004
  24592588.9194    -598818.83849   -447213.15345  24592588.4054   24592594.2684
       204.0004        136.0004
  24404528.9014    2639032.87949   2044694.16245  24404528.5364   24404532.3504
       209.0004        146.0004
  21618408.7124    2145514.29149   1663236.02747  21618407.9584   21618412.1044
       232.0004        193.0004
  20815694.6584   -2192337.00449  -1696851.77748  20815695.0644   20815697.9124
       242.0004        213.0004
  22153097.0784   -3875541.65149  -2984204.94546  22153097.3704   22153101.1864
       228.0004        181.0004
  22220567.9834   -2028279.82449  -1569424.12046  22220567.5814   22220570.8794
       232.0004        182.0004
 07  2 18  2 35 35.0000000  0  8G 1G22G20G19G14G31G25G11
  20725797.0564    -522912.88949   -405791.72748  20725796.6904   20725801.2574
       244.0004        213.0004
  22490009.7994    1978351.09649   1533716.93846  22490009.7104   22490011.6544
       231.0004        185.0004
  24589810.3454    -613420.20049   -458590.82345  24589808.6104   24589814.1914
       204.0004        136.0004
  24406886.3474    2651421.15749   2054347.37045  24406886.4044   24406890.1524
       208.0004        146.0004
  21620328.3814    2155602.33349   1671096.84847  21620327.5294   21620331.5684
       232.0004        193.0004
  20814293.0514   -2199702.49549  -1702591.11648  20814293.3854   20814296.2514
       242.0004        213.0004
  22150180.2614   -3890869.66849  -2996148.84446  22150180.2094   22150184.7444
       229.0004        181.0004
  22219259.1414   -2035157.76349  -1574783.54146  22219258.8074   22219262.4824
       230.0004        182.0004
 07  2 18  2 35 40.0000000  0  8G 1G22G20G19G14G31G25G11
  20725639.6844    -523739.88249   -406436.14048  20725639.5384   20725643.9734
       244.0004        213.0004
  22491815.5664    1987840.44449   1541111.23246  22491815.5404   22491817.3164
       231.0004        185.0004
  24587031.6434    -628022.25549   -469969.03545  24587030.0134   24587035.3114
       205.0004        135.0004
  24409244.1144    2663811.20949   2064001.96445  24409243.7024   24409248.2874
       209.0004        146.0004
  21622248.8924    2165694.74149   1678961.05547  21622248.3594   21622252.3384
       232.0004        193.0004
  20812894.3584   -2207052.78449  -1708318.61348  20812894.8534   20812897.6874
       241.0004        213.0004
  22147265.1864   -3906188.67949  -3008085.73746  22147265.4774   22147269.8274
       228.0004        181.0004
  22217952.9784   -2042021.58549  -1580131.97746  22217952.1624   22217956.2794
       231.0004        182.0004
 07  2 18  2 35 45.0000000  0  8G 1G22G20G19G14G31G25G11
  20725483.8274    -524558.83049   -407074.27448  20725483.4064   20725487.9934
       244.0004        213.0004
  22493622.3934    1997335.35149   1548509.86246  22493622.2994   22493624.2394
       231.0004        185.0004
  24584252.6674    -642625.76349   -481348.38945  24584252.1364   24584256.4104
       204.0004        135.0004
  24411602.0784    2676202.28349   2073657.35145  24411601.6904   24411605.6164
       208.0004        145.0004
  21624170.0744    2175790.74549   1686828.06947  21624169.9394   21624173.4974
       232.0004        193.0004
  20811498.3794   -2214388.66149  -1714034.87448  20811498.6294   20811501.5524
       242.0004        213.0004
  22144351.6374   -3921499.40349  -3020016.15346  22144351.3754   22144356.1294
       229.0004        181.0004
  22216649.3894   -2048872.05649  -1585470.00246  22216648.4244   22216651.9814
       232.0004        182.0004
 07  2 18  2 35 50.0000000  0  8G 1G22G20G19G14G31G25G11
  20725329.6164    -525369.22149   -407705.74348  20725329.2534   20725333.8104
       245.0004        213.0004
  22495430.3494    2006836.34649   1555913.23246  22495430.5574   22495432.2134
       232.0004        185.0004
  24581473.5474    -657230.22549   -492728.48645  24581472.5214   24581477.8614
       202.0004        135.0004
  24413960.3474    2688594.89149   2083313.92845  24413959.9174   24413963.7624
       208.0004        146.0004
  21626092.0514    2185890.85749   1694698.29047  21626091.4284   21626095.2784
       233.0004        193.0004
  20810105.2474   -2221709.56849  -1719739.47548  20810105.3744   20810108.5054
       242.0004        213.0004
  22141439.7924   -3936801.34949  -3031939.74946  22141440.1804   22141444.5024
       230.0004        182.0004
  22215348.4164   -2055708.66249  -1590797.22146  22215347.8654   22215350.4204
       232.0004        182.0004
 07  2 18  2 35 55.0000000  0  8G 1G22G20G19G14G31G25G11
  20725176.9584    -526171.46049   -408330.86648  20725176.6594   20725181.1754
       243.0004        213.0004
  22497239.3854    2016343.00049   1563321.01546  22497239.0264   22497241.4774
       230.0004        185.0004
  24578694.1694    -671835.99549   -504109.60345  24578694.0144   24578698.7584
       201.0004        135.0004
  24416318.8034    2700988.52749   2092971.30745  24416318.4144   24416321.1794
       207.0004        146.0004
  21628014.7084    2195994.63649   1702571.36747  21628014.2674   21628018.0554
       233.0004        193.0004
  20808714.9044   -2229015.91249  -1725432.72648  20808715.2664   20808718.0454
       241.0004        213.0004
  22138529.5124   -3952094.94849  -3043856.83246  22138529.4054   22138533.8824
       229.0004        182.0004
  22214049.9924   -2062531.82349  -1596113.97946  22214049.6434   22214052.6594
       231.0004        182.0004
 07  2 18  2 36  0.0000000  0  8G 1G22G20G19G14G31G25G11
  20725025.9094    -526965.29249   -408949.43648  20725025.6534   20725030.0404
       245.0004        213.0004
  22499049.5484    2025855.56749   1570733.39846  22499049.0224   22499051.6514
       232.0004        185.0004
  24575914.6144    -686442.80749   -515491.53145  24575915.3284   24575919.1194
       201.0004        134.0004
  24418677.4924    2713383.51149   2102629.73545  24418676.6124   24418680.1764
       208.0004        146.0004
  21629938.1494    2206102.34749   1710447.50847  21629937.4364   21629941.4414
       233.0004        193.0004
  20807327.3694   -2236307.47849  -1731114.46348  20807327.5274   20807330.6224
       242.0004        213.0004
  22135620.9064   -3967379.89749  -3055767.17646  22135620.2494   22135625.5994
       230.0004        182.0004
  22212754.2104   -2069341.24549  -1601420.01646  22212754.0604   22212757.4974
       233.0004        183.0004
 07  2 18  2 36  5.0000000  0  8G 1G22G20G19G14G31G25G11
  20724876.4444    -527750.74849   -409561.48148  20724876.3274   20724880.6944
       245.0004        213.0004
  22500860.8584    2035374.04949   1578150.39346  22500861.0584   22500862.1684
       231.0004        185.0004
  24573134.8604    -701050.68549   -526874.28945  24573135.0234   24573139.5204
       201.0004        134.0004
  24421036.4384    2725779.81549   2112289.18645  24421035.6494   24421039.5904
       206.0004        146.0004
  21631862.3424    2216213.96549   1718326.68847  21631862.0744   21631865.9764
       233.0004        193.0004
  20805942.6314   -2243584.23549  -1736784.66248  20805942.8754   20805945.8814
       242.0004        213.0004
  22132713.9324   -3982656.21049  -3067670.79146  22132713.5814   22132718.5544
       230.0004        182.0004
  22211461.0294   -2076136.96349  -1606715.38046  22211461.0854   22211463.8944
       232.0004        183.0004
 07  2 18  2 36 10.0000000  0  8G 1G22G20G19G14G31G25G11
  20724728.5274    -528528.08649   -410167.19348  20724728.2594   20724732.7244
       245.0004        213.0004
  22502673.2664    2044898.20949   1585571.81546  22502673.5434   22502675.3244
       232.0004        185.0004
  24570354.8484    -715659.79849   -538258.00945  24570355.0774   24570360.0114
       199.0004        133.0004
  24423395.5964    2738177.14149   2121949.43545  24423395.0454   24423399.1474
       207.0004        145.0004
  21633787.2154    2226329.22049   1726208.70447  21633786.7714   21633790.7894
       232.0004        193.0004
  20804560.6814   -2250846.44549  -1742443.52548  20804561.0424   20804563.8804
       242.0004        213.0004
  22129808.5334   -3997924.13749  -3079567.87546  22129808.3524   22129812.9164
       229.0004        182.0004
  22210170.4104   -2082919.22649  -1612000.25746  22210170.1794   22210173.4984
       233.0004        183.0004
 07  2 18  2 36 15.0000000  0  8G 1G22G20G19G14G31G25G11
  20724582.2044    -529296.95749   -410766.31148  20724581.9604   20724586.1584
       245.0004        213.0004
  22504486.7824    2054428.31649   1592997.87746  22504486.6584   22504488.4864
       231.0004        185.0004
  24567574.6524    -730269.88749   -549642.48245  24567574.7124   24567579.0854
       200.0004        132.0004
  24425755.0084    2750575.80849   2131610.72845  24425754.5324   24425758.0524
       207.0004        145.0004
  21635712.8554    2236448.47249   1734093.83847  21635712.2484   21635716.2834
       233.0004        193.0004
  20803181.5574   -2258093.77349  -1748090.79048  20803181.6674   20803184.6994
       243.0004        213.0004
  22126904.8214   -4013183.29449  -3091458.11646  22126904.4734   22126908.8314
       230.0004        182.0004
  22208882.4244   -2089687.66849  -1617274.36946  22208882.2114   22208885.5664
       234.0004        183.0004
 07  2 18  2 36 20.0000000  0  8G 1G22G20G19G14G31G25G11
  20724437.5594    -530057.24849   -411358.74448  20724437.2814   20724441.6094
       244.0004        213.0004
  22506301.4964    2063964.58949   1600428.73546  22506301.0024   22506302.8794
       230.0004        185.0004
  24564794.2974    -744880.83349   -561027.62545  24564795.0064   24564798.4754
       198.0004        132.0004
  24428114.6904    2762975.96349   2141273.18345  24428113.7794   24428118.0294
       205.0004        145.0004
  21637639.2834    2246571.82249   1741982.16547  21637638.9244   21637642.7074
       232.0004        193.0004
  20801805.3004   -2265326.06649  -1753726.34148  20801805.6504   20801808.6654
       242.0004        213.0004
  22124002.8154   -4028433.57749  -3103341.45246  22124002.5724   22124007.1234
       228.0004        182.0004
  22207597.0934   -2096442.16649  -1622537.61446  22207596.9714   22207600.1274
       232.0004        183.0004
 07  2 18  2 36 25.0000000  0  8G 1G22G20G19G14G31G25G11
  20724294.4014    -530809.49949   -411944.91448  20724293.9804   20724298.2544
       244.0004        213.0004
  22508117.2554    2073506.44949   1607863.94946  22508117.1754   22508119.0704
       231.0004        185.0004
  24562013.6424    -759493.11349   -572413.80745  24562013.8324   24562017.8014
       200.0004        132.0004
  24430474.5314    2775377.02749   2150936.34645  24430473.7454   24430477.4884
       205.0004        145.0004
  21639566.3684    2256698.72249   1749873.25247  21639566.2304   21639569.6494
       232.0004        193.0004
  20800431.8044   -2272543.84849  -1759350.58248  20800432.0314   20800434.9004
       242.0004        214.0004
  22121102.3564   -4043675.51549  -3115218.27346  22121101.7504   22121106.7394
       230.0004        182.0004
  22206314.3264   -2103183.26449  -1627790.41546  22206313.6194   22206317.2124
       231.0004        183.0004
 07  2 18  2 36 30.0000000  0  8G 1G22G20G19G14G31G25G11
  20724152.8284    -531553.61049   -412524.73448  20724152.3284   20724156.8054
       244.0004        213.0004
  22509934.1004    2083054.01449   1615303.60946  22509934.0674   22509935.6424
       232.0004        184.0004
  24559232.7704    -774106.67849   -583800.98645  24559232.6874   24559238.0354
       199.0004        132.0004
  24432834.5564    2787779.14949   2160600.33145  24432834.3114   24432837.4954
       205.0004        144.0004
  21641494.1294    2266829.28149   1757767.19947  21641493.8664   21641497.4134
       233.0004        193.0004
  20799061.0774   -2279747.01349  -1764963.43348  20799061.1704   20799064.1544
       242.0004        214.0004
  22118203.5354   -4058908.93949  -3127088.47246  22118202.8174   22118207.5984
       230.0004        182.0004
  22205034.1044   -2109910.78349  -1633032.63846  22205034.0154   22205036.4854
       233.0004        183.0004
 07  2 18  2 36 35.0000000  0  8G 1G22G20G19G14G31G25G11
  20724012.8894    -532288.99549   -413097.76248  20724012.4454   20724017.0444
       245.0004        213.0004
  22511752.1444    2092607.90949   1622748.19746  22511751.1094   22511754.3744
       230.0004        184.0004
  24556451.7694    -788720.92149   -595188.69545  24556451.6024   24556457.6594
       197.0004        132.0004
  24435194.9114    2800182.86349   2170265.56045  24435193.6774   24435197.7574
       204.0004        144.0004
  21643422.6774    2276964.07149   1765664.43547  21643422.4004   21643425.9554
       233.0004        193.0004
  20797693.2574   -2286934.97349  -1770564.43948  20797693.3964   20797696.5034
       243.0004        214.0004
  22115306.4474   -4074133.27249  -3138951.57946  22115306.6724   22115311.1294
       230.0004        182.0004
  22203756.5994   -2116624.15749  -1638263.83846  22203756.3594   22203759.3674
       233.0004        183.0004
 07  2 18  2 36 40.0000000  0  8G 1G22G20G19G14G31G25G11
  20723874.5344    -533016.07049   -413664.31148  20723874.0914   20723878.5574
       244.0004        213.0004
  22513571.2594    2102167.70649   1630197.38946  22513570.9994   22513573.4854
       230.0004        184.0004
  24553670.5484    -803336.26049   -606577.25845  24553669.8584   24553676.4864
       196.0004        132.0004
  24437555.5024    2812587.77249   2179931.71245  24437553.7944   24437558.7104
       206.0004        144.0004
  21645351.9714    2287102.68049   1773564.65147  21645351.5954   21645355.0754
       232.0004        193.0004
  20796328.2554   -2294108.08649  -1776153.87648  20796328.6814   20796331.3944
       243.0004        214.0004
  22112411.0264   -4089348.91749  -3150807.92746  22112411.3964   22112415.4994
       230.0004        182.0004
  22202481.7094   -2123323.83349  -1643484.35946  22202480.9224   22202484.8884
       233.0004        183.0004
 07  2 18  2 36 45.0000000  0  8G 1G22G20G19G14G31G25G11
  20723737.7024    -533734.99049   -414224.50948  20723737.3254   20723741.7424
       244.0004        213.0004
  22515391.5114    2111733.27249   1637651.07246  22515391.2794   22515393.5524
       230.0004        184.0004
  24550889.1364    -817952.83749   -617966.77644  24550889.7634   24550894.2364
       199.0004        131.0004
  24439916.2614    2824993.69349   2189598.65945  24439915.3494   24439919.1034
       204.0004        143.0004
  21647281.9574    2297244.95849   1781467.72447  21647281.8394   21647285.5054
       232.0004        193.0004
  20794966.0554   -2301266.54849  -1781731.90048  20794966.4544   20794969.2144
       242.0004        214.0004
  22109517.1964   -4104556.07849  -3162657.65046  22109516.7804   22109521.4454
       228.0004        182.0004
  22201209.3834   -2130009.91649  -1648694.29746  22201209.2034   22201211.5164
       232.0004        183.0004
 07  2 18  2 36 50.0000000  0  8G 1G22G20G19G14G31G25G11
  20723602.5994    -534445.10449   -414777.84248  20723602.1194   20723606.5584
       246.0004        213.0004
  22517213.0074    2121305.24449   1645109.75846  22517212.4584   22517214.6034
       232.0004        184.0004
  24548107.6054    -832569.91749   -629356.69545  24548107.4194   24548112.0614
       200.0004        132.0004
  24442277.3394    2837401.24449   2199266.88845  24442277.0844   24442280.1374
       207.0004        143.0004
  21649212.7774    2307391.54449   1789374.16047  21649212.2924   21649215.8834
       234.0004        193.0004
  20793606.7744   -2308409.69049  -1787297.97748  20793607.0154   20793609.9714
       244.0004        214.0004
  22106625.1344   -4119753.94949  -3174500.13346  22106624.4724   22106629.6884
       232.0004        182.0004
  22199939.7754   -2136681.76049  -1653893.14146  22199939.6724   22199942.2314
       234.0004        183.0004
 07  2 18  2 36 55.0000000  0  8G 1G22G20G19G14G31G25G11
  20723468.8604    -535147.88049   -415325.45648  20723468.5014   20723472.9614
       243.0004        213.0004
  22519035.4044    2130882.13449   1652572.26246  22519034.8674   22519037.2614
       229.0004        184.0004
  24545325.6844    -847189.04549   -640748.20845  24545325.0454   24545330.2744
       201.0004        132.0004
  24444638.4634    2849808.94949   2208935.23745  24444637.5904   24444640.1904
       204.0004        143.0004
  21651144.1534    2317540.96749   1797282.79947  21651143.8554   21651147.4364
       232.0004        193.0004
  20792250.1204   -2315538.96249  -1792853.25348  20792250.2454   20792253.2784
       242.0004        214.0004
  22103734.5494   -4134944.07549  -3186336.59546  22103734.3234   22103738.4054
       230.0004        182.0004
  22198672.5984   -2143340.83849  -1659082.02646  22198672.6894   22198675.1124
       231.0004        183.0004
 07  2 18  2 37  0.0000000  0  8G 1G22G20G19G14G31G25G11
  20723336.8934    -535841.41049   -415865.86848  20723336.5334   20723340.9914
       245.0004        213.0004
  22520859.1254    2140465.88449   1660040.11346  22520858.9544   22520860.9464
       230.0004        184.0004
  24542543.7644    -861808.25849   -652139.79145  24542542.1324   24542547.4954
       197.0004        133.0004
  24446999.9614    2862218.73049   2218605.19445  24446998.8154   24447002.4774
       205.0004        142.0004
  21653076.4264    2327695.15649   1805195.15447  21653076.0474   21653079.7234
       233.0004        193.0004
  20790896.4674   -2322652.46149  -1798396.24148  20790896.9824   20790899.7264
       243.0004        214.0004
  22100845.7874   -4150124.57149  -3198165.54946  22100845.7334   22100850.2964
       229.0004        182.0004
  22197408.2014   -2149985.21349  -1664259.46246  22197407.8944   22197411.0144
       233.0004        183.0004
 07  2 18  2 37  5.0000000  0  8G 1G22G20G19G14G31G25G11
  20723206.4144    -536526.99649   -416400.09148  20723206.1834   20723210.6244
       244.0004        213.0004
  22522683.8814    2150055.20049   1667512.30646  22522683.4914   22522685.7294
       230.0004        184.0004
  24539761.5464    -876428.81649   -663532.41845  24539759.9984   24539765.1894
       200.0004        133.0004
  24449361.6194    2874629.26049   2228275.73045  24449360.5804   24449363.9924
       202.0004        141.0004
  21655009.3394    2337852.81149   1813110.20647  21655009.1094   21655012.9644
       233.0004        193.0004
  20789545.5664   -2329751.45849  -1803927.92148  20789545.9674   20789548.8064
       242.0004        214.0004
  22097958.6364   -4165296.65549  -3209987.94646  22097958.9714   22097962.6704
       229.0004        182.0004
  22196146.3584   -2156616.17849  -1669426.44746  22196146.2484   22196149.5414
       231.0004        183.0004
 07  2 18  2 37 10.0000000  0  8G 1G22G20G19G14G31G25G11
  20723077.5034    -537204.50349   -416928.01748  20723077.1224   20723081.5424
       243.0004        213.0004
  22524509.7484    2159650.21949   1674988.94146  22524509.4974   22524511.9324
       229.0004        184.0004
  24536979.1304    -891050.63549   -674926.03145  24536978.2534   24536982.5724
       203.0004        133.0004
  24451723.4414    2887040.69449   2237946.97245  24451722.0454   24451726.5774
       201.0004        140.0004
  21656942.9734    2348014.02449   1821028.03847  21656943.3104   21656946.6474
       232.0004        193.0004
  20788197.4734   -2336835.80749  -1809448.19348  20788197.6504   20788200.7114
       241.0004        214.0004
  22095073.1164   -4180460.14249  -3221803.64446  22095073.1694   22095077.6364
       228.0004        182.0004
  22194887.1134   -2163233.61349  -1674582.88446  22194887.0594   22194889.6164
       232.0004        183.0004
 07  2 18  2 37 15.0000000  0  8G 1G22G20G19G14G31G25G11
  20722950.1844    -537873.61049   -417449.39847  20722949.9804   20722954.2714
       243.0004        212.0004
  22526336.7594    2169251.27149   1682470.27546  22526336.7924   22526338.9274
       230.0004        184.0004
  24534196.5594    -905673.33649   -686320.32445  24534196.0304   24534200.3224
       202.0004        133.0004
  24454085.4774    2899453.34649   2247619.16645  24454084.4404   24454088.7474
       200.0004        140.0004
  21658877.3204    2358179.14649   1828948.91047  21658877.3914   21658880.7624
       232.0004        193.0004
  20786852.2044   -2343905.18349  -1814956.79348  20786852.6014   20786855.3164
       242.0004        214.0004
  22092189.2874   -4195614.79149  -3233612.45346  22092189.0164   22092193.1354
       229.0004        182.0004
  22193630.4714   -2169837.15349  -1679728.50646  22193630.9894   22193632.7914
       233.0004        183.0004
 07  2 18  2 37 20.0000000  0  8G 1G22G20G19G14G31G25G11
  20722824.3754    -538534.67449   -417964.50747  20722823.9484   20722828.5644
       244.0004        212.0004
  22528164.8504    2178858.00149   1689956.03846  22528164.8064   22528167.0334
       230.0004        184.0004
  24531413.7414    -920297.31349   -697715.61345  24531413.6564   24531417.3584
       205.0004        134.0004
  24456447.6444    2911866.77549   2257291.97145  24456446.7144   24456450.4984
       202.0004        139.0004
  21660812.3814    2368347.80349   1836872.54747  21660812.2824   21660815.9414
       233.0004        193.0004
  20785509.7364   -2350959.90949  -1820453.97648  20785509.8914   20785512.8644
       241.0004        214.0004
  22089307.0914   -4210760.86949  -3245414.58646  22089306.4214   22089311.1924
       228.0004        182.0004
  22192376.4454   -2176427.13449  -1684863.54746  22192376.2684   22192379.1554
       231.0004        183.0004
 07  2 18  2 37 25.0000000  0  8G 1G22G20G19G14G31G25G11
  20722700.1484    -539187.52549   -418473.22047  20722699.7434   20722704.1764
       244.0004        212.0004
  22529994.0504    2188470.57249   1697446.36146  22529993.8404   22529996.1614
       230.0004        184.0004
  24528630.7544    -934922.37749   -709111.75545  24528630.8924   24528634.8334
       204.0004        134.0004
  24458809.9794    2924281.22049   2266965.56945  24458808.5694   24458813.9894
       203.0004        139.0004
  21662748.1424    2378520.17649   1844799.07047  21662747.9824   21662751.6564
       233.0004        193.0004
  20784170.0884   -2357999.79749  -1825939.60248  20784170.4784   20784173.4654
       242.0004        214.0004
  22086426.5924   -4225898.18049  -3257209.88646  22086425.9554   22086430.5524
       229.0004        182.0004
  22191125.0284   -2183003.39849  -1689987.90446  22191125.2944   22191127.3834
       232.0004        183.0004
 07  2 18  2 37 30.0000000  0  8G 1G22G20G19G14G31G25G11
  20722577.5684    -539831.78949   -418975.24247  20722577.0684   20722581.4704
       243.0004        212.0004
  22531824.4584    2198089.39049   1704941.53046  22531823.9234   22531826.7114
       229.0004        184.0004
  24525847.6094    -949548.13349   -720508.43445  24525847.3194   24525851.9704
       204.0004        135.0004
  24461172.6064    2936697.06249   2276640.24745  24461171.2934   24461176.6114
       204.0004        138.0004
  21664684.6994    2388696.64449   1852728.78547  21664684.4314   21664687.7504
       233.0004        193.0004
  20782833.3424   -2365024.46749  -1831413.36948  20782833.6144   20782836.7084
       241.0004        214.0004
  22083547.7644   -4241026.40649  -3268998.10446  22083547.4084   22083551.7654
       230.0004        182.0004
  22189876.3154   -2189565.52249  -1695101.24846  22189876.5084   22189878.9684
       233.0004        183.0004
 07  2 18  2 37 35.0000000  0  8G 1G22G20G19G14G31G25G11
  20722456.5284    -540467.90849   -419470.92047  20722456.1624   20722460.5154
       243.0004        212.0004
  22533655.9684    2207714.00749   1712441.22546  22533656.2244   22533658.1304
       230.0004        184.0004
  24523064.2704    -964175.05649   -731906.02745  24523062.9674   24523068.8454
       205.0004        135.0004
  24463535.4404    2949113.80449   2286315.62345  24463533.9584   24463539.3864
       204.0004        138.0004
  21666621.9304    2398876.73449   1860661.32147  21666621.8704   21666625.1884
       233.0004        193.0004
  20781499.4024   -2372034.36149  -1836875.62348  20781499.7474   20781502.8224
       242.0004        214.0004
  22080670.6284   -4256145.94449  -3280779.55846  22080670.4504   22080674.6924
       229.0004        182.0004
  22188630.2014   -2196113.97349  -1700203.94546  22188630.3614   22188632.8304
       232.0004        183.0004
 07  2 18  2 37 40.0000000  0  8G 1G22G20G19G14G31G25G11
  20722336.9924    -541096.06449   -419960.38847  20722336.2154   20722341.0514
       243.0004        212.0004
  22535488.5594    2217344.23949   1719945.30846  22535488.6764   22535490.8754
       230.0004        184.0004
  24520280.6854    -978803.28749   -743304.64645  24520279.9334   24520285.0254
       206.0004        135.0004
  24465898.4094    2961531.25149   2295991.55545  24465897.5524   24465902.9924
       203.0004        138.0004
  21668559.8364    2409060.28149   1868596.55847  21668559.4284   21668562.9264
       233.0004        193.0004
  20780168.2254   -2379029.67449  -1842326.50648  20780168.4294   20780171.4344
       242.0004        214.0004
  22077795.1074   -4271256.92349  -3292554.33546  22077794.9914   22077799.1204
       230.0004        182.0004
  22187386.6554   -2202648.92649  -1705296.11046  22187385.9824   22187389.1934
       231.0004        183.0004
 07  2 18  2 37 45.0000000  0  8G 1G22G20G19G14G31G25G11
  20722219.0704    -541715.70649   -420443.22547  20722218.4274   20722223.0704
       243.0004        212.0004
  22537322.2994    2226980.66149   1727454.20246  22537322.5964   22537324.4264
       231.0004        184.0004
  24517496.9394    -993432.21449   -754703.80445  24517496.1214   24517501.2854
       203.0004        135.0004
  24468261.5984    2973949.94449   2305668.45845  24468260.9354   24468264.8084
       205.0004        138.0004
  21670498.4814    2419247.82049   1876534.89847  21670498.2764   21670501.7144
       233.0004        193.0004
  20778839.9624   -2386009.79949  -1847765.56748  20778840.3784   20778843.1314
       242.0004        214.0004
  22074921.3074   -4286358.81749  -3304322.04146  22074920.9404   22074925.3564
       230.0004        182.0004
  22186145.7644   -2209169.82049  -1710377.31846  22186145.0514   22186148.9214
       232.0004        184.0004
 07  2 18  2 37 50.0000000  0  8G 1G22G20G19G14G31G25G11
  20722102.7224    -542327.11249   -420919.64747  20722101.9874   20722106.8064
       244.0004        212.0004
  22539157.1834    2236622.95349   1734967.67146  22539157.3264   22539159.2934
       230.0004        184.0004
  24514712.9654   -1008062.24349   -766103.82345  24514713.1474   24514718.4564
       205.0004        135.0004
  24470625.0384    2986369.63949   2315346.14445  24470624.8594   24470627.8694
       206.0004        138.0004
  21672437.8354    2429439.08149   1884476.13647  21672437.6044   21672440.9434
       233.0004        193.0004
  20777514.5064   -2392975.04049  -1853193.02648  20777514.7864   20777517.6864
       242.0004        214.0004
  22072049.1714   -4301451.86449  -3316082.85346  22072048.7494   22072053.2764
       228.0004        182.0004
  22184907.4904   -2215676.90149  -1715447.77746  22184907.2084   22184910.2864
       232.0004        184.0004
 07  2 18  2 37 55.0000000  0  8G 1G22G20G19G14G31G25G11
  20721987.8444    -542930.67949   -421389.95547  20721987.1974   20721991.9784
       243.0004        212.0004
  22540993.1434    2246270.77749   1742485.45946  22540993.3754   22540995.0404
       230.0004        184.0004
  24511928.7264   -1022693.63949   -777504.90645  24511929.2444   24511935.2564
       204.0004        134.0004
  24472988.5724    2998789.94149   2325024.29445  24472988.1234   24472992.0834
       206.0004        138.0004
  21674377.8374    2439633.67949   1892419.98047  21674377.6214   21674380.8734
       232.0004        193.0004
  20776191.8284   -2399925.75949  -1858609.17148  20776192.2214   20776195.1584
       242.0004        214.0004
  22069178.6504   -4316536.43449  -3327837.05446  22069178.7754   22069182.7554
       230.0004        182.0004
  22183671.7844   -2222170.56449  -1720507.77446  22183671.2544   22183674.2684
       232.0004        184.0004
 07  2 18  2 38  0.0000000  0  8G 1G22G20G19G14G31G25G11
  20721874.6064    -543525.66549   -421853.57947  20721873.9654   20721878.4854
       244.0004        212.0004
  22542830.2684    2255924.87649   1750008.12146  22542830.2034   22542831.9614
       230.0004        183.0004
  24509144.3584   -1037325.70449   -788906.51845  24509146.5714   24509149.4254
       203.0004        133.0004
  24475352.3784    3011211.54549   2334703.46245  24475351.7174   24475355.6424
       205.0004        138.0004
  21676318.5634    2449832.29849   1900366.95747  21676318.2974   21676321.8694
       233.0004        193.0004
  20774872.0544   -2406861.21349  -1864013.41748  20774872.3854   20774875.3454
       243.0004        214.0004
  22066309.8864   -4331611.79449  -3339584.07846  22066309.5824   22066314.2154
       230.0004        182.0004
  22182438.7784   -2228650.05949  -1725556.73546  22182438.5374   22182440.8694
       233.0004        184.0004
 07  2 18  2 38  5.0000000  0  8G 1G22G20G19G14G31G25G11
  20721762.9054    -544112.51849   -422310.86247  20721762.3224   20721766.9674
       243.0004        212.0004
  22544668.5124    2265584.82049   1757535.35246  22544668.5614   22544670.3724
       229.0004        183.0004
  24506359.7194   -1051958.85449   -800308.97145  24506359.3704   24506363.5924
       201.0004        133.0004
  24477716.3484    3023633.99549   2344383.28545  24477716.4204   24477718.9554
       205.0004        139.0004
  21678259.9974    2460034.59149   1908316.80447  21678259.4234   21678263.1714
       233.0004        192.0004
  20773555.1234   -2413781.83549  -1869406.10448  20773555.3974   20773558.2764
       242.0004        214.0004
  22063442.7964   -4346678.35449  -3351324.24646  22063442.4574   22063447.0164
       231.0004        182.0004
  22181208.3584   -2235115.82049  -1730594.97846  22181208.1594   22181211.2754
       232.0004        184.0004
 07  2 18  2 38 10.0000000  0  8G 1G22G20G19G14G31G25G11
  20721652.7224    -544691.50749   -422762.02247  20721652.0594   20721656.6644
       244.0004        212.0004
  22546507.7974    2275250.33849   1765066.92146  22546507.5484   22546509.8384
       230.0004        183.0004
  24503574.8664   -1066593.28349   -811712.41045  24503574.0894   24503577.9724
       203.0004        132.0004
  24480080.4074    3036057.03249   2354063.57045  24480080.4334   24480083.2394
       206.0004        139.0004
  21680202.0694    2470240.25049   1916269.25947  21680201.4494   21680205.1904
       232.0004        192.0004
  20772240.9524   -2420687.90749  -1874787.45948  20772241.2574   20772244.1614
       242.0004        214.0004
  22060577.3454   -4361736.38149  -3363057.77346  22060576.8604   22060581.4174
       231.0004        182.0004
  22179980.4904   -2241568.15249  -1735622.76746  22179980.6594   22179983.6474
       233.0004        184.0004
 07  2 18  2 38 15.0000000  0  8G 1G22G20G19G14G31G25G11
  20721544.1284    -545262.12749   -423206.65947  20721543.4744   20721548.2524
       244.0004        212.0004
  22548348.2464    2284921.90549   1772603.21146  22548348.1534   22548350.7004
       230.0004        183.0004
  24500789.8474   -1081228.57549   -823116.53645  24500788.5974   24500793.0904
       204.0004        132.0004
  24482444.6934    3048481.16049   2363744.70545  24482444.9264   24482447.4124
       206.0004        138.0004
  21682144.8774    2480449.77949   1924224.73547  21682144.5844   21682147.8824
       232.0004        192.0004
  20770929.6524   -2427578.87649  -1880157.04148  20770929.8444   20770932.7144
       242.0004        214.0004
  22057713.6204   -4376785.36149  -3374784.23546  22057713.4534   22057717.6614
       229.0004        183.0004
  22178755.3194   -2248006.46849  -1740639.63846  22178755.0474   22178758.1714
       234.0004        184.0004
 07  2 18  2 38 20.0000000  0  8G 1G22G20G19G14G31G25G11
  20721437.1564    -545824.22049   -423644.65447  20721436.8384   20721441.3124
       244.0004        212.0004
  22550189.8474    2294599.68349   1780144.32846  22550189.6294   22550192.0604
       229.0004        183.0004
  24498004.7124   -1095864.56549   -834521.20544  24498004.3354   24498008.0634
       204.0004        131.0004
  24484809.2194    3060906.49949   2373426.79245  24484809.2394   24484811.2154
       205.0004        139.0004
  21684088.4424    2490663.30549   1932183.32747  21684087.9284   21684091.6624
       232.0004        192.0004
  20769621.2554   -2434454.58349  -1885514.73248  20769621.6404   20769624.4094
       243.0004        214.0004
  22054851.6414   -4391825.15849  -3386503.56346  22054851.3644   22054856.1544
       231.0004        183.0004
  22177532.8604   -2254430.61149  -1745645.46746  22177533.4534   22177535.6314
       233.0004        184.0004
 07  2 18  2 38 25.0000000  0  8G 1G22G20G19G14G31G25G11
  20721331.6564    -546378.58649   -424076.62147  20721331.0714   20721335.5774
       245.0004        212.0004
  22552032.5234    2304282.93349   1787689.72146  22552032.5134   22552034.2834
       230.0004        183.0004
  24495219.2814   -1110502.02249   -845927.01644  24495218.7534   24495223.3984
       204.0004        131.0004
  24487173.7954    3073332.27949   2383109.21245  24487173.7024   24487176.1954
       205.0004        138.0004
  21686032.5924    2500880.03149   1940144.42147  21686032.0824   21686035.8574
       232.0004        192.0004
  20768315.5844   -2441315.83849  -1890861.15748  20768315.6544   20768318.6454
       243.0004        214.0004
  22051991.2594   -4406856.48549  -3398216.26746  22051990.9544   22051995.9194
       231.0004        183.0004
  22176312.9614   -2260841.39949  -1750640.88246  22176312.4884   22176315.8514
       234.0004        184.0004
 07  2 18  2 38 30.0000000  0  8G 1G22G20G19G14G31G25G11
  20721227.6924    -546924.83949   -424502.27847  20721227.4334   20721231.6864
       243.0004        212.0004
  22553876.2924    2313972.03749   1795239.66346  22553876.2364   22553877.3554
       230.0004        183.0004
  24492433.6674   -1125140.54049   -857333.65744  24492433.0214   24492437.3044
       204.0004        131.0004
  24489538.5214    3085758.84549   2392792.25045  24489537.6264   24489540.8194
       205.0004        138.0004
  21687977.4564    2511100.35049   1948108.29847  21687977.1364   21687981.0884
       232.0004        192.0004
  20767012.7544   -2448162.24449  -1896196.01948  20767013.0264   20767015.9744
       242.0004        214.0004
  22049132.5894   -4421878.94249  -3409922.07846  22049132.4334   22049136.7994
       230.0004        183.0004
  22175095.6584   -2267238.39849  -1755625.55946  22175095.8114   22175098.5994
       234.0004        184.0004
 07  2 18  2 38 35.0000000  0  8G 1G22G20G19G14G31G25G11
  20721125.3664    -547462.71249   -424921.39347  20721124.9044   20721129.3424
       244.0004        212.0004
  22555721.2284    2323667.21249   1802794.35446  22555721.0394   22555722.7884
       229.0004        183.0004
  24489647.9054   -1139779.87049   -868740.92544  24489646.3014   24489650.9714
       204.0004        131.0004
  24491903.4524    3098186.49849   2402476.13145  24491903.0184   24491905.9364
       206.0004        138.0004
  21689923.0544    2521324.53449   1956075.19747  21689922.4894   21689926.0624
       232.0004        192.0004
  20765712.8184   -2454993.49549  -1901519.06848  20765712.8864   20765716.0674
       242.0004        214.0004
  22046275.6294   -4436892.26549  -3421620.75146  22046275.3514   22046280.3334
       231.0004        183.0004
  22173881.0454   -2273621.33949  -1760599.27646  22173881.2914   22173883.6984
       234.0004        185.0004
 07  2 18  2 38 40.0000000  0  8G 1G22G20G19G14G31G25G11
  20721024.5674    -547992.37449   -425334.12047  20721024.0844   20721028.7344
       243.0004        212.0004
  22557567.2904    2333368.34849   1810353.67546  22557567.3714   22557569.3374
       230.0004        183.0004
  24486861.9784   -1154420.12749   -880148.91145  24486860.2094   24486865.1964
       204.0004        132.0004
  24494268.5454    3110615.02449   2412160.68845  24494267.6914   24494270.2844
       205.0004        138.0004
  21691869.3314    2531552.43749   1964044.98947  21691868.9824   21691872.6694
       232.0004        192.0004
  20764415.7314   -2461809.74349  -1906830.43048  20764415.8644   20764418.9014
       241.0004        214.0004
  22043420.3934   -4451896.61549  -3433312.45346  22043420.1884   22043424.6314
       230.0004        183.0004
  22172669.0574   -2279990.40349  -1765562.18746  22172669.2314   22172671.9164
       233.0004        185.0004
 07  2 18  2 38 45.0000000  0  8G 1G22G20G19G14G31G25G11
  20720925.2654    -548514.19049   -425740.72547  20720924.6424   20720929.3074
       243.0004        212.0004
  22559414.4034    2343075.08849   1817917.36846  22559414.2134   22559416.4984
       229.0004        182.0004
  24484075.7824   -1169061.69649   -891557.92245  24484074.4784   24484080.1454
       204.0004        132.0004
  24496633.7044    3123044.05949   2421845.64645  24496633.1144   24496635.2974
       206.0004        138.0004
  21693816.2734    2541783.65749   1972017.36747  21693816.1644   21693819.3764
       232.0004        192.0004
  20763121.4114   -2468611.33849  -1912130.37148  20763121.6304   20763124.4334
       242.0004        214.0004
  22040566.8224   -4466892.36249  -3444997.44546  22040566.7634   22040570.6074
       229.0004        183.0004
  22171459.6834   -2286345.92149  -1770514.53146  22171459.5684   22171462.2484
       233.0004        185.0004
 07  2 18  2 38 50.0000000  0  8G 1G22G20G19G14G31G25G11
  20720827.5264    -549027.69949   -426140.86147  20720826.9104   20720831.5604
       243.0004        212.0004
  22561262.6944    2352787.90549   1825485.79446  22561262.3134   22561264.0174
       229.0004        182.0004
  24481289.4774   -1183704.08549   -902967.56445  24481288.1174   24481294.6754
       206.0004        133.0004
  24498999.0734    3135474.04549   2431531.34945  24498998.9264   24499001.2354
       206.0004        138.0004
  21695763.9554    2552018.66349   1979992.70247  21695763.3164   21695767.2204
       231.0004        192.0004
  20761829.9984   -2475397.81249  -1917418.53048  20761830.2744   20761833.1494
       241.0004        214.0004
  22037714.9684   -4481878.97549  -3456675.31246  22037714.6284   22037718.9004
       229.0004        184.0004
  22170252.9554   -2292687.42949  -1775455.96946  22170252.6934   22170255.5894
       233.0004        185.0004
 07  2 18  2 38 55.0000000  0  8G 1G22G20G19G14G31G25G11
  20720731.4644    -549532.47249   -426534.19047  20720730.9464   20720735.7054
       243.0004        212.0004
  22563112.2154    2362507.22649   1833059.28846  22563112.0934   22563114.0554
       229.0004        182.0004
  24478503.0694   -1198346.88749   -914377.52545  24478503.3154   24478508.0934
       205.0004        133.0004
  24501364.6784    3147905.39949   2441218.12345  24501364.4984   24501366.5884
       208.0004        138.0004
  21697712.3904    2562257.89549   1987971.31947  21697712.0864   21697715.4154
       232.0004        192.0004
  20760541.5154   -2482168.74149  -1922694.58048  20760541.7964   20760544.7634
       241.0004        214.0004
  22034864.9394   -4496855.99649  -3468345.71746  22034864.5614   22034869.2434
       230.0004        184.0004
  22169048.9874   -2299014.52049  -1780386.16646  22169048.9374   22169051.7854
       232.0004        185.0004
 07  2 18  2 39  0.0000000  0  8G 1G22G20G19G14G31G25G11
  20720636.8244    -550029.76849   -426921.69547  20720636.4824   20720641.1794
       244.0004        212.0004
  22564962.7454    2372231.80349   1840636.87646  22564962.3824   22564964.3164
       229.0004        182.0004
  24475716.3584   -1212991.34949   -925788.78045  24475716.5944   24475721.0614
       205.0004        133.0004
  24503730.3194    3160336.89849   2450905.00745  24503730.2214   24503732.0214
       209.0004        138.0004
  21699661.4114    2572500.07749   1995952.24047  21699660.9774   21699664.5264
       231.0004        192.0004
  20759255.7654   -2488925.38549  -1927959.49248  20759255.9564   20759259.0454
       241.0004        214.0004
  22032016.4534   -4511824.76449  -3480009.68246  22032015.8134   22032020.6784
       230.0004        184.0004
  22167847.4824   -2305328.38349  -1785306.06046  22167847.1894   22167850.6374
       233.0004        185.0004
 07  2 18  2 39  5.0000000  0  8G 1G22G20G19G14G31G25G11
  20720543.7154    -550519.09749   -427302.98347  20720543.0674   20720547.9884
       244.0004        212.0004
  22566814.3424    2381962.11049   1848218.93546  22566814.3204   22566816.3364
       230.0004        182.0004
  24472929.3994   -1227636.91649   -937200.90745  24472928.4644   24472933.8364
       204.0004        134.0004
  24506096.1044    3172768.98449   2460592.35945  24506094.7744   24506097.5794
       210.0004        138.0004
  21701611.1044    2582745.69349   2003935.84047  21701610.9474   21701614.6854
       233.0004        192.0004
  20757972.8294   -2495667.19549  -1933212.84748  20757973.2344   20757975.9764
       242.0004        214.0004
  22029169.6584   -4526784.70049  -3491666.76746  22029169.2834   22029173.6724
       231.0004        184.0004
  22166648.6244   -2311628.55349  -1790215.28046  22166648.2294   22166651.1884
       234.0004        185.0004
 07  2 18  2 39 10.0000000  0  8G 1G22G20G19G14G31G25G11
  20720452.2364    -550999.81149   -427677.56547  20720451.9004   20720456.4114
       243.0004        212.0004
  22568667.1844    2391698.80049   1855805.96546  22568667.0674   22568669.1924
       228.0004        182.0004
  24470142.3444   -1242282.99249   -948613.43045  24470141.6834   24470146.5594
       202.0004        134.0004
  24508462.1324    3185202.32349   2470280.68345  24508461.7854   24508464.5004
       208.0004        138.0004
  21703561.5474    2592995.39649   2011922.62247  21703561.5474   21703564.9534
       232.0004        192.0004
  20756692.8394   -2502393.57149  -1938454.17748  20756693.0604   20756696.0604
       242.0004        214.0004
  22026324.7024   -4541735.12749  -3503316.44246  22026324.3434   22026328.5614
       231.0004        184.0004
  22165452.4384   -2317914.40949  -1795113.35346  22165452.0574   22165455.4914
       233.0004        185.0004
 07  2 18  2 39 15.0000000  0  8G 1G22G20G19G14G31G25G11
  20720362.2844    -551472.59249   -428045.96547  20720361.8424   20720366.5714
       243.0004        212.0004
  22570521.0704    2401441.20749   1863397.44746  22570521.3134   22570523.2754
       227.0004        182.0004
  24467355.0604   -1256930.23249   -960026.85445  24467353.7634   24467358.0654
       204.0004        134.0004
  24510828.2394    3197636.20049   2479969.42245  24510827.5974   24510829.8614
       208.0004        138.0004
  21705512.6644    2603248.51349   2019912.06447  21705512.6264   21705516.6094
       231.0004        192.0004
  20755415.6534   -2509105.12049  -1943683.95348  20755415.7954   20755418.9844
       242.0004        214.0004
  22023481.3804   -4556676.79149  -3514959.28946  22023481.0214   22023485.7934
       231.0004        184.0004
  22164258.8834   -2324186.59949  -1800000.76946  22164259.1234   22164262.0814
       234.0004        185.0004
 07  2 18  2 39 20.0000000  0  8G 1G22G20G19G14G31G25G11
  20720273.8214    -551937.33049   -428408.09747  20720273.4334   20720277.9774
       243.0004        212.0004
  22572376.0904    2411189.44649   1870993.47346  22572376.3094   22572378.2264
       229.0004        182.0004
  24464567.5594   -1271578.60049   -971441.15745  24464566.4434   24464571.5404
       202.0004        134.0004
  24513194.4634    3210070.73349   2489658.66945  24513194.4894   24513196.2004
       208.0004        137.0004
  21707464.4244    2613505.12549   2027904.22947  21707464.0954   21707467.8904
       233.0004        192.0004
  20754141.3514   -2515801.74749  -1948902.10048  20754141.5274   20754144.6204
       242.0004        214.0004
  22020639.7624   -4571609.50849  -3526595.16946  22020639.4394   22020644.3074
       231.0004        184.0004
  22163067.9494   -2330444.96949  -1804877.42146  22163067.4184   22163070.8984
       233.0004        185.0004
 07  2 18  2 39 25.0000000  0  8G 1G22G20G19G14G31G25G11
  20720186.9654    -552393.75749   -428763.75547  20720186.4934   20720191.2574
       243.0004        212.0004
  22574232.2944    2420943.80549   1878594.27146  22574232.9244   22574234.0814
       229.0004        181.0004
  24461779.8544   -1286227.74849   -982856.06745  24461778.4634   24461783.7374
       200.0004        134.0004
  24515560.8374    3222506.20949   2499348.66045  24515560.9604   24515562.7554
       208.0004        138.0004
  21709416.9374    2623765.54049   2035899.35147  21709416.9134   21709420.2264
       232.0004        192.0004
  20752869.9104   -2522483.18549  -1954108.41748  20752870.2874   20752873.2394
       241.0004        214.0004
  22017799.9124   -4586532.99349  -3538223.85546  22017800.2844   22017804.2404
       230.0004        184.0004
  22161879.7094   -2336689.23449  -1809743.08246  22161879.2504   22161882.3974
       233.0004        185.0004
 07  2 18  2 39 30.0000000  0  8G 1G22G20G19G14G31G25G11
  20720101.6274    -552842.23249   -429113.21247  20720101.1124   20720105.6824
       244.0004        212.0004
  22576089.6034    2430703.92949   1886199.56746  22576089.6284   22576091.6054
       229.0004        181.0004
  24458991.9524   -1300877.97049   -994271.81845  24458990.1834   24458995.6674
       199.0004        134.0004
  24517927.3494    3234942.24249   2509039.08445  24517927.6424   24517928.6884
       210.0004        138.0004
  21711370.0674    2634029.35649   2043897.13647  21711369.7614   21711373.5134
       233.0004        192.0004
  20751601.2904   -2529149.77649  -1959303.15648  20751601.3254   20751604.3414
       243.0004        214.0004
  22014961.7684   -4601447.55949  -3549845.58646  22014961.6994   22014965.4184
       231.0004        184.0004
  22160694.0864   -2342919.73549  -1814598.01446  22160693.3314   22160696.3714
       235.0004        185.0004
 07  2 18  2 39 35.0000000  0  8G 1G22G20G19G14G31G25G11
  20720017.7784    -553282.80449   -429456.51247  20720017.1114   20720021.8174
       243.0004        212.0004
  22577947.9794    2440469.74749   1893809.29546  22577947.8324   22577949.7754
       229.0004        181.0004
  24456203.8234   -1315529.32649  -1005688.44845  24456201.6344   24456207.6694
       201.0004        132.0004
  24520293.9624    3247378.75649   2518729.88045  24520293.5144   24520294.9024
       207.0004        137.0004
  21713323.8684    2644296.52149   2051897.53047  21713323.4794   21713327.1074
       232.0004        192.0004
  20750335.4824   -2535801.54649  -1964486.35248  20750335.6624   20750338.6414
       241.0004        214.0004
  22012125.2784   -4616353.27649  -3561460.41846  22012124.6734   22012129.2864
       230.0004        184.0004
  22159511.0394   -2349136.54749  -1819442.27946  22159510.7704   22159513.4944
       233.0004        185.0004
 07  2 18  2 39 40.0000000  0  8G 1G22G20G19G14G31G25G11
  20719935.5774    -553714.77349   -429793.11347  20719935.0874   20719939.6984
       244.0004        212.0004
  22579807.6064    2450241.97449   1901424.00646  22579807.9844   22579809.5804
       229.0004        181.0004
  24453415.6044   -1330181.13049  -1017105.41745  24453413.4444   24453419.5014
       203.0004        132.0004
  24522660.7624    3259816.43849   2528421.58245  24522660.0164   24522662.1074
       208.0004        137.0004
  21715278.4244    2654567.74849   2059901.08147  21715278.2764   21715281.6694
       232.0004        192.0004
  20749072.6594   -2542437.81649  -1969657.47048  20749073.0264   20749075.9674
       242.0004        214.0004
  22009290.6124   -4631249.45149  -3573067.81846  22009290.1354   22009294.7094
       230.0004        184.0004
  22158330.7644   -2355338.97749  -1824275.34746  22158330.3674   22158333.6554
       233.0004        185.0004
 07  2 18  2 39 45.0000000  0  8G 1G22G20G19G14G31G25G11
  20719854.8604    -554138.91449   -430123.60747  20719854.3834   20719858.9234
       244.0004        212.0004
  22581668.2834    2460019.86149   1909043.15146  22581667.9874   22581670.4804
       228.0004        181.0004
  24450627.1774   -1344834.14149  -1028523.33445  24450625.6144   24450631.8574
       202.0004        132.0004
  24525027.6424    3272254.48149   2538113.56145  24525026.4874   24525029.5874
       207.0004        136.0004
  21717233.6164    2664842.26549   2067907.20047  21717232.7134   21717236.7504
       232.0004        192.0004
  20747812.6144   -2549059.34149  -1974817.09848  20747812.9384   20747815.7874
       242.0004        214.0004
  22006457.6224   -4646136.82049  -3584668.36046  22006457.5164   22006461.8434
       231.0004        184.0004
  22157153.1024   -2361527.75649  -1829097.77246  22157153.2024   22157155.5364
       233.0004        185.0004
 07  2 18  2 39 50.0000000  0  8G 1G22G20G19G14G31G25G11
  20719775.7054    -554554.97949   -430447.81747  20719775.2384   20719779.9154
       243.0004        212.0004
  22583530.0484    2469803.62649   1916666.85746  22583530.1774   22583532.0094
       228.0004        181.0004
  24447838.5734   -1359488.11349  -1039942.00745  24447837.3344   24447842.9824
       203.0004        132.0004
  24527394.6514    3284693.16049   2547806.02845  24527392.5694   24527397.1434
       206.0004        136.0004
  21719189.4614    2675120.27949   2075916.03647  21719188.7394   21719192.7254
       231.0004        192.0004
  20746555.4324   -2555665.86249  -1979965.03648  20746555.6984   20746558.6104
       241.0004        214.0004
  22003626.3794   -4661015.14149  -3596261.85746  22003625.8874   22003630.7074
       231.0004        184.0004
  22155978.0904   -2367702.59249  -1833909.33446  22155977.6864   22155980.6444
       233.0004        185.0004
 07  2 18  2 39 55.0000000  0  8G 1G22G20G19G14G31G25G11
  20719698.0524    -554963.06349   -430765.79747  20719697.4724   20719702.1294
       244.0004        212.0004
  22585392.9434    2479593.21349   1924295.10746  22585392.5484   22585394.9494
       228.0004        181.0004
  24445049.7994   -1374143.10749  -1051361.48445  24445048.3354   24445053.1514
       205.0004        132.0004
  24529761.7444    3297132.36549   2557498.91145  24529760.3004   24529763.6184
       208.0004        135.0004
  21721145.9514    2685401.75549   2083927.58747  21721145.4844   21721149.1674
       233.0004        192.0004
  20745301.0984   -2562257.48649  -1985101.35548  20745301.2174   20745304.2924
       243.0004        214.0004
  22000796.8394   -4675884.46249  -3607848.32746  22000796.0564   22000801.1774
       231.0004        184.0004
  22154805.6754   -2373863.64649  -1838710.14846  22154805.6174   22154808.0974
       234.0004        185.0004
 07  2 18  2 40  0.0000000  0  8G 1G22G20G19G14G31G25G11
  20719621.9214    -555363.02449   -431077.45847  20719621.5054   20719625.8414
       243.0004        212.0004
  22587256.9554    2489388.74749   1931927.98446  22587256.7184   22587259.1604
       227.0004        181.0004
  24442260.8394   -1388798.98349  -1062781.64845  24442258.5574   24442264.5574
       203.0004        132.0004
  24532128.9674    3309572.22249   2567192.31045  24532127.9714   24532130.3744
       207.0004        135.0004
  21723103.1324    2695686.81649   2091941.91647  21723102.4694   21723106.2734
       232.0004        192.0004
  20744049.6114   -2568834.01949  -1990225.93248  20744049.8834   20744052.8054
       241.0004        214.0004
  21997969.0264   -4690744.62249  -3619427.66546  21997969.0134   21997972.9314
       232.0004        184.0004
  22153635.9304   -2380010.72249  -1843500.08646  22153635.4974   22153638.6984
       233.0004        185.0004
 07  2 18  2 40  5.0000000  0  8G 1G22G20G19G14G31G25G11
  20719547.3514    -555754.89349   -431382.80947  20719546.9164   20719551.5644
       243.0004        212.0004
  22589122.1074    2499190.20349   1939565.47946  22589121.8464   22589124.3574
       227.0004        181.0004
  24439471.7454   -1403455.77349  -1074202.52745  24439470.3974   24439475.5944
       204.0004        132.0004
  24534496.2874    3322012.72949   2576886.21145  24534495.3424   24534497.8654
       209.0004        136.0004
  21725060.9814    2705975.41949   2099959.00747  21725060.5944   21725063.8814
       232.0004        192.0004
  20742800.9854   -2575395.49549  -1995338.76648  20742801.1584   20742804.2894
       241.0004        214.0004
  21995142.9624   -4705595.67249  -3630999.91346  21995142.9294   21995146.5544
       231.0004        184.0004
  22152468.8474   -2386143.83949  -1848279.13546  22152468.7954   22152471.1284
       232.0004        185.0004
 07  2 18  2 40 10.0000000  0  8G 1G22G20G19G14G31G25G11
  20719474.3554    -556138.46849   -431681.69747  20719473.7974   20719478.4414
       243.0004        212.0004
  22590988.4264    2508997.80849   1947207.76646  22590988.2644   22590990.0794
       228.0004        180.0004
  24436682.5114   -1418113.26949  -1085623.95945  24436681.9074   24436686.6354
       205.0004        132.0004
  24536863.8234    3334454.06649   2586580.76745  24536862.8034   24536865.5494
       209.0004        136.0004
  21727019.5454    2716267.78849   2107979.03747  21727018.9284   21727022.7554
       231.0004        192.0004
  20741555.2794   -2581941.71949  -2000439.71848  20741555.4304   20741558.3934
       241.0004        214.0004
  21992318.6724   -4720437.39349  -3642564.88246  21992318.4954   21992323.0194
       230.0004        184.0004
  22151304.4424   -2392262.82449  -1853047.17246  22151303.6524   22151306.8694
       232.0004        185.0004
 07  2 18  2 40 15.0000000  0  8G 1G22G20G19G14G31G25G11
  20719402.8334    -556514.30149   -431974.55147  20719402.2964   20719406.8824
       243.0004        212.0004
  22592855.8024    2518811.04049   1954854.43846  22592856.1814   22592858.0054
       227.0004        180.0004
  24433893.0474   -1432772.02349  -1097046.36645  24433892.8484   24433895.9634
       205.0004        133.0004
  24539231.3724    3346895.64449   2596275.49945  24539229.9654   24539233.1004
       209.0004        137.0004
  21728978.6974    2726563.35549   2116001.55547  21728978.0714   21728981.8344
       231.0004        192.0004
  20740312.3744   -2588473.22549  -2005529.20348  20740312.7304   20740315.5364
       241.0004        214.0004
  21989496.0734   -4735270.25649  -3654122.95246  21989496.0094   21989500.0114
       231.0004        184.0004
  22150142.6214   -2398368.19949  -1857804.60946  22150142.5254   22150145.5064
       234.0004        185.0004
 07  2 18  2 40 20.0000000  0  8G 1G22G20G19G14G31G25G11
  20719332.8384    -556882.10249   -432261.15047  20719332.2654   20719336.9584
       244.0004        212.0004
  22594724.3324    2528630.16649   1962505.70946  22594724.8474   22594726.7044
       228.0004        180.0004
  24431103.4364   -1447431.75949  -1108469.53145  24431103.7294   24431106.7304
       203.0004        134.0004
  24541599.0284    3359337.74649   2605970.64445  24541598.0254   24541599.8794
       211.0004        137.0004
  21730938.5364    2736862.38449   2124026.77747  21730937.8454   21730941.5424
       232.0004        192.0004
  20739072.3144   -2594989.69449  -2010606.96648  20739072.3694   20739075.6024
       242.0004        214.0004
  21986675.1814   -4750093.99249  -3665673.90346  21986675.0824   21986679.2544
       232.0004        184.0004
  22148983.4504   -2404459.67249  -1862551.20746  22148983.2284   22148985.9894
       235.0004        185.0004
 07  2 18  2 40 25.0000000  0  8G 1G22G20G19G14G31G25G11
  20719264.4674    -557241.43349   -432541.14847  20719264.2124   20719268.6994
       243.0004        212.0004
  22596594.0894    2538455.62549   1970161.90746  22596594.3234   22596596.5174
       227.0004        180.0004
  24428313.7254   -1462091.96049  -1119893.06245  24428314.1304   24428318.2144
       205.0004        134.0004
  24543966.9044    3371780.83549   2615666.56545  24543966.2664   24543968.8274
       211.0004        138.0004
  21732899.0884    2747165.35049   2132055.06447  21732898.5774   21732902.5204
       230.0004        192.0004
  20737835.2104   -2601490.68349  -2015672.67248  20737835.3354   20737838.5114
       240.0004        214.0004
  21983856.1444   -4764908.14349  -3677217.40146  21983856.9734   21983859.9384
       232.0004        184.0004
  22147827.0174   -2410536.77249  -1867286.61146  22147826.6894   22147829.5404
       234.0004        185.0004
 07  2 18  2 40 30.0000000  0  8G 1G22G20G19G14G31G25G11
  20719197.5964    -557592.71149   -432814.87247  20719197.2084   20719201.7394
       243.0004        212.0004
  22598464.9424    2548286.99749   1977822.72246  22598465.4784   22598467.9084
       227.0004        180.0004
  24425523.8144   -1476753.10149  -1131317.32445  24425524.2014   24425528.3294
       206.0004        135.0004
  24546334.8794    3384224.46449   2625362.91245  24546334.4464   24546336.7914
       212.0004        139.0004
  21734860.3364    2757471.83349   2140086.08347  21734859.8804   21734863.6584
       230.0004        192.0004
  20736600.9794   -2607976.59249  -2020726.62748  20736601.2704   20736604.4174
       240.0004        214.0004
  21981038.8444   -4779713.21449  -3688753.81446  21981038.7444   21981042.2914
       231.0004        184.0004
  22146673.2224   -2416599.90049  -1872011.13246  22146672.8774   22146675.6954
       233.0004        185.0004
 07  2 18  2 40 35.0000000  0  8G 1G22G20G19G14G31G25G11
  20719132.0884    -557936.95449   -433083.10947  20719131.8534   20719136.3004
       244.0004        212.0004
  22600336.7374    2558123.27749   1985487.34846  22600336.9324   22600338.9164
       228.0004        179.0004
  24422733.5574   -1491416.17449  -1142743.09145  24422733.2844   24422737.0094
       203.0004        135.0004
  24548702.7464    3396667.62949   2635058.88145  24548702.5674   24548705.0644
       212.0004        140.0004
  21736822.0464    2767780.76849   2148119.02447  21736821.6024   21736825.3134
       231.0004        191.0004
  20735369.4164   -2614448.43549  -2025769.61648  20735369.6024   20735372.7624
       241.0004        214.0004
  21978223.1194   -4794510.04749  -3700283.80646  21978222.9134   21978227.6034
       231.0004        184.0004
  22145521.9024   -2422650.10949  -1876725.57346  22145521.5844   22145525.1564
       233.0004        185.0004
 07  2 18  2 40 40.0000000  0  8G 1G22G20G19G14G31G25G11
  20719068.2194    -558272.64649   -433344.67947  20719067.7284   20719072.2874
       244.0004        212.0004
  22602209.7464    2567965.98749   1993156.99946  22602210.3054   22602211.3664
       228.0004        179.0004
  24419943.2104   -1506079.65749  -1154169.17445  24419943.4154   24419946.9294
       205.0004        135.0004
  24551070.8614    3409111.83349   2644755.67145  24551070.9274   24551073.1994
       212.0004        141.0004
  21738784.5164    2778093.71749   2156155.09247  21738783.8334   21738787.9084
       231.0004        191.0004
  20734140.8204   -2620904.69749  -2030800.46148  20734140.7234   20734144.0544
       241.0004        214.0004
  21975409.2254   -4809297.19049  -3711806.24546  21975409.0914   21975413.3904
       231.0004        184.0004
  22144373.3304   -2428685.85649  -1881428.74046  22144372.7804   22144375.7824
       234.0004        185.0004
 07  2 18  2 40 45.0000000  0  8G 1G22G20G19G14G31G25G11
  20719005.9304    -558599.98749   -433599.75147  20719005.2814   20719009.9664
       244.0004        212.0004
  22604083.9404    2577814.94149   2000831.50546  22604083.3494   22604086.0504
       227.0004        179.0004
  24417152.7534   -1520743.70649  -1165595.70245  24417153.7264   24417156.1464
       202.0004        135.0004
  24553439.0894    3421556.83349   2654453.07445  24553438.9584   24553441.5214
       211.0004        141.0004
  21740747.6994    2788410.47949   2164194.12247  21740747.1444   21740750.9204
       232.0004        191.0004
  20732915.1424   -2627345.54249  -2035819.29948  20732914.8724   20732918.3504
       241.0004        214.0004
  21972597.1414   -4824074.80349  -3723321.26446  21972596.7984   21972600.4074
       232.0004        184.0004
  22143227.4844   -2434707.29849  -1886120.78446  22143227.2434   22143230.5194
       235.0004        185.0004
 07  2 18  2 40 50.0000000  0  8G 1G22G20G19G14G31G25G11
  20718945.1564    -558919.23849   -433848.52347  20718944.7534   20718949.4044
       243.0004        212.0004
  22605959.2664    2587669.89349   2008510.68646  22605958.9404   22605961.3104
       227.0004        179.0004
  24414362.1074   -1535408.60849  -1177022.89445  24414363.1084   24414366.2174
       204.0004        135.0004
  24555807.4374    3434002.38049   2664150.90745  24555807.1384   24555809.8984
       209.0004        142.0004
  21742711.5864    2798730.77549   2172235.90747  21742711.2644   21742714.7824
       231.0004        191.0004
  20731692.3634   -2633771.24949  -2040826.34748  20731692.5284   20731695.6634
       240.0004        214.0004
  21969786.8164   -4838843.14149  -3734829.05846  21969787.1134   21969790.0664
       231.0004        184.0004
  22142084.3014   -2440714.70149  -1890801.87946  22142084.0144   22142087.6554
       234.0004        185.0004
 07  2 18  2 40 55.0000000  0  8G 1G22G20G19G14G31G25G11
  20718885.8404    -559230.93049   -434091.39147  20718885.4844   20718889.9974
       244.0004        212.0004
  22607835.6244    2597530.32649   2016194.13846  22607835.1614   22607837.8924
       227.0004        179.0004
  24411571.2204   -1550074.88949  -1188451.15745  24411570.5114   24411575.5484
       198.0004        135.0004
  24558175.7704    3446447.93749   2673848.74145  24558175.7994   24558178.4784
       211.0004        142.0004
  21744676.0514    2809054.06849   2180280.04147  21744675.7744   21744679.3774
       232.0004        191.0004
  20730472.3774   -2640182.32449  -2045821.98148  20730472.4634   20730475.5754
       242.0004        214.0004
  21966978.1464   -4853602.72049  -3746330.01646  21966977.8484   21966981.3674
       233.0004        184.0004
  22140943.7354   -2446708.59849  -1895472.44046  22140943.6644   22140946.6184
       236.0004        185.0004
 07  2 18  2 41  0.0000000  0  8G 1G22G20G19G14G31G25G11
  20718828.1554    -559534.14049   -434327.66147  20718827.7444   20718832.2374
       244.0004        212.0004
  22609713.2104    2607397.12949   2023882.55946  22609712.6424   22609714.7474
       227.0004        178.0004
  24408780.2094   -1564741.60549  -1199879.75045  24408778.2144   24408783.2964
       200.0004        135.0004
  24560544.2854    3458894.43749   2683547.30545  24560543.7994   24560547.2014
       209.0004        142.0004
  21746641.2594    2819381.27349   2188327.20747  21746640.6144   21746644.4584
       231.0004        191.0004
  20729255.3464   -2646577.83549  -2050805.49848  20729255.5454   20729258.7614
       241.0004        214.0004
  21964171.3244   -4868352.58149  -3757823.41446  21964171.0414   21964175.3224
       231.0004        184.0004
  22139805.8894   -2452688.04449  -1900131.75646  22139805.8314   22139808.9914
       235.0004        185.0004
 07  2 18  2 41  5.0000000  0  8G 1G22G20G19G14G31G25G11
  20718771.8724    -559829.79349   -434558.04247  20718771.4734   20718775.9674
       244.0004        212.0004
  22611591.8394    2617269.41949   2031575.23846  22611591.7114   22611594.0174
       226.0004        178.0004
  24405988.9564   -1579409.63149  -1211309.37245  24405987.5664   24405993.1994
       200.0004        135.0004
  24562912.7504    3471340.90949   2693245.84845  24562911.6804   24562915.1704
       209.0004        142.0004
  21748607.0524    2829711.46649   2196376.71047  21748606.3534   21748610.7644
       233.0004        191.0004
  20728041.0964   -2652958.68849  -2055777.59048  20728041.3264   20728044.5124
       242.0004        214.0004
  21961366.1754   -4883093.68949  -3769309.98946  21961366.7224   21961369.6864
       232.0004        184.0004
  22138670.6344   -2458653.95649  -1904780.51646  22138670.3974   22138673.1944
       234.0004        185.0004
 07  2 18  2 41 10.0000000  0  8G 1G22G20G19G14G31G25G11
  20718717.2194    -560117.03049   -434781.86447  20718716.6414   20718721.4884
       243.0004        212.0004
  22613471.7014    2627148.04949   2039272.87146  22613471.3804   22613473.9264
       226.0004        178.0004
  24403197.5904   -1594078.15349  -1222739.37845  24403196.0794   24403201.7644
       202.0004        135.0004
  24565281.3824    3483788.23649   2702945.06345  24565280.9404   24565284.2594
       210.0004        142.0004
  21750573.5694    2840045.53249   2204429.22647  21750573.0824   21750576.6044
       231.0004        191.0004
  20726829.8294   -2659324.02149  -2060737.59048  20726830.1344   20726833.1074
       240.0004        214.0004
  21958562.8684   -4897825.11649  -3780789.02446  21958562.4644   21958566.4024
       231.0004        184.0004
  22137538.1134   -2464605.47049  -1909418.06346  22137537.7224   22137540.4924
       234.0004        185.0004
 07  2 18  2 41 15.0000000  0  8G 1G22G20G19G14G31G25G11
  20718664.0254    -560396.64949   -434999.74647  20718663.6084   20718668.3804
       244.0004        212.0004
  22615352.5684    2637032.23249   2046974.83046  22615351.8884   22615354.8594
       225.0004        177.0004
  24400406.0024   -1608747.92049  -1234170.34745  24400403.7524   24400410.5594
       201.0004        135.0004
  24567650.0264    3496235.62249   2712644.32645  24567649.6304   24567652.5104
       208.0004        142.0004
  21752540.6934    2850382.65349   2212484.12447  21752540.1704   21752543.9134
       231.0004        191.0004
  20725621.3504   -2665674.60249  -2065686.09048  20725621.6114   20725624.6294
       242.0004        214.0004
  21955761.2624   -4912547.68749  -3792261.14846  21955761.3534   21955764.6894
       231.0004        184.0004
  22136408.1854   -2470543.35649  -1914044.98946  22136407.8944   22136410.9844
       234.0004        185.0004
 07  2 18  2 41 20.0000000  0  8G 1G22G20G19G14G31G25G11
  20718612.2754    -560668.56649   -435211.62547  20718611.8934   20718616.4314
       244.0004        212.0004
  22617234.5524    2646922.07849   2054681.20246  22617235.3344   22617236.5694
       226.0004        177.0004
  24397614.1824   -1623418.86649  -1245602.23145  24397611.6954   24397618.8524
       203.0004        136.0004
  24570018.7064    3508683.13849   2722343.68645  24570018.0804   24570021.4014
       210.0004        142.0004
  21754508.4204    2860722.91149   2220541.47047  21754508.1274   21754511.5964
       232.0004        191.0004
  20724415.7034   -2672010.33149  -2070623.02048  20724415.9654   20724419.1094
       241.0004        214.0004
  21952961.3414   -4927261.25649  -3803726.25446  21952961.6514   21952965.3074
       232.0004        184.0004
  22135280.8634   -2476467.52649  -1918661.22046  22135280.5544   22135283.4024
       232.0004        185.0004
 07  2 18  2 41 25.0000000  0  8G 1G22G20G19G14G31G25G11
  20718562.1964    -560931.75549   -435416.70747  20718561.8884   20718566.3034
       244.0004        212.0004
  22619117.7604    2656818.57249   2062392.75646  22619117.8814   22619119.9804
       225.0004        177.0004
  24394822.3374   -1638089.94249  -1257034.21745  24394821.0474   24394826.1094
       201.0004        135.0004
  24572387.5974    3521131.79549   2732043.93545  24572387.2504   24572389.2284
       208.0004        142.0004
  21756476.9004    2871067.34149   2228602.06547  21756476.1454   21756480.1784
       232.0004        191.0004
  20723213.0624   -2678330.21949  -2075547.60848  20723213.4684   20723216.2524
       241.0004        214.0004
  21950163.3374   -4941964.80049  -3815183.55946  21950163.3284   21950167.3054
       232.0004        185.0004
  22134156.2904   -2482376.93849  -1923265.95346  22134155.5234   22134159.2284
       233.0004        185.0004
 07  2 18  2 41 30.0000000  0  8G 1G22G20G19G14G31G25G11
  20718513.5324    -561187.50349   -435615.98647  20718513.0524   20718517.5544
       244.0004        212.0004
  22621002.0464    2666720.46949   2070108.51646  22621001.5964   22621004.3264
       225.0004        177.0004
  24392030.2524   -1652762.41249  -1268467.29445  24392028.7204   24392033.5324
       206.0004        136.0004
  24574756.4444    3533580.29149   2741744.06045  24574755.6114   24574758.5314
       210.0004        142.0004
  21758445.9754    2881414.65449   2236664.91247  21758445.1224   21758449.0764
       233.0004        191.0004
  20722013.2064   -2684635.52449  -2080460.82548  20722013.3094   20722016.4354
       242.0004        214.0004
  21947367.0464   -4956659.58949  -3826634.03646  21947366.6544   21947371.1574
       233.0004        185.0004
  22133034.3224   -2488272.87049  -1927860.18446  22133033.5804   22133036.8774
       233.0004        185.0004
 07  2 18  2 41 35.0000000  0  8G 1G22G20G19G14G31G25G11
  20718466.4474    -561434.88849   -435808.75547  20718466.1644   20718470.6564
       244.0004        212.0004
  22622887.5144    2676628.71049   2077829.22146  22622887.7114   22622889.6734
       224.0004        176.0004
  24389238.0784   -1667435.35949  -1279900.75145  24389235.8834   24389241.9944
       203.0004        136.0004
  24577125.4704    3546029.55249   2751444.78245  24577124.2114   24577127.4894
       208.0004        142.0004
  21760415.7294    2891765.75849   2244730.70747  21760415.6284   21760419.0354
       232.0004        191.0004
  20720816.2904   -2690925.29749  -2085361.94648  20720816.5974   20720819.7194
       241.0004        214.0004
  21944572.5774   -4971344.61449  -3838076.90946  21944571.9594   21944576.4294
       232.0004        185.0004
  22131915.0704   -2494154.38349  -1932443.18246  22131914.6944   22131917.7874
       234.0004        185.0004
 07  2 18  2 41 40.0000000  0  8G 1G22G20G19G14G31G25G11
  20718420.8004    -561674.74049   -435995.65247  20718420.2064   20718424.8924
       245.0004        212.0004
  22624774.0104    2686542.41249   2085554.18046  22624773.5554   22624776.0074
       226.0004        176.0004
  24386445.6604   -1682109.64349  -1291335.24945  24386444.0064   24386450.6754
       205.0004        135.0004
  24579494.4374    3558478.66749   2761145.39045  24579492.9314   24579495.8044
       211.0004        142.0004
  21762386.0684    2902119.82149   2252798.80547  21762385.2644   21762389.1354
       232.0004        191.0004
  20719622.1914   -2697200.35949  -2090251.60648  20719622.4344   20719625.4614
       242.0004        214.0004
  21941779.7744   -4986020.78649  -3849512.87846  21941779.5724   21941783.5244
       233.0004        185.0004
  22130798.4034   -2500022.32349  -1937015.60646  22130798.1474   22130801.2464
       234.0004        185.0004
 07  2 18  2 41 45.0000000  0  8G 1G22G20G19G14G31G25G11
  20718376.7364    -561906.32349   -436176.10647  20718376.3474   20718380.8974
       244.0004        212.0004
  22626661.7224    2696462.34649   2093284.00246  22626661.6784   22626663.5444
       224.0004        176.0004
  24383653.1234   -1696784.47149  -1302770.17445  24383652.7884   24383658.6474
       206.0004        135.0004
  24581863.5594    3570928.45549   2770846.53745  24581862.2814   24581865.1604
       211.0004        142.0004
  21764357.0884    2912477.58549   2260869.78347  21764356.4904   21764360.1844
       231.0004        191.0004
  20718431.0374   -2703459.92949  -2095129.19148  20718431.3284   20718434.2224
       241.0004        214.0004
  21938988.8304   -5000687.32649  -3860941.34646  21938988.8644   21938992.3474
       232.0004        185.0004
  22129684.4894   -2505875.92149  -1941576.85546  22129684.0884   22129686.9044
       234.0004        185.0004
 07  2 18  2 41 50.0000000  0  8G 1G22G20G19G14G31G25G11
  20718334.1624    -562130.13249   -436350.50147  20718333.9864   20718338.4004
       245.0004        212.0004
  22628550.5224    2706388.03749   2101018.30046  22628550.2514   22628553.3774
       226.0004        176.0004
  24380860.4294   -1711460.33149  -1314205.90245  24380859.6524   24380865.9584
       208.0004        135.0004
  24584232.6624    3583378.38749   2780547.78845  24584231.7514   24584233.9334
       212.0004        142.0004
  21766328.7084    2922838.52149   2268943.24847  21766328.5544   21766332.1364
       232.0004        190.0004
  20717242.7234   -2709704.53649  -2099995.12148  20717243.1914   20717246.1244
       242.0004        214.0004
  21936199.6154   -5015344.74749  -3872362.70246  21936199.7454   21936203.7124
       232.0004        185.0004
  22128573.2144   -2511715.69349  -1946127.32446  22128573.3874   22128575.8164
       234.0004        185.0004
 07  2 18  2 41 55.0000000  0  8G 1G22G20G19G14G31G25G11
  20718293.1134    -562345.87549   -436518.60847  20718292.8244   20718297.3804
       244.0004        212.0004
  22630440.4764    2716319.82249   2108757.35646  22630440.7424   22630442.7294
       225.0004        176.0004
  24378067.5984   -1726136.90849  -1325642.19245  24378066.0064   24378073.3464
       206.0004        135.0004
  24586601.9144    3595828.76349   2790249.38445  24586600.6814   24586602.8394
       212.0004        143.0004
  21768300.9794    2933202.99349   2277019.46347  21768300.2894   21768304.0694
       231.0004        190.0004
  20716057.3074   -2715933.85449  -2104849.12948  20716057.6624   20716060.8814
       241.0004        214.0004
  21933412.1854   -5029992.74049  -3883776.71646  21933411.5254   21933416.6634
       231.0004        185.0004
  22127464.6064   -2517541.32849  -1950666.77846  22127463.6464   22127467.2564
       234.0004        185.0004
 07  2 18  2 42  0.0000000  0  8G 1G22G20G19G14G31G25G11
  20718253.5694    -562553.64449   -436680.50247  20718253.0424   20718257.6184
       244.0004        212.0004
  22632331.5544    2726257.56249   2116501.04546  22632331.1134   22632333.1904
       225.0004        176.0004
  24375274.6354   -1740814.29249  -1337079.11345  24375274.4294   24375279.4604
       206.0004        136.0004
  24588971.2284    3608279.50649   2799951.26045  24588970.6604   24588972.1054
       211.0004        143.0004
  21770273.9424    2943570.88949   2285098.34247  21770273.3734   21770277.1994
       231.0004        190.0004
  20714874.7904   -2722147.98349  -2109691.30448  20714875.1604   20714878.1264
       241.0004        214.0004
  21930626.5694   -5044631.26449  -3895183.35646  21930626.8134   21930630.6244
       233.0004        185.0004
  22126358.7384   -2523352.87249  -1955195.25246  22126358.8514   22126361.4594
       235.0004        185.0004
 07  2 18  2 42  5.0000000  0  8G 1G22G20G19G14G31G25G11
  20718215.4814    -562753.68949   -436836.38347  20718215.3284   20718219.5214
       244.0004        212.0004
  22634223.7644    2736201.04049   2124249.21146  22634223.4334   22634225.2104
       224.0004        175.0004
  24372481.4704   -1755492.74549  -1348516.87245  24372480.9334   24372486.0734
       206.0004        136.0004
  24591340.5484    3620730.30349   2809653.18645  24591339.7704   24591342.2504
       211.0004        144.0004
  21772247.4634    2953941.96049   2293179.69447  21772246.8174   21772250.1194
       230.0004        190.0004
  20713695.1214   -2728347.16849  -2114521.83848  20713695.3274   20713698.4404
       241.0004        214.0004
  21927842.6684   -5059260.65849  -3906582.88046  21927843.2104   21927846.7304
       232.0004        185.0004
  22125255.4744   -2529150.60849  -1959712.96946  22125255.7344   22125258.4534
       233.0004        185.0004
 07  2 18  2 42 10.0000000  0  8G 1G22G20G19G14G31G25G11
  20718178.9164    -562945.92549   -436986.17347  20718178.5434   20718183.0734
       244.0004        212.0004
  22636117.0674    2746150.31449   2132001.89046  22636117.5224   22636119.4344
       225.0004        175.0004
  24369688.1224   -1770172.20349  -1359955.41445  24369688.1564   24369691.6914
       207.0004        136.0004
  24593709.8614    3633181.26149   2819355.24045  24593709.1794   24593712.6464
       212.0004        145.0004
  21774221.6244    2964316.23149   2301263.54047  21774220.8914   21774224.6484
       231.0004        190.0004
  20712518.2944   -2734531.30049  -2119340.63948  20712518.4924   20712521.5864
       241.0004        214.0004
  21925060.5514   -5073880.80849  -3917975.20646  21925059.9074   21925064.4724
       232.0004        185.0004
  22124154.8584   -2534934.42049  -1964219.83146  22124154.5374   22124158.1304
       233.0004        185.0004
 07  2 18  2 42 15.0000000  0  8G 1G22G20G19G14G31G25G11
  20718143.8664    -563130.07649   -437129.66847  20718143.5884   20718147.9084
       244.0004        212.0004
  22638011.5084    2756105.67049   2139759.31246  22638011.5514   22638013.4434
       224.0004        175.0004
  24366894.6294   -1784852.32249  -1371394.46645  24366894.6304   24366898.6314
       204.0004        136.0004
  24596079.2954    3645632.61749   2829057.60045  24596078.6494   24596082.5954
       212.0004        145.0004
  21776196.4674    2974694.01349   2309350.12947  21776196.0734   21776199.9374
       230.0004        190.0004
  20711344.4024   -2740700.10649  -2124147.49748  20711344.8344   20711347.8194
       241.0004        214.0004
  21922280.2344   -5088491.46049  -3929360.11846  21922279.5724   21922283.7804
       231.0004        186.0004
  22123056.9514   -2540704.00149  -1968715.61546  22123056.3074   22123059.8654
       234.0004        185.0004
 07  2 18  2 42 20.0000000  0  8G 1G22G20G19G14G31G25G11
  20718110.3994    -563306.03649   -437266.77647  20718109.9214   20718114.5714
       244.0004        212.0004
  22639907.1534    2766067.22949   2147521.55546  22639906.2094   22639909.6984
       223.0004        175.0004
  24364100.9764   -1799533.00149  -1382833.95445  24364100.6544   24364103.8184
       203.0004        136.0004
  24598448.8124    3658084.49349   2838760.35945  24598448.7784   24598452.0964
       213.0004        146.0004
  21778171.9854    2985075.43949   2317439.55347  21778171.6164   21778175.1594
       232.0004        190.0004
  20710173.4564   -2746853.47549  -2128942.32848  20710173.6654   20710176.8814
       242.0004        214.0004
  21919501.7544   -5103092.39549  -3940737.46046  21919501.2754   21919505.5574
       233.0004        186.0004
  22121961.7604   -2546459.25049  -1973200.22146  22121961.4654   22121964.5454
       234.0004        185.0004
 07  2 18  2 42 25.0000000  0  8G 1G22G20G19G14G31G25G11
  20718078.2984    -563474.60249   -437398.12447  20718077.9034   20718082.4804
       243.0004        212.0004
  22641803.7834    2776034.20449   2155288.03546  22641803.5964   22641805.4284
       224.0004        174.0004
  24361307.0744   -1814215.05449  -1394274.50945  24361305.7494   24361309.7344
       204.0004        136.0004
  24600818.2584    3670536.07749   2848462.89245  24600818.0384   24600821.4374
       211.0004        147.0004
  21780148.0254    2995459.68849   2325531.17747  21780147.6984   21780150.6024
       232.0004        189.0004
  20709005.3004   -2752992.15949  -2133725.71448  20709005.6444   20709008.5684
       241.0004        214.0004
  21916724.9584   -5117684.48749  -3952107.91646  21916724.8974   21916728.9164
       233.0004        186.0004
  22120869.1504   -2552200.95849  -1977674.27846  22120868.3324   22120871.7554
       232.0004        184.0004
 07  2 18  2 42 30.0000000  0  8G 1G22G20G19G14G31G25G11
  20718047.8664    -563634.48449   -437522.70947  20718047.5044   20718051.9934
       244.0004        212.0004
  22643701.7154    2786007.87949   2163059.71746  22643701.5224   22643704.3544
       223.0004        174.0004
  24358513.1524   -1828897.17649  -1405715.12245  24358512.0734   24358515.7804
       205.0004        136.0004
  24603187.9314    3682988.64349   2858166.18945  24603187.2384   24603190.8624
       212.0004        147.0004
  21782124.8484    3005848.03649   2333625.98747  21782123.9594   21782127.7624
       231.0004        189.0004
  20707840.2164   -2759114.79049  -2138496.59848  20707840.5604   20707843.4964
       241.0004        214.0004
  21913950.1324   -5132266.37249  -3963470.42046  21913949.9884   21913954.2574
       231.0004        186.0004
  22119779.3554   -2557927.81549  -1982136.76546  22119778.7664   22119782.2064
       232.0004        184.0004
 07  2 18  2 42 35.0000000  0  8G 1G22G20G19G14G31G25G11
  20718018.8654    -563786.91849   -437641.49047  20718018.4544   20718023.2924
       243.0004        212.0004
  22645600.6624    2795987.00949   2170835.66346  22645600.4674   22645602.8024
       222.0004        174.0004
  24355718.9334   -1843580.61649  -1417156.75545  24355717.6184   24355722.2454
       205.0004        136.0004
  24605557.5124    3695440.94649   2867869.27945  24605556.4684   24605560.4084
       211.0004        147.0004
  21784102.2314    3016239.24449   2341723.03647  21784101.9004   21784105.3464
       231.0004        189.0004
  20706677.8934   -2765222.72249  -2143256.02348  20706678.3254   20706681.3914
       241.0004        214.0004
  21911176.9784   -5146839.29049  -3974825.93646  21911176.9084   21911180.8084
       232.0004        186.0004
  22118692.1334   -2563641.10149  -1986588.67446  22118691.3594   22118695.6564
       232.0004        184.0004
 07  2 18  2 42 40.0000000  0  8G 1G22G20G19G14G31G25G11
  20717991.3174    -563931.62249   -437754.23947  20717990.8734   20717995.3604
       244.0004        212.0004
  22647500.7294    2805971.92749   2178616.11946  22647500.4324   22647502.4534
       225.0004        173.0004
  24352924.5584   -1858265.02349  -1428599.13745  24352924.0614   24352927.9884
       205.0004        136.0004
  24607927.0744    3707893.29049   2877572.41045  24607925.5484   24607929.1444
       210.0004        148.0004
  21786080.1934    3026633.62949   2349822.56247  21786079.7514   21786083.1494
       231.0004        189.0004
  20705518.4644   -2771315.61249  -2148003.72248  20705518.8484   20705521.9194
       241.0004        214.0004
  21908405.6024   -5161402.98349  -3986174.25846  21908405.8664   21908409.3744
       233.0004        186.0004
  22117607.5454   -2569340.47949  -1991029.74146  22117606.7694   22117610.5114
       233.0004        184.0004
 07  2 18  2 42 45.0000000  0  8G 1G22G20G19G14G31G25G11
  20717965.3084    -564068.29649   -437860.73647  20717964.9714   20717969.5064
       244.0004        212.0004
  22649401.9324    2815962.91649   2186401.31146  22649402.0154   22649404.1264
       222.0004        173.0004
  24350130.0654   -1872950.11349  -1440042.04945  24350129.2164   24350133.0064
       207.0004        136.0004
  24610296.7464    3720345.95549   2887275.78645  24610295.3774   24610299.1154
       211.0004        148.0004
  21788058.8494    3037031.45949   2357924.76847  21788058.2614   21788062.2594
       231.0004        189.0004
  20704361.9524   -2777393.17849  -2152739.48648  20704362.4284   20704365.4034
       241.0004        214.0004
  21905636.0354   -5175957.07949  -3997515.10746  21905635.8144   21905639.8014
       232.0004        186.0004
  22116525.6904   -2575025.64449  -1995459.74446  22116525.1184   22116528.4594
       233.0004        184.0004
 07  2 18  2 42 50.0000000  0  8G 1G22G20G19G14G31G25G11
  20717940.8474    -564196.80649   -437960.87547  20717940.4784   20717945.0514
       244.0004        212.0004
  22651304.3294    2825960.12949   2194191.34146  22651303.4194   22651306.5014
       223.0004        173.0004
  24347335.5014   -1887635.68149  -1451485.33045  24347334.7914   24347338.8794
       206.0004        137.0004
  24612666.4504    3732799.01149   2896979.46345  24612665.7464   24612669.1164
       212.0004        148.0004
  21790038.1704    3047432.89349   2366029.78547  21790037.1914   21790041.3914
       230.0004        189.0004
  20703208.3674   -2783455.31049  -2157463.22448  20703208.7374   20703211.6634
       241.0004        214.0004
  21902868.3664   -5190501.43249  -4008848.36446  21902868.0104   21902872.2654
       233.0004        186.0004
  22115446.5754   -2580696.45549  -1999878.56146  22115445.9254   22115449.6134
       233.0004        184.0004
 07  2 18  2 42 55.0000000  0  8G 1G22G20G19G14G31G25G11
  20717917.8324    -564317.84349   -438055.19047  20717917.5744   20717921.9424
       244.0004        212.0004
  22653207.7614    2835962.86949   2201985.68946  22653207.0714   22653210.1544
       222.0004        173.0004
  24344540.6774   -1902322.49849  -1462929.58845  24344539.3164   24344543.8464
       210.0004        138.0004
  24615036.1604    3745251.80949   2906682.93945  24615035.8454   24615039.3934
       211.0004        149.0004
  21792018.0434    3057837.19549   2374137.02647  21792017.2304   21792021.4394
       231.0004        189.0004
  20702057.6314   -2789502.64549  -2162175.43248  20702058.1034   20702061.1174
       241.0004        214.0004
  21900102.3924   -5205036.70049  -4020174.53946  21900102.4854   21900106.6324
       232.0004        186.0004
  22114370.0364   -2586353.62549  -2004286.74546  22114370.0004   22114373.1094
       232.0004        184.0004
 07  2 18  2 43  0.0000000  0  8G 1G22G20G19G14G31G25G11
  20717896.2964    -564431.00349   -438143.36547  20717895.9594   20717900.4104
       244.0004        212.0004
  22655112.3414    2845971.55349   2209784.66246  22655112.0724   22655114.2744
       222.0004        173.0004
  24341745.7144   -1917010.13149  -1474374.48745  24341743.9914   24341748.9924
       207.0004        139.0004
  24617405.8584    3757704.76249   2916386.53445  24617405.3154   24617408.8284
       211.0004        149.0004
  21793998.5424    3068244.82649   2382246.87247  21793997.9894   21794001.5524
       232.0004        189.0004
  20700909.7374   -2795534.77649  -2166875.79048  20700910.1984   20700913.0444
       242.0004        214.0004
  21897338.2084   -5219562.51549  -4031493.35046  21897337.8284   21897342.2344
       232.0004        186.0004
  22113296.1834   -2591996.68549  -2008683.93546  22113295.1244   22113299.7874
       233.0004        184.0004
 07  2 18  2 43  5.0000000  0  8G 1G22G20G19G14G31G25G11
  20717876.4114    -564535.51149   -438224.79647  20717876.1434   20717880.5584
       245.0004        212.0004
  22657018.1784    2855986.93249   2217588.84946  22657018.0334   22657020.3724
       222.0004        173.0004
  24338950.7464   -1931697.79449  -1485819.40445  24338949.5964   24338954.6134
       207.0004        139.0004
  24619775.7584    3770158.57849   2926090.80245  24619774.9644   24619778.9024
       211.0004        149.0004
  21795979.8244    3078656.57549   2390359.92947  21795979.2884   21795982.8394
       231.0004        189.0004
  20699764.9034   -2801550.93549  -2171563.70148  20699765.1114   20699768.2144
       242.0004        214.0004
  21894575.9714   -5234078.06949  -4042804.17146  21894575.9014   21894579.1834
       234.0004        186.0004
  22112225.1684   -2597624.86949  -2013069.52546  22112224.7454   22112227.7894
       234.0004        184.0004
 07  2 18  2 43 10.0000000  0  8G 1G22G20G19G14G31G25G11
  20717857.8924    -564632.85349   -438300.64647  20717857.7664   20717862.0304
       244.0004        212.0004
  22658925.0174    2866007.57549   2225397.14146  22658925.1934   22658927.6794
       222.0004        172.0004
  24336155.5064   -1946386.96649  -1497265.49745  24336154.5414   24336160.0874
       204.0004        140.0004
  24622145.5384    3782611.84249   2935794.64645  24622144.2244   24622148.3724
       211.0004        149.0004
  21797961.6184    3089070.88949   2398474.97447  21797961.0364   21797964.3254
       231.0004        189.0004
  20698622.8334   -2807552.55649  -2176240.28548  20698623.2014   20698625.9604
       242.0004        214.0004
  21891815.4424   -5248584.79949  -4054108.11146  21891815.5614   21891819.1824
       232.0004        187.0004
  22111156.7134   -2603239.66649  -2017444.70446  22111156.6454   22111158.8584
       233.0004        184.0004
 07  2 18  2 43 15.0000000  0  8G 1G22G20G19G14G31G25G11
  20717840.8624    -564722.35749   -438370.38747  20717840.4384   20717844.8944
       244.0004        212.0004
  22660832.9984    2876034.08849   2233210.00646  22660832.2924   22660835.1694
       223.0004        172.0004
  24333360.0724   -1961076.98449  -1508712.25145  24333359.4264   24333365.0724
       208.0004        140.0004
  24624515.3304    3795065.20549   2945498.56745  24624514.4434   24624517.9384
       209.0004        149.0004
  21799944.0244    3099488.40349   2406592.52147  21799943.3834   21799947.0794
       230.0004        189.0004
  20697483.6734   -2813538.97349  -2180905.02248  20697483.6004   20697486.9264
       241.0004        214.0004
  21889056.6904   -5263082.06949  -4065404.67646  21889056.7214   21889060.4484
       232.0004        187.0004
  22110090.9304   -2608840.37149  -2021808.87946  22110090.1634   22110093.9454
       232.0004        184.0004
 07  2 18  2 43 20.0000000  0  8G 1G22G20G19G14G31G25G11
  20717825.3464    -564803.88749   -438433.91847  20717824.9384   20717829.3694
       245.0004        212.0004
  22662742.1194    2886066.69449   2241027.61046  22662742.0004   22662745.1234
       224.0004        172.0004
  24330564.5294   -1975767.63449  -1520159.50245  24330563.3514   24330568.3454
       209.0004        140.0004
  24626885.1424    3807518.82149   2955202.68645  24626883.4634   24626888.0754
       210.0004        149.0004
  21801927.0664    3109909.30149   2414712.70047  21801926.3304   21801930.0454
       231.0004        188.0004
  20696347.4254   -2819510.04849  -2185557.80848  20696347.7174   20696350.6754
       242.0004        214.0004
  21886299.7944   -5277569.65449  -4076693.70246  21886299.4404   21886303.9284
       234.0004        187.0004
  22109027.8364   -2614426.84449  -2026161.97946  22109027.5494   22109030.6954
       233.0004        184.0004
 07  2 18  2 43 25.0000000  0  8G 1G22G20G19G14G31G25G11
  20717811.3414    -564877.51349   -438491.28747  20717811.0284   20717815.5454
       244.0004        212.0004
  22664652.3984    2896105.28549   2248849.88946  22664652.3984   22664654.0214
       222.0004        172.0004
  24327768.8484   -1990459.05849  -1531607.36545  24327767.7874   24327773.0604
       204.0004        139.0004
  24629254.9754    3819972.58849   2964906.92045  24629253.1734   24629257.6844
       209.0004        148.0004
  21803910.7254    3120333.51349   2422835.46447  21803910.1774   21803914.2454
       229.0004        188.0004
  20695214.0784   -2825465.79549  -2190198.64548  20695214.2914   20695217.3104
       241.0004        214.0004
  21883544.6974   -5292047.69049  -4087975.28646  21883544.4374   21883548.3314
       233.0004        187.0004
  22107967.4594   -2619999.16849  -2030504.05346  22107967.0634   22107970.8134
       231.0004        184.0004
 07  2 18  2 43 30.0000000  0  8G 1G22G20G19G14G31G25G11
  20717798.8534    -564943.15949   -438542.43647  20717798.5574   20717802.9114
       244.0004        212.0004
  22666563.8494    2906149.96049   2256676.91246  22666563.5154   22666565.8534
       222.0004        172.0004
  24324973.0014   -2005151.12749  -1543055.73645  24324971.5034   24324977.0624
       204.0004        139.0004
  24631624.8684    3832426.53349   2974611.29845  24631622.9724   24631627.8864
       209.0004        148.0004
  21805895.0094    3130761.10549   2430960.86247  21805893.9044   21805898.4324
       229.0004        188.0004
  20694083.6454   -2831406.14449  -2194827.48548  20694083.7744   20694086.8144
       241.0004        214.0004
  21880791.4824   -5306516.01249  -4099249.30046  21880791.4134   21880795.3384
       232.0004        187.0004
  22106909.7894   -2625557.21249  -2034834.99246  22106909.3054   22106913.1024
       231.0004        184.0004
 07  2 18  2 43 35.0000000  0  8G 1G22G20G19G14G31G25G11
  20717787.7384    -565001.55149   -438587.93647  20717787.3744   20717791.7794
       245.0004        212.0004
  22668476.3154    2916200.01649   2264508.13346  22668475.7714   22668478.5684
       223.0004        172.0004
  24322176.9414   -2019844.52049  -1554505.13445  24322176.2684   24322179.4254
       205.0004        138.0004
  24633994.6294    3844879.94449   2984315.25945  24633992.5624   24633997.5634
       211.0004        148.0004
  21807879.8174    3141191.36749   2439088.33947  21807879.3694   21807882.9494
       230.0004        188.0004
  20692956.0274   -2837331.83749  -2199444.90448  20692956.1054   20692959.3744
       242.0004        214.0004
  21878039.9444   -5320975.39349  -4110516.33946  21878039.7684   21878043.7794
       233.0004        187.0004
  22105854.6674   -2631101.72649  -2039155.39146  22105853.7964   22105857.8174
       232.0004        184.0004
 07  2 18  2 43 40.0000000  0  8G 1G22G20G19G14G31G25G11
  20717778.2724    -565051.32649   -438626.72147  20717778.1414   20717782.3504
       246.0004        212.0004
  22670390.0834    2926256.83549   2272344.60446  22670389.9764   22670393.1534
       225.0004        171.0004
  24319380.8474   -2034537.94449  -1565954.55645  24319379.8644   24319382.7964
       202.0004        137.0004
  24636364.5664    3857334.15949   2994019.84545  24636363.1714   24636367.0994
       213.0004        148.0004
  21809865.3684    3151625.64249   2447218.93747  21809864.3254   21809868.7334
       231.0004        188.0004
  20691831.4334   -2843241.49349  -2204049.83348  20691831.8534   20691834.7414
       243.0004        214.0004
  21875290.3734   -5335424.39749  -4121775.30246  21875290.3424   21875294.3464
       234.0004        187.0004
  22104802.4124   -2636631.34349  -2043464.19046  22104801.7644   22104805.4234
       234.0004        184.0004
 07  2 18  2 43 45.0000000  0  8G 1G22G20G19G14G31G25G11
  20717770.1774    -565093.79049   -438659.80947  20717769.8064   20717774.1234
       244.0004        212.0004
  22672304.8554    2936319.05849   2280185.29546  22672305.2004   22672307.2744
       222.0004        171.0004
  24316584.5014   -2049232.65249  -1577404.97745  24316584.1494   24316587.0374
       204.0004        136.0004
  24638734.4524    3869787.89349   3003724.05545  24638733.6304   24638737.0044
       212.0004        147.0004
  21811851.4284    3162062.62749   2455351.65947  21811850.5404   21811854.7344
       229.0004        188.0004
  20690709.6834   -2849136.40749  -2208643.26648  20690709.8204   20690712.8934
       242.0004        214.0004
  21872542.5434   -5349864.36249  -4133027.21946  21872542.4144   21872546.5364
       233.0004        187.0004
  22103752.7154   -2642147.35149  -2047762.37546  22103752.0714   22103756.0414
       232.0004        184.0004
 07  2 18  2 43 50.0000000  0  8G 1G22G20G19G14G31G25G11
  20717763.6444    -565128.22049   -438686.63547  20717763.2414   20717767.7564
       244.0004        212.0004
  22674220.8224    2946387.44249   2288030.79246  22674220.9044   22674222.6404
       223.0004        171.0004
  24313788.0604   -2063927.89649  -1588855.82045  24313787.0854   24313791.0874
       206.0004        135.0004
  24641104.3744    3882241.84049   3013428.43045  24641103.9094   24641106.7314
       210.0004        147.0004
  21813838.1674    3172503.05849   2463487.06247  21813837.3554   21813841.4924
       230.0004        188.0004
  20689590.8584   -2855015.85449  -2213224.65048  20689591.0844   20689594.1324
       241.0004        214.0004
  21869796.5894   -5364294.54949  -4144271.51346  21869796.6754   21869799.9884
       232.0004        187.0004
  22102705.7554   -2647648.94049  -2052049.32746  22102705.5554   22102708.6634
       233.0004        183.0004
 07  2 18  2 43 55.0000000  0  8G 1G22G20G19G14G31G25G11
  20717758.5424    -565154.99049   -438707.49447  20717758.0854   20717762.6374
       244.0004        212.0004
  22676137.9224    2956461.64949   2295880.82246  22676138.0464   22676140.0214
       222.0004        171.0004
  24310991.4624   -2078624.06149  -1600307.36645  24310990.6814   24310995.6104
       207.0004        135.0004
  24643474.2804    3894695.62249   3023132.67845  24643473.9184   24643476.7464
       212.0004        148.0004
  21815825.4744    3182946.56349   2471624.85447  21815824.8894   21815828.8194
       229.0004        188.0004
  20688474.9314   -2860880.18049  -2217794.25348  20688475.4664   20688478.0954
       241.0004        214.0004
  21867052.4154   -5378715.25249  -4155508.41946  21867052.1054   21867056.0094
       232.0004        187.0004
  22101661.4764   -2653136.56149  -2056325.39646  22101661.1084   22101664.9294
       232.0004        184.0004
 07  2 18  2 44  0.0000000  0  8G 1G22G20G19G14G31G25G11
  20717754.9474    -565173.82549   -438722.17147  20717754.4574   20717759.1004
       245.0004        212.0004
  22678056.1384    2966541.92849   2303735.58446  22678055.5494   22678058.6814
       222.0004        171.0004
  24308194.7404   -2093320.87249  -1611759.41645  24308194.2174   24308198.5524
       208.0004        135.0004
  24645844.1744    3907149.47849   3032836.98345  24645843.3584   24645846.2334
       213.0004        148.0004
  21817813.4144    3193393.39949   2479765.25147  21817812.4534   21817816.8404
       230.0004        188.0004
  20687361.9124   -2866729.11749  -2222351.86448  20687362.1874   20687365.3304
       243.0004        214.0004
  21864310.0664   -5393126.25549  -4166737.76246  21864309.9334   21864313.8394
       233.0004        187.0004
  22100619.9394   -2658609.90849  -2060590.34346  22100619.3004   22100622.8474
       233.0004        183.0004
 07  2 18  2 44  5.0000000  0  8G 1G22G20G19G14G31G25G11
  20717752.8054    -565185.04349   -438730.91347  20717752.4784   20717756.9764
       245.0004        212.0004
  22679975.4554    2976627.98649   2311594.84846  22679974.8504   22679977.5604
       220.0004        171.0004
  24305397.8884   -2108018.58749  -1623212.18045  24305398.8034   24305401.8194
       210.0004        136.0004
  24648214.0684    3919603.14249   3042541.13645  24648213.1274   24648215.7134
       212.0004        148.0004
  21819801.9554    3203843.29049   2487908.02447  21819801.1264   21819805.3774
       230.0004        188.0004
  20686251.7784   -2872562.96549  -2226897.71748  20686251.9964   20686255.1564
       242.0004        214.0004
  21861569.5334   -5407527.83449  -4177959.76946  21861569.4104   21861573.7324
       233.0004        187.0004
  22099581.0274   -2664069.31149  -2064844.42246  22099580.6694   22099584.5344
       233.0004        183.0004
 07  2 18  2 44 10.0000000  0  8G 1G22G20G19G14G31G25G11
  20717752.1574    -565188.54049   -438733.62747  20717751.5494   20717756.1684
       245.0004        212.0004
  22681895.8594    2986719.88649   2319458.67246  22681896.2504   22681897.3654
       223.0004        171.0004
  24302600.8884   -2122717.18949  -1634665.63245  24302601.8294   24302605.7114
       212.0004        138.0004
  24650583.8824    3932056.63649   3052245.16245  24650582.5374   24650586.1654
       210.0004        149.0004
  21821791.0704    3214296.30549   2496053.23547  21821790.4594   21821793.8654
       229.0004        188.0004
  20685144.5274   -2878381.61149  -2231431.71848  20685144.6824   20685147.8344
       242.0004        215.0004
  21858830.8024   -5421919.90549  -4189174.36246  21858830.7464   21858834.7804
       232.0004        187.0004
  22098544.7934   -2669514.66349  -2069087.55146  22098544.1664   22098548.0184
       232.0004        184.0004
 07  2 18  2 44 15.0000000  0  8G 1G22G20G19G14G31G25G11
  20717753.0364    -565183.90149   -438730.01547  20717752.5684   20717756.9804
       246.0004        212.0004
  22683817.4914    2996818.06849   2327327.37946  22683817.1704   22683819.9354
       223.0004        171.0004
  24299803.8444   -2137416.17949  -1646119.38145  24299804.7054   24299808.6134
       213.0004        139.0004
  24652953.7494    3944510.44749   3061949.43545  24652952.2164   24652956.4324
       212.0004        149.0004
  21823780.8604    3224752.82549   2504201.17247  21823779.7924   21823784.1294
       230.0004        188.0004
  20684040.2704   -2884184.58549  -2235953.51848  20684040.4574   20684043.3854
       242.0004        215.0004
  21856093.9414   -5436302.01949  -4200381.20246  21856093.7014   21856097.6794
       233.0004        187.0004
  22097511.3294   -2674945.52149  -2073319.38846  22097510.3924   22097514.2714
       232.0004        183.0004
 07  2 18  2 44 20.0000000  0  8G 1G22G20G19G14G31G25G11
  20717755.3214    -565171.97549   -438720.72448  20717755.0574   20717759.5244
       244.0004        213.0004
  22685740.1564    3006921.74949   2335200.37646  22685740.0994   22685742.1864
       222.0004        170.0004
  24297006.5464   -2152116.36349  -1657574.05245  24297007.0124   24297011.0024
       213.0004        140.0004
  24655323.5134    3956963.67949   3071653.25545  24655321.8364   24655326.7014
       210.0004        150.0004
  21825771.1854    3235212.06649   2512351.22547  21825770.2944   21825774.4554
       229.0004        188.0004
  20682938.8254   -2889972.78449  -2240463.80148  20682939.0194   20682942.0634
       242.0004        215.0004
  21853358.8424   -5450674.97049  -4211580.90246  21853358.3354   21853362.9354
       232.0004        187.0004
  22096480.4734   -2680362.69749  -2077540.56946  22096479.4664   22096483.6884
       231.0004        183.0004
 07  2 18  2 44 25.0000000  0  8G 1G22G20G19G14G31G25G11
  20717759.2674    -565151.26749   -438704.58948  20717759.0444   20717763.4634
       244.0004        213.0004
  22687664.1704    3017032.35949   2343078.76846  22687665.1864   22687666.6304
       221.0004        170.0004
  24294209.2764   -2166816.32749  -1669028.55645  24294209.2894   24294213.2564
       211.0004        141.0004
  24657693.4254    3969417.82049   3081357.78345  24657692.2354   24657696.8004
       210.0004        150.0004
  21827762.2904    3245675.47949   2520504.53147  21827761.8754   21827765.6274
       229.0004        188.0004
  20681840.4504   -2895744.67849  -2244961.38248  20681840.9394   20681843.7794
       241.0004        215.0004
  21850625.8184   -5465037.21849  -4222772.26346  21850626.1764   21850629.8994
       232.0004        187.0004
  22095452.4864   -2685764.74049  -2081749.95846  22095452.3774   22095455.7024
       231.0004        183.0004
